[[{"header":{"parameterUnit":"m.s-1","parameterCategory":1,"la1":30.6,"la2":28.766,"lo1":-90.7593,"lo2":-88.6598,"dy":0.0162,"dx":0.0183,"nx":116,"ny":114,"refTime":"2023-11-05T00:00:00:Z","depth":0,"parameterNumber":2,"parameterNumberName":"U-component_of_WINDS"},"data":[0.0,0.0,0.0,0.0,0.0,0.0,0.0,0.0,0.0,0.0,0.0,0.0,0.0,0.0,0.0,0.0,0.0,0.0,0.0,0.0,0.0,0.0,0.0,0.0,0.0,0.0,0.0,0.0,0.0,0.0,0.0,0.0,0.0,0.0,0.0,0.0,0.0,0.0,0.0,0.0,0.0,0.0,0.0,0.0,0.0,0.0,0.0,0.0,0.0,0.0,0.0,0.0,0.0,0.0,0.0,0.0,0.0,0.0,0.0,0.0,0.0,0.0,0.0,0.0,0.0,0.0,0.0,0.0,0.0,0.0,0.0,0.0,0.0,0.0,0.0,0.0,0.0,0.0,0.0,0.0,0.0,0.0,0.0,0.0,0.0,0.0,0.0,0.0,0.0,0.0,0.0,0.0,0.0,0.0,0.0,0.0,0.0,0.0,0.0,0.0,0.0,0.0,0.0,0.0,0.0,0.0,0.0,0.0,0.0,0.0,0.0,0.0,0.0,0.0,0.0,0.0,0.0,0.0,0.0,0.0,0.0,0.0,0.0,0.0,0.0,0.0,0.0,0.0,0.0,0.0,0.0,0.0,0.0,0.0,0.0,0.0,0.0,0.0,0.0,0.0,0.0,0.0,0.0,0.0,0.0,0.0,0.0,0.0,0.0,0.0,0.0,0.0,0.0,0.0,0.0,0.0,0.0,0.0,0.0,0.0,0.0,0.0,0.0,0.0,0.0,0.0,0.0,0.0,0.0,0.0,0.0,0.0,0.0,0.0,0.0,0.0,0.0,0.0,0.0,0.0,0.0,0.0,0.0,0.0,0.0,0.0,0.0,0.0,0.0,0.0,0.0,0.0,0.0,0.0,0.0,0.0,0.0,0.0,0.0,0.0,0.0,0.0,0.0,0.0,0.0,0.0,0.0,0.0,0.0,0.0,0.0,0.0,0.0,0.0,0.0,0.0,0.0,0.0,0.0,0.0,0.0,0.0,0.0,0.0,0.0,0.0,0.0,0.0,0.0,0.0,0.0,0.0,0.0,0.0,0.0,0.0,0.0,0.0,0.0,0.0,0.0,0.0,0.0,0.0,0.0,0.0,0.0,0.0,0.0,0.0,0.0,0.0,0.0,0.0,0.0,0.0,0.0,0.0,0.0,0.0,0.0,0.0,0.0,0.0,0.0,0.0,0.0,0.0,0.0,0.0,0.0,0.0,0.0,0.0,0.0,0.0,0.0,0.0,0.0,0.0,0.0,0.0,0.0,0.0,0.0,0.0,0.0,0.0,0.0,0.0,0.0,0.0,0.0,0.0,0.0,0.0,0.0,0.0,0.0,0.0,0.0,0.0,0.0,0.0,0.0,0.0,0.0,0.0,0.0,0.0,0.0,0.0,0.0,0.0,0.0,0.0,0.0,0.0,0.0,0.0,0.0,0.0,0.0,0.0,0.0,0.0,0.0,0.0,0.0,0.0,0.0,0.0,0.0,0.0,0.0,0.0,0.0,0.0,0.0,0.0,0.0,0.0,0.0,0.0,0.0,0.0,0.0,0.0,0.0,0.0,0.0,0.0,0.0,0.0,0.0,0.0,0.0,0.0,0.0,0.0,0.0,0.0,0.0,0.0,0.0,0.0,0.0,0.0,0.0,0.0,0.0,0.0,0.0,0.0,0.0,0.0,0.0,0.0,0.0,0.0,0.0,0.0,0.0,0.0,0.0,0.0,0.0,0.0,0.0,0.0,0.0,0.0,0.0,0.0,0.0,0.0,0.0,0.0,0.0,0.0,0.0,0.0,0.0,0.0,0.0,0.0,0.0,0.0,0.0,0.0,0.0,0.0,0.0,0.0,0.0,0.0,0.0,0.0,0.0,0.0,0.0,0.0,0.0,0.0,0.0,0.0,0.0,0.0,0.0,0.0,0.0,0.0,0.0,0.0,0.0,0.0,0.0,0.0,0.0,0.0,0.0,0.0,0.0,0.0,0.0,0.0,0.0,0.0,0.0,0.0,0.0,0.0,0.0,0.0,0.0,0.0,0.0,0.0,0.0,0.0,0.0,0.0,0.0,0.0,0.0,0.0,0.0,0.0,0.0,0.0,0.0,0.0,0.0,0.0,0.0,0.0,0.0,0.0,0.0,0.0,0.0,0.0,0.0,0.0,0.0,0.0,0.0,0.0,0.0,0.0,0.0,0.0,0.0,0.0,0.0,0.0,0.0,0.0,0.0,0.0,0.0,0.0,0.0,0.0,0.0,0.0,0.0,0.0,0.0,0.0,0.0,0.0,0.0,0.0,0.0,0.0,0.0,0.0,0.0,0.0,0.0,0.0,0.0,0.0,0.0,0.0,0.0,0.0,0.0,0.0,0.0,0.0,0.0,0.0,0.0,0.0,0.0,0.0,0.0,0.0,0.0,0.0,0.0,0.0,0.0,0.0,0.0,0.0,0.0,0.0,0.0,0.0,0.0,0.0,0.0,0.0,0.0,0.0,0.0,0.0,0.0,0.0,0.0,0.0,0.0,0.0,0.0,0.0,0.0,0.0,0.0,0.0,0.0,0.0,0.0,0.0,0.0,0.0,0.0,0.0,0.0,0.0,0.0,0.0,0.0,0.0,0.0,0.0,0.0,0.0,0.0,0.0,0.0,0.0,0.0,0.0,0.0,0.0,0.0,0.0,0.0,0.0,0.0,0.0,0.0,0.0,0.0,0.0,0.0,0.0,0.0,0.0,0.0,0.0,0.0,0.0,0.0,0.0,0.0,0.0,0.0,0.0,0.0,0.0,0.0,0.0,0.0,0.0,0.0,0.0,0.0,0.0,0.0,0.0,0.0,0.0,0.0,0.0,0.0,0.0,0.0,0.0,0.0,0.0,0.0,0.0,0.0,0.0,0.0,0.0,0.0,0.0,0.0,0.0,0.0,0.0,0.0,0.0,0.0,0.0,0.0,0.0,0.0,0.0,0.0,0.0,0.0,0.0,0.0,0.0,0.0,0.0,0.0,0.0,0.0,0.0,0.0,0.0,0.0,0.0,0.0,0.0,0.0,0.0,0.0,0.0,0.0,0.0,0.0,0.0,0.0,0.0,0.0,0.0,0.0,0.0,0.0,0.0,0.0,0.0,0.0,0.0,0.0,0.0,0.0,0.0,0.0,0.0,0.0,0.0,0.0,0.0,0.0,0.0,0.0,0.0,0.0,0.0,0.0,0.0,0.0,0.0,0.0,0.0,0.0,0.0,0.0,0.0,0.0,0.0,0.0,0.0,0.0,0.0,0.0,0.0,0.0,0.0,0.0,0.0,0.0,0.0,0.0,0.0,0.0,0.0,0.0,0.0,0.0,0.0,0.0,0.0,0.0,0.0,0.0,0.0,0.0,0.0,0.0,0.0,0.0,0.0,0.0,0.0,0.0,0.0,0.0,0.0,0.0,0.0,0.0,0.0,0.0,0.0,0.0,0.0,0.0,0.0,0.0,0.0,0.0,0.0,0.0,0.0,0.0,0.0,0.0,0.0,0.0,0.0,0.0,0.0,0.0,0.0,0.0,0.0,0.0,0.0,0.0,0.0,0.0,0.0,0.0,0.0,0.0,0.0,0.0,0.0,0.0,0.0,0.0,0.0,0.0,0.0,0.0,0.0,0.0,0.0,0.0,0.0,0.0,0.0,0.0,0.0,0.0,0.0,0.0,0.0,0.0,0.0,0.0,0.0,0.0,0.0,0.0,0.0,0.0,0.0,0.0,0.0,0.0,0.0,0.0,0.0,0.0,0.0,0.0,0.0,0.0,0.0,0.0,0.0,0.0,0.0,0.0,0.0,0.0,0.0,0.0,0.0,0.0,0.0,0.0,0.0,0.0,0.0,0.0,0.0,0.0,0.0,0.0,0.0,0.0,0.0,0.0,0.0,0.0,0.0,0.0,0.0,0.0,0.0,0.0,0.0,0.0,0.0,0.0,0.0,0.0,0.0,0.0,0.0,0.0,0.0,0.0,0.0,0.0,0.0,0.0,0.0,0.0,0.0,0.0,0.0,0.0,0.0,0.0,0.0,0.0,0.0,0.0,0.0,0.0,0.0,0.0,0.0,0.0,0.0,0.0,0.0,0.0,0.0,0.0,0.0,0.0,0.0,0.0,0.0,0.0,0.0,0.0,0.0,0.0,0.0,0.0,0.0,0.0,0.0,0.0,0.0,0.0,0.0,0.0,0.0,0.0,0.0,0.0,0.0,0.0,0.0,0.0,0.0,0.0,0.0,0.0,0.0,0.0,0.0,0.0,0.0,0.0,0.0,0.0,0.0,0.0,0.0,0.0,0.0,0.0,0.0,0.0,0.0,0.0,0.0,0.0,0.0,0.0,0.0,0.0,0.0,0.0,0.0,0.0,0.0,0.0,0.0,0.0,0.0,0.0,0.0,0.0,0.0,0.0,0.0,0.0,0.0,0.0,0.0,0.0,0.0,0.0,0.0,0.0,0.0,0.0,0.0,0.0,0.0,0.0,0.0,0.0,0.0,0.0,0.0,0.0,0.0,0.0,0.0,0.0,0.0,0.0,0.0,0.0,0.0,0.0,0.0,0.0,0.0,0.0,0.0,0.0,0.0,0.0,0.0,0.0,0.0,0.0,0.0,0.0,0.0,0.0,0.0,0.0,0.0,0.0,0.0,0.0,0.0,0.0,0.0,0.0,0.0,0.0,0.0,0.0,0.0,0.0,0.0,0.0,0.0,0.0,0.0,0.0,0.0,0.0,0.0,0.0,0.0,0.0,0.0,0.0,0.0,0.0,0.0,0.0,0.0,0.0,0.0,0.0,0.0,0.0,0.0,0.0,0.0,0.0,0.0,0.0,0.0,0.0,0.0,0.0,0.0,0.0,0.0,0.0,0.0,0.0,0.0,0.0,0.0,0.0,0.0,0.0,0.0,0.0,0.0,0.0,0.0,0.0,0.0,0.0,0.0,0.0,0.0,0.0,0.0,0.0,0.0,0.0,0.0,0.0,0.0,0.0,0.0,0.0,0.0,0.0,0.0,0.0,0.0,0.0,0.0,0.0,0.0,0.0,0.0,0.0,0.0,0.0,0.0,0.0,0.0,0.0,0.0,0.0,0.0,0.0,0.0,0.0,0.0,0.0,0.0,0.0,0.0,0.0,0.0,0.0,0.0,0.0,0.0,0.0,0.0,0.0,0.0,0.0,0.0,0.0,0.0,0.0,0.0,0.0,0.0,0.0,0.0,0.0,0.0,0.0,0.0,0.0,0.0,0.0,0.0,0.0,0.0,0.0,0.0,0.0,0.0,0.0,0.0,0.0,0.0,0.0,0.0,0.0,0.0,0.0,0.0,0.0,0.0,0.0,0.0,0.0,0.0,0.0,0.0,0.0,0.0,0.0,0.0,0.0,0.0,0.0,0.0,0.0,0.0,0.0,0.0,0.0,0.0,0.0,0.0,0.0,0.0,0.0,0.0,0.0,0.0,0.0,0.0,0.0,0.0,0.0,0.0,0.0,0.0,0.0,0.0,0.0,0.0,0.0,0.0,0.0,0.0,0.0,0.0,0.0,0.0,0.0,0.0,0.0,0.0,0.0,0.0,0.0,0.0,0.0,0.0,0.0,0.0,0.0,0.0,0.0,0.0,0.0,0.0,0.0,0.0,0.0,0.0,0.0,0.0,0.0,0.0,0.0,0.0,0.0,0.0,0.0,0.0,0.0,0.0,0.0,0.0,0.0,0.0,0.0,0.0,0.0,0.0,0.0,0.0,0.0,0.0,0.0,0.0,0.0,0.0,0.0,0.0,0.0,0.0,0.0,0.0,0.0,0.0,0.0,0.0,0.0,0.0,0.0,0.0,0.0,0.0,0.0,0.0,0.0,0.0,0.0,0.0,0.0,0.0,0.0,0.0,0.0,0.0,0.0,0.0,0.0,0.0,0.0,0.0,0.0,0.0,0.0,0.0,0.0,0.0,0.0,0.0,0.0,0.0,0.0,0.0,0.0,0.0,0.0,0.0,0.0,0.0,0.0,0.0,0.0,0.0,0.0,0.0,0.0,0.0,0.0,0.0,0.0,0.0,0.0,0.0,0.0,0.0,0.0,0.0,0.0,0.0,0.0,0.0,0.0,0.0,0.0,0.0,0.0,0.0,0.0,0.0,-2.5896,0.0,0.0,0.0,0.0,0.0,0.0,0.0,0.0,0.0,0.0,0.0,0.0,0.0,0.0,0.0,0.0,0.0,0.0,0.0,0.0,0.0,0.0,0.0,0.0,0.0,0.0,0.0,0.0,0.0,0.0,0.0,0.0,0.0,0.0,0.0,0.0,0.0,0.0,0.0,0.0,0.0,0.0,0.0,0.0,0.0,0.0,0.0,0.0,0.0,0.0,0.0,0.0,0.0,0.0,0.0,0.0,0.0,0.0,0.0,0.0,0.0,0.0,0.0,0.0,0.0,0.0,0.0,0.0,0.0,0.0,0.0,0.0,0.0,0.0,0.0,0.0,0.0,0.0,0.0,0.0,0.0,0.0,0.0,0.0,0.0,0.0,0.0,0.0,0.0,0.0,0.0,0.0,0.0,0.0,0.0,0.0,0.0,0.0,0.0,0.0,0.0,0.0,0.0,0.0,0.0,0.0,0.0,0.0,0.0,0.0,0.0,0.0,0.0,0.0,0.0,0.0,-2.6871,0.0,0.0,0.0,0.0,0.0,0.0,0.0,0.0,0.0,0.0,0.0,0.0,0.0,0.0,0.0,0.0,0.0,0.0,0.0,0.0,0.0,0.0,0.0,0.0,0.0,0.0,0.0,0.0,0.0,0.0,0.0,0.0,0.0,0.0,0.0,0.0,0.0,0.0,0.0,0.0,0.0,0.0,0.0,0.0,0.0,0.0,0.0,0.0,0.0,0.0,0.0,0.0,0.0,0.0,0.0,0.0,0.0,0.0,0.0,0.0,0.0,0.0,0.0,0.0,0.0,0.0,0.0,0.0,0.0,0.0,0.0,0.0,0.0,0.0,0.0,0.0,0.0,0.0,0.0,0.0,0.0,0.0,0.0,0.0,0.0,0.0,0.0,0.0,0.0,0.0,0.0,0.0,0.0,0.0,0.0,0.0,0.0,0.0,0.0,0.0,0.0,0.0,0.0,0.0,0.0,0.0,0.0,0.0,-3.1935,-3.2957,-3.4252,-3.4637,-3.5034,-3.5215,-3.1339,-2.9771,-2.9808,-2.844,0.0,0.0,0.0,0.0,0.0,0.0,0.0,0.0,0.0,0.0,0.0,0.0,0.0,0.0,0.0,0.0,0.0,0.0,0.0,0.0,0.0,0.0,0.0,0.0,0.0,0.0,0.0,0.0,0.0,0.0,0.0,0.0,0.0,0.0,0.0,0.0,0.0,0.0,-3.2578,-3.332,-3.3613,-3.3319,-2.9609,0.0,0.0,0.0,0.0,0.0,0.0,0.0,0.0,0.0,0.0,0.0,0.0,0.0,0.0,0.0,0.0,0.0,0.0,0.0,0.0,0.0,0.0,0.0,0.0,0.0,0.0,0.0,0.0,0.0,0.0,0.0,0.0,0.0,0.0,0.0,0.0,0.0,0.0,0.0,0.0,0.0,0.0,0.0,-2.4476,-2.4275,0.0,0.0,0.0,0.0,0.0,0.0,0.0,0.0,0.0,0.0,0.0,0.0,0.0,-3.0723,-3.2834,-3.3647,-3.4527,-3.5495,-3.5605,-3.5771,-3.5973,-3.6021,-3.6476,-3.7144,-3.652,0.0,-3.1164,-3.017,0.0,0.0,0.0,0.0,0.0,0.0,0.0,0.0,0.0,0.0,0.0,0.0,0.0,0.0,0.0,0.0,0.0,0.0,0.0,0.0,0.0,0.0,0.0,0.0,0.0,0.0,0.0,0.0,0.0,0.0,0.0,0.0,0.0,0.0,0.0,0.0,-3.0703,-3.3066,-3.5605,-3.5976,-3.6426,-3.6816,-3.4922,-3.2891,-3.082,-2.9687,0.0,0.0,0.0,0.0,0.0,0.0,0.0,0.0,0.0,0.0,0.0,0.0,0.0,0.0,0.0,0.0,0.0,0.0,0.0,0.0,0.0,0.0,0.0,0.0,0.0,0.0,0.0,0.0,0.0,0.0,0.0,0.0,0.0,0.0,0.0,0.0,0.0,0.0,0.0,-2.5344,-2.5308,-2.4319,-2.4997,-2.5364,0.0,0.0,0.0,0.0,0.0,0.0,0.0,0.0,0.0,-3.2326,-3.3201,-3.4137,-3.5183,-3.5991,-3.6817,-3.7661,-3.8102,-3.856,-3.9019,-3.9478,-3.9863,-4.0178,-3.9876,-3.828,-3.5719,-3.3486,-3.1765,-3.0473,0.0,0.0,0.0,0.0,-2.8985,-2.8425,0.0,0.0,0.0,0.0,0.0,0.0,0.0,0.0,0.0,0.0,0.0,0.0,0.0,0.0,0.0,-2.707,0.0,0.0,0.0,0.0,0.0,0.0,0.0,0.0,0.0,0.0,0.0,0.0,-3.3789,-3.6172,-3.8945,-3.918,-3.9629,-4.0234,-4.0234,-3.7617,-3.3125,-3.2012,-3.0547,0.0,0.0,0.0,0.0,0.0,0.0,0.0,0.0,0.0,0.0,0.0,0.0,0.0,0.0,0.0,0.0,0.0,0.0,0.0,0.0,0.0,0.0,0.0,0.0,0.0,0.0,0.0,0.0,0.0,0.0,0.0,0.0,0.0,0.0,0.0,0.0,0.0,0.0,-2.5987,-2.6319,-2.4713,-2.6117,-2.6814,0.0,0.0,0.0,0.0,0.0,0.0,-3.1678,-3.2908,-3.427,-3.5903,-3.6578,-3.7202,-3.7826,-3.8429,-3.9129,-3.9937,-4.0543,-4.124,-4.2031,-4.2433,-4.2837,-4.3187,-4.2359,-4.1396,-4.0121,-3.6642,-3.4416,-3.3045,-3.1834,-3.1288,-3.1195,-3.1393,-3.125,-3.1021,0.0,0.0,0.0,0.0,0.0,0.0,0.0,0.0,0.0,0.0,0.0,0.0,0.0,0.0,-2.9785,-3.0566,-3.0039,-2.9238,0.0,0.0,0.0,0.0,0.0,0.0,0.0,0.0,0.0,-3.4512,-3.707,-4.0078,-4.3398,-4.4238,-4.4648,-4.4687,-4.4687,-4.2734,-3.918,-3.5039,-3.3672,-3.3965,0.0,0.0,0.0,0.0,0.0,0.0,0.0,0.0,0.0,0.0,0.0,0.0,0.0,0.0,0.0,0.0,0.0,0.0,0.0,0.0,0.0,0.0,0.0,0.0,0.0,0.0,0.0,0.0,0.0,0.0,0.0,0.0,0.0,0.0,0.0,0.0,0.0,0.0,0.0,-2.5521,-2.7438,0.0,0.0,0.0,0.0,-3.1103,-3.3316,-3.5023,-3.5936,-3.6064,-3.6853,-3.8469,-3.856,-3.968,-4.1974,-4.2047,-4.2451,-4.3258,-4.3313,-4.3736,-4.4507,-4.3773,-4.4268,-4.5626,-4.4067,-4.337,-4.297,-3.8852,-3.6185,-3.4676,-3.4588,-3.4247,-3.3803,-3.3818,-3.3573,-3.3254,0.0,0.0,0.0,0.0,0.0,0.0,0.0,0.0,0.0,0.0,0.0,0.0,0.0,-3.043,-3.1601,-3.2441,-3.3242,-3.2656,-3.0137,0.0,0.0,0.0,0.0,0.0,0.0,0.0,-3.4023,-3.8047,-4.0625,-4.3086,-4.5371,-4.5683,-4.584,-4.584,-4.584,-4.4844,-4.2949,-3.918,-3.6465,-3.4473,-3.1855,-2.9629,0.0,0.0,0.0,0.0,0.0,0.0,0.0,0.0,0.0,0.0,0.0,0.0,0.0,0.0,0.0,0.0,0.0,0.0,0.0,0.0,0.0,0.0,0.0,0.0,0.0,0.0,0.0,0.0,0.0,0.0,0.0,0.0,0.0,0.0,0.0,0.0,0.0,-2.9395,-3.188,0.0,-3.2124,-3.2784,-3.3628,-3.4486,-3.5826,-3.6964,-3.7808,-3.8836,-3.99,-4.0983,-4.2029,-4.2983,-4.3846,-4.3846,-4.425,-4.5021,-4.3975,-4.392,-4.4691,-4.4415,-4.4599,-4.5131,-4.5076,-4.5039,-4.4893,-4.2886,-4.0488,-3.8005,-3.7176,-3.6524,-3.6127,-3.6677,-3.6347,-3.5706,0.0,0.0,0.0,0.0,0.0,0.0,0.0,0.0,0.0,0.0,0.0,-2.8203,-3.0254,-3.2285,-3.3926,-3.5059,-3.5391,-3.4355,-3.1523,0.0,0.0,0.0,0.0,0.0,0.0,-3.3848,-3.6992,-4.0742,-4.3027,-4.4883,-4.6308,-4.6308,-4.6465,-4.6738,-4.6738,-4.6582,-4.6133,-4.3262,-3.9883,-3.625,-3.3965,-3.2187,-3.0644,0.0,0.0,0.0,0.0,0.0,0.0,0.0,0.0,0.0,0.0,0.0,0.0,0.0,0.0,0.0,0.0,0.0,0.0,0.0,0.0,0.0,0.0,0.0,0.0,0.0,0.0,0.0,0.0,0.0,0.0,0.0,0.0,0.0,0.0,0.0,-3.3584,-3.2902,-3.5354,-3.667,-3.5555,-3.5922,-3.671,-3.7845,-3.8652,-3.9588,-4.0671,-4.1737,-4.2416,-4.269,-4.4011,-4.4563,-4.4305,-4.4562,-4.4984,-4.5498,-4.469,-4.4727,-4.5498,-4.5241,-4.5406,-4.5902,-4.5626,-4.5645,-4.581,-4.4745,-4.3204,-4.1374,-3.986,-3.8944,-3.85,-3.8881,-3.8565,-3.8034,0.0,0.0,0.0,0.0,0.0,0.0,0.0,0.0,0.0,0.0,-2.7246,-2.9336,-3.1953,-3.4512,-3.6738,-3.8496,-3.6211,-3.4004,-3.2344,-2.8945,0.0,0.0,0.0,0.0,-3.2363,-3.6523,-3.9922,-4.248,-4.4199,-4.5469,-4.6308,-4.6328,-4.6797,-4.7598,-4.7637,-4.8105,-4.8789,-4.7109,-4.3965,-3.9824,-3.6328,-3.5351,-3.5488,0.0,0.0,0.0,0.0,0.0,0.0,0.0,0.0,0.0,0.0,0.0,0.0,0.0,0.0,0.0,0.0,0.0,0.0,0.0,0.0,0.0,0.0,0.0,0.0,0.0,0.0,0.0,0.0,0.0,0.0,0.0,0.0,0.0,-3.1684,-3.4386,-3.6302,-3.5888,-3.7664,-3.8303,-3.6743,-3.801,-3.957,-4.1132,-4.1974,-4.3094,-4.4636,-4.4745,-4.4378,-4.3606,-4.436,-4.4397,-4.3608,-4.4397,-4.4783,-4.4837,-4.5553,-4.6324,-4.7076,-4.6287,-4.6783,-4.8141,-4.5828,-4.5259,-4.5847,-4.4268,-4.4066,-4.4546,-4.2609,-4.1508,-4.0914,-4.041,-4.0179,-4.0146,0.0,0.0,0.0,0.0,0.0,0.0,0.0,0.0,0.0,0.0,-2.7773,-3.0215,-3.2793,-3.5391,-3.7637,-3.9394,-3.6562,-3.4238,-3.3144,0.0,0.0,0.0,0.0,0.0,-3.6758,-3.9238,-4.1738,-4.4297,-4.5391,-4.6074,-4.6308,-4.6953,-4.7363,-4.7637,-4.8262,-4.8672,-4.8867,-4.8398,-4.7148,-4.5137,-4.1055,-3.8418,-3.6719,0.0,0.0,0.0,0.0,0.0,0.0,0.0,0.0,0.0,0.0,0.0,0.0,0.0,0.0,0.0,0.0,0.0,0.0,0.0,0.0,0.0,0.0,0.0,0.0,0.0,0.0,0.0,0.0,0.0,0.0,0.0,0.0,-3.7376,-3.5509,-3.807,-4.044,-4.1243,-4.2866,-4.3754,-4.3296,-4.3663,-4.4103,-4.4544,-4.4782,-4.5094,-4.5553,-4.5571,-4.5461,-4.5241,-4.6012,-4.6324,-4.6104,-4.6324,-4.6727,-4.7315,-4.6342,-4.6324,-4.7094,-4.6856,-4.7003,-4.7424,-4.7352,-4.7443,-4.7572,-4.6544,-4.5902,-4.5388,-4.3689,-4.3039,-4.3033,-4.2681,-4.2044,-4.1263,0.0,0.0,0.0,0.0,0.0,0.0,0.0,0.0,0.0,0.0,-2.8281,-3.0859,-3.2695,-3.5215,-3.7168,-3.8184,-3.5449,-3.3125,-3.1894,0.0,0.0,0.0,0.0,-3.6016,-3.9609,-4.1738,-4.3867,-4.6094,-4.6601,-4.7031,-4.7402,-4.791,-4.8516,-4.9199,-4.9375,-4.9824,-5.0449,-4.9746,-4.9355,-4.8945,-4.6113,-4.3613,-4.1289,-3.8242,-3.6836,-3.6172,-3.3867,-3.3184,-3.3105,-3.1113,0.0,0.0,0.0,0.0,0.0,0.0,0.0,0.0,0.0,0.0,0.0,0.0,0.0,0.0,0.0,0.0,0.0,0.0,0.0,0.0,0.0,0.0,0.0,0.0,-3.9386,-4.1446,-4.1723,-4.2575,-4.3546,-4.4595,-4.5421,-4.5902,-4.5902,-4.5902,-4.6049,-4.6379,-4.6085,-4.6049,-4.6379,-4.6416,-4.625,-4.5902,-4.6672,-4.6929,-4.6599,-4.6929,-4.7333,-4.7791,-4.7186,-4.715,-4.759,-4.759,-4.759,-4.7608,-4.7736,-4.7791,-4.7718,-4.6948,-4.6324,0.0,0.0,0.0,0.0,0.0,-4.2208,-4.138,0.0,0.0,0.0,0.0,0.0,0.0,0.0,0.0,0.0,0.0,0.0,-3.0937,-3.1816,-3.4101,-3.5605,-3.5703,-3.3379,-3.1211,0.0,0.0,0.0,-3.1387,-3.5508,-3.8906,-4.1426,-4.3984,-4.6055,-4.7598,-4.7695,-4.8144,-4.8906,-4.9082,-4.998,-5.1367,-5.0762,-5.1308,-5.2598,-5.1113,-5.0898,-5.1484,-5.0879,-4.9473,-4.7168,-4.1797,-4.0976,-4.2168,-3.8164,-3.5859,-3.4629,-3.4141,0.0,0.0,0.0,0.0,0.0,0.0,0.0,0.0,0.0,0.0,0.0,0.0,0.0,0.0,0.0,0.0,0.0,0.0,0.0,0.0,0.0,0.0,0.0,0.0,-4.2547,-4.5006,-4.8457,-4.7324,-4.6299,-4.6776,-4.648,-4.6231,-4.6177,-4.6177,-4.6471,-4.7168,-4.6581,-4.6489,-4.7204,0.0,0.0,0.0,0.0,-4.6874,-4.6177,-4.6874,-4.7241,-4.7241,-4.7957,-4.8306,-4.8306,-4.8306,-4.8306,-4.8269,-4.7553,-4.7241,-4.7168,-4.6471,-4.6067,-4.5773,-4.4485,-4.3494,-4.2713,-4.2203,-4.1578,-4.0995,0.0,0.0,0.0,0.0,0.0,0.0,0.0,0.0,0.0,-2.5703,-2.7519,-2.9121,-3.0019,-3.1797,-3.3203,-3.3848,-3.1562,-2.9668,0.0,0.0,-3.1777,-3.4883,-3.8496,-4.1328,-4.3183,-4.5762,-4.7266,-4.7598,-4.8301,-4.873,-4.8926,-5.0273,-5.1094,-5.1426,-5.1973,-5.2402,-5.2676,-5.2344,-5.2305,-5.25,-5.3047,-5.1406,-4.8516,-4.7344,-4.5898,-4.4199,-4.1953,-4.1855,-4.2226,-3.8769,-3.7734,-3.7422,-3.4609,0.0,0.0,0.0,0.0,0.0,0.0,0.0,0.0,0.0,0.0,0.0,0.0,0.0,0.0,0.0,0.0,0.0,0.0,0.0,0.0,-4.3104,-4.6163,-4.8567,-4.9689,-5.0615,-5.0752,-4.961,-4.8792,-4.8194,-4.7867,-4.7847,-4.7902,-4.8067,-4.7921,-4.7902,-4.8067,-4.8086,-4.8012,-4.7847,-4.7994,-4.7994,-4.7847,-4.7994,-4.8086,-4.8086,0.0,0.0,-4.8306,-4.8306,-4.8306,-4.8306,-4.8141,-4.8086,-4.8067,-4.7902,-4.7076,-4.581,-4.4894,-4.4034,-4.3321,-4.3214,-4.2523,-4.1621,0.0,0.0,0.0,0.0,0.0,0.0,0.0,0.0,0.0,0.0,-2.7226,-2.8476,-2.8906,-3.0117,-3.0898,-3.0859,-2.9297,0.0,0.0,-3.1367,-3.4336,-3.7793,-4.084,-4.3457,-4.5605,-4.6933,-4.8027,-4.8906,-4.9336,-4.9766,-5.0176,-5.1016,-5.1875,-5.2695,-5.2695,-5.2949,-5.3359,-5.3359,-5.3359,-5.3437,-5.4297,-5.3379,-5.1367,-5.0488,-4.9082,-4.7422,-4.6113,-4.5371,-4.4668,-4.2539,-4.0957,-3.9512,-3.7344,-3.4883,-3.2441,0.0,0.0,0.0,0.0,0.0,0.0,0.0,0.0,0.0,0.0,0.0,0.0,0.0,0.0,-3.6488,0.0,0.0,-4.3902,-4.6432,-4.899,-5.1037,-5.2157,-5.2652,-5.2228,-5.0355,-4.9808,-4.9375,-4.8988,-4.8563,-4.8306,-4.8306,-4.8306,-4.8306,-4.8306,-4.8306,-4.8306,-4.8306,-4.8306,-4.8306,-4.8306,-4.8306,-4.8306,-4.8306,-4.8306,-4.8306,-4.8306,-4.8306,-4.8306,-4.8306,-4.8306,-4.8306,-4.8269,-4.7865,-4.7003,-4.581,-4.5021,-4.4213,-4.3515,-4.3515,-4.2977,-4.2262,0.0,0.0,0.0,0.0,0.0,0.0,0.0,0.0,0.0,0.0,-2.6914,-2.7793,-2.7793,-2.8418,-2.8555,0.0,0.0,0.0,0.0,-3.3398,-3.6914,-4.0723,-4.3183,-4.5527,-4.7793,-4.8027,-4.8789,-5.0195,-5.0351,-5.0859,-5.166,-5.1836,-5.2656,-5.3984,-5.3437,-5.3418,-5.3769,-5.4101,-5.4141,-5.4082,-5.5137,-5.4922,-5.3828,-5.2246,-5.1133,-5.0293,-4.9277,-4.7226,-4.5,-4.5,-4.2832,-4.0059,-3.9512,-3.7676,-3.5293,-3.3215,-3.188,0.0,0.0,0.0,0.0,0.0,0.0,0.0,0.0,0.0,-3.4776,-3.6173,-3.795,-3.9892,-4.2124,-4.4624,-4.7172,-4.9721,-5.1414,-5.2895,-5.4299,-5.3895,-5.2743,-5.0807,-5.0488,-5.0191,-4.9621,-4.8938,-4.8495,-4.8421,-4.8421,-4.8383,-4.8306,-4.8306,-4.8306,-4.8306,-4.8306,-4.8306,-4.8306,-4.8306,-4.8306,-4.8306,-4.8306,-4.8306,-4.8306,-4.8306,-4.8306,-4.8306,-4.8306,-4.8306,-4.8251,-4.759,-4.6783,-4.5847,-4.5186,-4.4342,-4.3515,-4.3515,-4.316,-4.2711,0.0,0.0,0.0,0.0,0.0,0.0,0.0,0.0,0.0,0.0,0.0,0.0,0.0,0.0,0.0,0.0,0.0,0.0,-3.2754,-3.5508,-3.9238,-4.4219,-4.6191,-4.7656,-4.873,-4.9512,-5.0,-5.0195,-5.0918,-5.1719,-5.2578,-5.3359,-5.3808,-5.4023,-5.4707,-5.4199,-5.2949,-5.4492,-5.4707,-5.4141,-5.5781,-5.5469,-5.3887,-5.293,-5.2012,-5.1055,-4.9473,-4.7226,-4.5,-4.5,-4.3242,-4.1152,-4.1777,-4.0742,-3.8672,-3.5371,0.0,-3.1534,-2.9661,-2.9696,-3.0818,-3.307,-3.3705,-3.4609,0.0,0.0,-3.9708,-3.99,-4.1893,-4.3912,-4.4979,-4.7259,-4.9817,-5.2356,-5.3587,-5.428,-5.4472,-5.4414,-5.3862,-5.2481,-5.1636,-5.0724,-4.9608,-4.9412,-4.9218,-4.8863,-4.8829,-4.8675,-4.8325,-4.8306,-4.8306,-4.8306,-4.8306,-4.8306,-4.8306,-4.8306,-4.8306,-4.8306,-4.8306,-4.8306,-4.8306,-4.8306,-4.8306,-4.8306,-4.8306,-4.8306,-4.8306,-4.8214,-4.7278,-4.5883,-4.5792,-4.4837,-4.3515,-4.3515,-4.316,-4.2711,0.0,0.0,0.0,0.0,0.0,0.0,0.0,0.0,0.0,0.0,0.0,0.0,0.0,0.0,0.0,0.0,0.0,0.0,-3.3906,-3.6601,-4.0351,-4.5527,-4.6933,-4.8242,-4.9629,-5.0019,-5.043,-5.0898,-5.123,-5.1582,-5.1953,-5.2324,-5.2754,-5.3262,-5.3613,-5.3652,-5.3535,-5.4785,-5.4805,-5.4101,-5.5351,-5.4492,-5.2402,-5.1562,-4.9433,-4.6836,-4.6133,-4.4844,0.0,0.0,-4.0566,-3.9746,-4.0078,-3.9004,-3.7246,-3.5273,-3.3827,0.0,-3.1792,-3.2115,-3.2921,-3.3936,-3.5706,-3.7668,-3.9573,-4.1035,-4.2277,-4.3267,-4.5086,-4.6778,-4.7644,-4.9471,-5.1202,0.0,-5.3606,-5.4318,-5.3818,-5.3741,-5.318,-5.167,-5.0719,-5.0202,-5.0208,-4.9772,-4.9431,-4.9265,-4.9027,-4.883,-4.8657,-4.8421,-4.8306,-4.8306,-4.8306,-4.8306,-4.8306,-4.8306,-4.8306,-4.8306,-4.8306,-4.8306,-4.8306,-4.8306,-4.8306,-4.8269,-4.7791,-4.759,-4.7571,-4.7113,-4.6232,-4.5204,-4.5204,-4.4507,-4.3515,-4.3515,-4.3357,-4.3178,0.0,0.0,0.0,0.0,0.0,0.0,0.0,0.0,0.0,0.0,0.0,0.0,0.0,0.0,0.0,0.0,0.0,0.0,0.0,-3.668,-4.0449,-4.5371,-4.6875,-4.8418,-5.0156,-5.0195,-5.0488,-5.1074,-5.1289,-5.1406,-5.1406,-5.1641,-5.2109,-5.2715,-5.2949,-5.3144,-5.3359,-5.4473,-5.4433,-5.3691,-5.4336,-5.3164,-5.0879,-4.9082,-4.6152,-4.3008,-4.3008,-4.168,0.0,0.0,-3.7226,-3.6914,-3.7383,-3.666,-3.5527,-3.4883,-3.3906,-3.3098,-3.3448,-3.3914,-3.4624,-3.5951,-3.8334,-4.0681,-4.197,-4.3605,-4.5182,-4.6402,-4.7798,-4.9009,-4.9644,-5.0933,-5.1904,-5.1904,-5.3164,-5.3837,-5.2972,-5.2645,-5.1972,-5.051,-4.9567,-4.9292,-4.9916,-4.9681,-4.9432,-4.9319,-4.9164,-4.9029,-4.8913,-4.8513,-4.8306,-4.8306,-4.8306,-4.8306,-4.8306,-4.8306,-4.8306,-4.8306,-4.8306,-4.8306,-4.8306,-4.8306,-4.8196,-4.7938,-4.7351,-4.6966,-4.6709,-4.614,-4.5571,-4.5039,-4.5039,-4.4544,-4.3828,-4.3828,-4.3681,-4.3515,0.0,0.0,0.0,0.0,0.0,0.0,0.0,0.0,0.0,0.0,0.0,0.0,0.0,0.0,0.0,0.0,0.0,0.0,0.0,-3.5449,-3.9277,-4.3594,-4.623,-4.8418,-5.0156,-5.0195,-5.0215,-5.0234,-5.1016,-5.1406,-5.1426,-5.2266,-5.2676,-5.2734,-5.3574,-5.3047,-5.1582,-5.3301,-5.3535,-5.2734,-5.2773,-5.1758,-4.9766,-4.5527,-4.2812,-4.1289,-4.1289,0.0,0.0,0.0,-3.373,-3.2676,-3.4316,-3.4785,0.0,-3.4707,-3.3432,-3.2384,-3.3936,-3.432,-3.5469,-4.0346,-4.2277,-4.3643,-4.6144,-4.8009,-4.9221,-4.926,-4.999,-5.0635,-5.0654,-5.1337,-5.1904,-5.1904,-5.2654,-5.2953,-5.2058,-5.126,-5.0442,-4.9548,-4.8663,-4.8154,0.0,-4.8923,-4.9236,-4.8841,-4.9232,-4.9311,-4.893,-4.8513,-4.8306,-4.8306,-4.8306,-4.8306,-4.8306,-4.8306,-4.8306,-4.8306,-4.8306,-4.8306,-4.8306,-4.8306,-4.7865,-4.7131,-4.7113,-4.6654,-4.592,-4.5902,-4.5883,-4.5865,-4.5865,-4.5369,-4.4672,-4.4672,-4.4176,-4.3515,0.0,0.0,0.0,0.0,0.0,0.0,0.0,0.0,0.0,0.0,0.0,0.0,0.0,0.0,0.0,0.0,0.0,0.0,0.0,-3.4004,-3.7246,-4.1016,-4.3633,-4.582,-4.7578,-4.8183,-4.8769,-4.9336,-4.9609,-4.9746,-4.9746,-5.0039,-5.0176,-5.0195,-5.0488,-5.0605,-5.0644,-5.123,-5.0644,-4.9316,-4.9316,-4.7598,-4.4687,-4.1523,-3.8535,-3.5801,0.0,0.0,0.0,-3.0078,-2.9609,-2.9805,-3.0957,-3.0918,-3.0566,-3.1152,-3.243,-3.4023,-3.5677,-3.7701,-4.0018,-4.2779,-4.4951,-4.6797,-4.824,-4.9433,-5.0087,-4.951,-4.874,-4.799,-4.7422,-4.7528,-4.7913,-4.8481,-5.026,-5.1241,-5.0356,-5.051,-4.9952,-4.799,-4.749,0.0,0.0,0.0,0.0,-4.917,-4.9113,-4.9113,-4.9288,-4.8913,-4.8568,-4.8306,-4.8306,-4.8306,-4.8306,-4.8306,-4.8306,-4.8306,-4.8306,-4.8306,-4.8306,-4.8306,-4.8159,-4.7865,-4.7333,-4.6947,-4.6599,-4.5553,-4.5424,-4.5847,-4.5314,-4.4947,-4.4691,-4.4691,-4.4195,-4.3515,0.0,0.0,0.0,0.0,0.0,0.0,0.0,0.0,0.0,0.0,0.0,0.0,0.0,0.0,0.0,0.0,0.0,0.0,0.0,0.0,-3.4473,-3.7031,-3.959,-4.1621,-4.3047,-4.3633,-4.4199,-4.4746,-4.5371,-4.5527,-4.5234,-4.5859,-4.6308,-4.6582,-4.6582,-4.7051,-4.7851,-4.7539,-4.6601,-4.5254,-4.4629,-4.2676,-3.9805,-3.6934,-3.4258,0.0,0.0,0.0,0.0,-2.7109,-2.6914,-2.7519,-2.8398,-2.8926,-2.9453,-3.0625,-3.2885,-3.5669,-3.8578,-4.0863,-4.3046,-4.5557,-4.7379,-4.8798,-4.9663,-5.0048,-4.9913,-4.874,-4.7394,-4.599,-4.4509,-4.4239,-4.4528,-4.5393,-4.6913,-4.8105,-4.8452,-4.8721,-4.849,-4.7451,-4.7077,-4.6797,0.0,0.0,0.0,-4.8894,-4.9406,-4.9759,-4.9919,-4.9854,-4.947,-4.8784,-4.8765,-4.8618,-4.8306,-4.8306,-4.8306,-4.8306,-4.8306,-4.8306,-4.8306,-4.8306,-4.8141,-4.7828,-4.7314,-4.6929,-4.6581,-4.5571,-4.5424,-4.5883,-4.5663,-4.5205,-4.4728,-4.5021,-4.4433,-4.3515,0.0,0.0,0.0,0.0,0.0,0.0,0.0,0.0,0.0,0.0,0.0,0.0,0.0,0.0,0.0,0.0,0.0,0.0,0.0,0.0,0.0,-3.1953,-3.4434,-3.6211,-3.707,-3.7148,-3.7187,-3.7226,-3.8887,-3.9277,-3.8496,-4.0156,-4.1348,-4.207,-4.207,-4.2539,-4.3242,-4.2422,-4.1582,-4.0664,-3.9004,-3.7285,-3.5371,-3.2031,0.0,0.0,0.0,0.0,0.0,-2.5703,-2.5762,-2.5996,-2.6855,-2.8965,-3.1426,-3.3047,-3.4883,-3.7459,-4.2331,-4.3679,-4.4691,-4.8671,-4.957,-4.9682,-5.0481,-4.9923,-4.8798,-4.7105,-4.597,-4.4536,0.0,0.0,-4.197,-4.2893,-4.3181,-4.4143,-4.6615,-4.6336,-4.6413,0.0,0.0,0.0,0.0,0.0,0.0,-4.8298,0.0,-5.1141,-5.0816,-5.1197,-5.0897,-4.9724,-4.963,-4.9187,-4.8379,-4.8324,-4.8324,-4.8379,-4.8324,-4.8306,-4.8306,-4.8306,-4.7865,-4.7168,-4.7168,-4.6727,-4.6012,-4.5975,-4.5957,-4.603,-4.6746,-4.6085,-4.4783,-4.5571,-4.4837,-4.3515,0.0,0.0,0.0,0.0,0.0,0.0,0.0,0.0,0.0,0.0,0.0,0.0,0.0,0.0,0.0,0.0,0.0,0.0,0.0,0.0,0.0,0.0,0.0,0.0,0.0,0.0,0.0,0.0,0.0,-3.6875,-3.668,-3.7129,-3.7441,-3.7637,-3.7637,-3.7754,-3.7949,-3.7734,-3.6758,-3.5351,0.0,-3.3711,-3.1953,0.0,0.0,0.0,0.0,0.0,0.0,-2.5703,-2.6562,-2.7793,-2.8652,-3.1133,-3.3945,-3.5019,-3.8333,-4.2079,-4.3977,-4.63,-4.8579,-5.0289,-5.0629,-5.0407,-4.9981,-4.8681,-4.7048,-4.5316,-4.2797,-4.0516,-3.9219,0.0,0.0,-4.1893,-4.4278,0.0,-4.7625,-4.8721,0.0,-4.8202,0.0,-4.8836,-4.9048,-4.9663,0.0,0.0,-5.0873,-5.1231,-5.2081,-5.1937,-5.1567,-5.0952,-5.0081,-4.95,-4.928,-4.8618,-4.8636,-4.9242,-4.8618,-4.8306,-4.8306,-4.8306,-4.8196,-4.7975,-4.7975,-4.7884,-4.7645,-4.7058,-4.6782,-4.6746,-4.6361,-4.559,-4.4709,-4.4947,-4.4378,-4.3515,0.0,0.0,0.0,0.0,0.0,0.0,0.0,0.0,0.0,0.0,0.0,0.0,0.0,0.0,0.0,0.0,0.0,0.0,0.0,0.0,0.0,0.0,0.0,0.0,0.0,0.0,0.0,0.0,0.0,0.0,0.0,-3.2441,-3.2812,-3.3184,-3.3184,-3.3398,-3.373,-3.3359,0.0,0.0,0.0,0.0,0.0,0.0,0.0,0.0,0.0,0.0,0.0,0.0,-2.8887,-3.0234,-3.1445,-3.3945,-3.6797,-3.8809,-4.1676,-4.4712,-4.7054,-4.903,-5.061,-5.1503,-5.1059,-4.9989,-4.8347,-4.6575,-4.4465,-4.1596,-3.9502,-3.7777,-3.6565,-3.7046,-3.8315,0.0,0.0,0.0,-4.7201,-4.8086,-4.8779,0.0,-4.9548,0.0,-5.0952,-5.1164,-5.1722,0.0,-5.2626,-5.2587,-5.3092,-5.3294,-5.2915,-5.1967,-5.1269,-5.0653,-5.0143,-4.9279,-4.9114,-4.9592,-4.8728,-4.8306,-4.8306,-4.8306,-4.8306,-4.8306,-4.8306,-4.8306,-4.8269,-4.781,-4.7424,-4.7094,-4.7003,-4.603,-4.4745,-4.5112,-4.4488,-4.3515,0.0,0.0,0.0,0.0,0.0,0.0,0.0,0.0,0.0,0.0,0.0,0.0,0.0,0.0,0.0,0.0,0.0,0.0,0.0,0.0,0.0,0.0,0.0,0.0,0.0,0.0,0.0,0.0,0.0,0.0,0.0,0.0,0.0,0.0,0.0,0.0,0.0,0.0,0.0,0.0,0.0,0.0,0.0,0.0,0.0,0.0,0.0,0.0,0.0,0.0,-3.1719,-3.2891,-3.4922,-3.7344,-4.0098,-4.3418,-4.5078,-4.6699,-5.0527,-5.1573,-5.1703,-5.2212,-5.108,-4.908,-4.624,-4.4097,-4.1559,-3.7486,-3.6511,-3.5938,-3.4488,-3.5001,-3.6495,-3.9064,0.0,-4.1489,-4.6374,-4.6509,-4.7509,-5.1288,-5.0548,-5.0644,-5.2972,-5.2615,-5.2933,-5.453,-5.4664,-5.4479,-5.4078,-5.4714,-5.4362,-5.2727,-5.262,-5.2104,-5.1051,-5.0181,-4.9757,-4.9757,-4.8875,-4.8416,-4.8306,-4.8306,-4.8306,-4.8306,-4.8306,-4.8306,-4.8306,-4.8306,-4.7828,-4.7168,-4.7736,-4.6654,-4.4782,-4.5351,-4.469,-4.3515,0.0,0.0,0.0,0.0,0.0,0.0,0.0,0.0,0.0,0.0,0.0,0.0,0.0,0.0,0.0,0.0,0.0,0.0,0.0,0.0,0.0,0.0,0.0,0.0,0.0,0.0,0.0,0.0,0.0,0.0,0.0,0.0,0.0,0.0,0.0,0.0,0.0,0.0,0.0,0.0,0.0,0.0,0.0,0.0,0.0,0.0,0.0,0.0,0.0,0.0,-3.3008,-3.4941,-3.8848,-4.1836,-4.4433,-4.7187,-4.9082,-5.0605,-5.207,-5.2988,-5.3201,-5.1912,-5.0779,-4.8917,-4.4913,-4.1999,0.0,-3.6399,-3.5234,-3.4629,-3.4336,-3.5483,-3.7357,-4.0037,-4.1562,-4.372,-4.7375,-4.8375,-4.9279,0.0,-5.1241,-5.1923,-5.3087,-5.3703,0.0,0.0,-5.5491,-5.5451,-5.5358,-5.5205,-5.4477,-5.3142,-5.2777,-5.2492,-5.2289,-5.1169,-5.0582,-5.0582,-4.9756,-4.8985,-4.8306,-4.8306,-4.8306,-4.8306,-4.8306,0.0,-4.8306,-4.8306,-4.7828,-4.7058,-4.6526,-4.5663,-4.4654,-4.4103,-4.3753,-4.3515,0.0,0.0,0.0,0.0,0.0,0.0,0.0,0.0,0.0,0.0,-2.2177,-2.2183,0.0,0.0,0.0,0.0,0.0,0.0,0.0,0.0,0.0,0.0,0.0,0.0,0.0,0.0,-2.5561,-2.5599,0.0,0.0,0.0,-2.5599,-2.5599,0.0,0.0,0.0,0.0,0.0,0.0,0.0,0.0,0.0,0.0,0.0,0.0,0.0,0.0,0.0,0.0,0.0,-3.2616,-3.4941,-4.0176,-4.3594,-4.6094,-4.8262,-5.0098,-5.1699,-5.3027,-5.3672,-5.3691,-5.2402,-5.0056,-4.6942,-4.2645,-3.957,-3.6883,-3.4267,-3.3359,-3.3324,-3.4237,-3.5383,-3.7008,-3.959,-4.0288,-4.1981,-4.62,-4.6759,-4.7721,-5.0385,-5.1414,-5.2423,-5.376,-5.4241,-5.4818,-5.5645,-5.5703,-5.5703,-5.5703,-5.4898,-5.415,-5.3533,-5.2894,-5.2566,-5.2566,-5.1797,-5.1206,-5.0802,-4.9996,-4.9132,-4.8306,-4.8306,-4.8306,-4.8306,-4.8306,-4.8306,-4.8306,-4.8306,-4.7828,-4.7058,-4.6672,-4.5792,-4.4636,-4.4268,-4.3864,-4.3515,0.0,0.0,0.0,0.0,0.0,0.0,0.0,-2.1504,-2.1889,-2.2932,-2.2913,-2.2547,-2.185,-2.162,0.0,0.0,0.0,0.0,0.0,0.0,0.0,0.0,0.0,0.0,0.0,0.0,0.0,-2.5491,-2.5491,0.0,0.0,0.0,0.0,0.0,-2.5476,-2.549,0.0,0.0,0.0,0.0,0.0,0.0,0.0,0.0,0.0,0.0,0.0,0.0,0.0,0.0,-3.1554,-3.3769,-3.9082,-4.3047,-4.6055,-4.7617,-4.9785,-5.1973,-5.3359,-5.3984,-5.3945,-5.2519,-4.9219,-4.5137,-4.0644,-3.7555,-3.4906,-3.226,-3.1831,-3.2394,-3.3966,-3.4896,-3.625,0.0,-3.8725,-4.0018,-4.4707,-4.5073,-4.6317,-5.0231,-5.1587,0.0,-5.4357,-5.4664,0.0,-5.5645,-5.5703,-5.5703,-5.5703,-5.4748,-5.4218,-5.4218,-5.3462,-5.302,-5.2934,-5.2582,-5.1934,-5.1041,-5.0233,-4.9389,-4.8545,-4.8379,-4.8306,-4.8306,-4.8306,-4.8306,-4.8306,-4.8306,-4.7828,-4.7076,-4.6911,-4.5957,-4.4673,-4.4525,-4.4048,-4.3515,0.0,0.0,0.0,0.0,0.0,0.0,0.0,-2.1504,-2.21,-2.3764,-2.3297,-2.2778,-2.2682,-2.1966,0.0,0.0,0.0,0.0,0.0,0.0,0.0,0.0,0.0,0.0,0.0,0.0,0.0,-2.5491,-2.5491,0.0,0.0,0.0,0.0,0.0,0.0,-2.5404,-2.5417,0.0,0.0,0.0,0.0,0.0,0.0,0.0,0.0,0.0,0.0,0.0,0.0,0.0,0.0,-3.155,-3.4472,-3.9336,-4.4121,-4.5078,-4.8789,-5.2617,-5.2773,-5.3984,-5.4414,-5.123,-4.8359,-4.4961,-3.9883,-3.6699,-3.4041,-3.1366,-3.1448,-3.2282,-3.3228,-3.4079,-3.5464,-3.8068,0.0,-4.0532,-4.4097,-4.5795,-4.7663,-5.0385,0.0,0.0,-5.4414,-5.5164,-5.5607,-5.5684,-5.5703,-5.5703,-5.5703,-5.5585,-5.5536,-5.5536,-5.5097,-5.469,-5.4307,-5.3847,-5.3047,-5.1867,-5.1077,-5.0233,-4.9352,-4.8636,-4.8306,-4.8306,-4.8306,-4.8306,0.0,-4.8306,-4.7828,-4.7021,-4.6305,-4.548,-4.4617,-4.3883,-4.3552,-4.3515,0.0,0.0,0.0,0.0,0.0,0.0,0.0,-2.1504,-2.212,-2.3879,-2.3802,-2.3586,-2.3586,-2.2797,0.0,0.0,0.0,0.0,0.0,0.0,0.0,0.0,0.0,0.0,0.0,0.0,-2.535,-2.5372,-2.5372,0.0,0.0,0.0,0.0,0.0,0.0,-2.5348,-2.5344,-2.5308,0.0,0.0,0.0,0.0,0.0,0.0,0.0,0.0,0.0,0.0,-2.5602,-2.6676,-2.7634,0.0,-2.9049,-3.2669,0.0,0.0,-4.5254,-4.7969,-5.1074,-5.2422,-5.2519,-5.0664,-4.7051,-4.3008,-3.9414,-3.5801,-3.289,-3.1813,-3.1889,-3.2533,-3.3883,-3.4402,-3.5285,-3.7281,0.0,0.0,-4.0963,-4.1982,-4.3871,-4.7922,-5.0356,0.0,0.0,0.0,-5.5703,-5.5703,-5.5703,-5.5703,-5.5703,-5.5241,-5.4972,-5.4972,-5.456,-5.4245,-5.4074,-5.3889,-5.333,-5.2343,-5.1293,-5.0362,-4.9537,-4.8691,-4.8306,-4.8306,-4.8306,-4.8306,0.0,-4.7773,-4.7094,-4.6305,-4.5498,-4.469,-4.3938,-4.3608,-4.3515,-4.3515,0.0,0.0,0.0,0.0,0.0,0.0,-2.1389,-2.1504,-2.2023,-2.3509,-2.3725,-2.3725,-2.3725,-2.2932,-2.1947,-2.075,0.0,0.0,0.0,0.0,0.0,0.0,0.0,0.0,0.0,0.0,-2.5308,-2.5308,-2.5308,-2.5308,0.0,0.0,-2.5308,-2.5308,0.0,0.0,0.0,0.0,0.0,0.0,0.0,0.0,0.0,0.0,0.0,0.0,0.0,0.0,0.0,0.0,0.0,0.0,0.0,0.0,0.0,0.0,-4.123,-4.4433,-4.7812,-4.9863,-5.0723,-4.9375,-4.5527,-4.1367,-3.8809,-3.5098,-3.2129,-3.1875,-3.2012,-3.2637,-3.4043,-3.4531,-3.5155,0.0,0.0,-3.6618,-3.914,-4.0093,-4.2028,-4.6084,0.0,-5.0933,0.0,-5.4934,-5.5703,-5.5703,-5.5703,-5.5703,-5.5703,-5.5164,-5.4741,-5.4511,-5.4415,-5.4167,-5.3798,-5.4063,-5.3721,-5.276,-5.1547,-5.0542,-4.9712,-4.8731,-4.8306,-4.8306,-4.8306,-4.8306,0.0,-4.7424,-4.6636,-4.581,-4.5021,-4.4213,-4.3515,-4.3515,-4.3515,-4.3533,0.0,0.0,0.0,0.0,0.0,0.0,0.0,-2.1504,-2.1812,-2.2701,-2.2816,-2.2816,-2.2816,-2.2043,-2.1504,-2.1485,0.0,0.0,0.0,0.0,0.0,0.0,0.0,0.0,0.0,0.0,0.0,-2.5308,-2.5308,-2.5308,-2.5308,-2.5308,-2.5308,-2.5308,0.0,0.0,0.0,0.0,0.0,0.0,0.0,0.0,0.0,0.0,0.0,0.0,0.0,0.0,0.0,0.0,0.0,0.0,0.0,-2.559,-2.637,0.0,-3.7031,-4.3516,-4.2715,-4.6269,-4.959,-4.6992,-4.3769,-4.0527,-3.791,-3.4668,-3.1953,-3.1094,-3.1601,-3.2441,-3.3262,-3.4121,-3.498,-3.5879,0.0,0.0,-3.9577,-4.1703,-4.3821,0.0,0.0,-4.9125,-5.1673,-5.4222,-5.5703,-5.5703,-5.5703,0.0,-5.5703,-5.5684,-5.5318,-5.453,-5.5261,-5.5079,-5.3817,-5.4655,-5.4444,-5.3173,-5.1973,-5.0946,-5.0055,-4.8845,-4.8306,-4.8306,-4.8306,-4.8306,0.0,-4.7424,-4.6636,-4.581,-4.5021,-4.4213,-4.3515,-4.3515,-4.3515,-4.3608,0.0,0.0,0.0,0.0,0.0,0.0,0.0,-2.0673,-2.0985,-2.1793,-2.1908,-2.2139,-2.274,-2.2023,-2.1504,-2.1504,0.0,0.0,0.0,0.0,0.0,0.0,0.0,0.0,0.0,0.0,0.0,-2.5308,-2.5308,-2.5308,-2.5308,-2.5308,-2.5308,-2.5308,-2.5308,-2.5308,0.0,0.0,0.0,0.0,0.0,0.0,0.0,0.0,0.0,0.0,0.0,0.0,0.0,0.0,0.0,0.0,0.0,0.0,0.0,-2.6878,-3.0889,-3.5664,-3.8926,-4.1016,-4.2226,-4.1973,-3.9766,-3.7266,-3.5859,-3.334,-3.1406,-3.1719,-3.2441,-3.3281,-3.4121,-3.5,-3.5879,-3.6758,-3.7323,0.0,0.0,0.0,0.0,-4.6292,-5.0573,-5.3606,0.0,0.0,-5.5703,-5.5703,-5.5703,-5.5703,-5.5703,-5.5703,-5.5318,-5.453,-5.528,-5.5237,-5.4292,-5.4231,-5.4011,-5.3603,-5.1771,-5.0619,-5.0073,-4.9151,-4.855,-4.8269,-4.7718,-4.748,-4.7369,-4.6012,-4.5296,-4.5002,-4.4195,-4.3718,-4.357,-4.4121,-4.4323,-4.4433,0.0,0.0,0.0,0.0,0.0,0.0,0.0,-2.0308,-2.0481,-2.0981,-2.1058,-2.137,-2.2216,-2.1543,-2.1173,-2.1466,0.0,0.0,0.0,0.0,0.0,0.0,0.0,0.0,0.0,0.0,-2.5308,-2.5308,-2.5308,-2.5308,-2.5308,-2.5308,-2.5308,-2.5308,-2.5308,-2.5308,0.0,0.0,0.0,0.0,0.0,0.0,-2.5308,0.0,0.0,0.0,0.0,0.0,0.0,0.0,0.0,0.0,0.0,0.0,0.0,0.0,-2.709,-2.9853,-3.4411,-3.6855,-3.8164,-3.8379,-3.6953,-3.5273,-3.4414,-3.248,-3.1152,-3.2012,-3.2832,-3.3672,-3.4531,-3.541,-3.6172,-3.6719,-3.7363,-3.8066,0.0,0.0,0.0,-4.7024,0.0,0.0,0.0,-5.5318,-5.5703,-5.5703,-5.5703,-5.5703,-5.5703,-5.5703,-5.5184,-5.4049,-5.5107,-5.5164,-5.401,-5.4055,-5.3891,-5.3546,-5.1773,-5.056,-4.984,-4.9187,-4.8675,-4.8269,-4.7443,-4.7094,0.0,-4.5351,-4.4691,-4.4618,-4.3809,-4.3681,-4.3975,-4.4176,-4.4635,-4.5223,0.0,0.0,0.0,0.0,0.0,0.0,0.0,0.0,0.0,0.0,-2.0308,-2.0577,-2.1331,-2.075,-2.0596,0.0,0.0,0.0,0.0,0.0,0.0,0.0,0.0,0.0,0.0,-2.4793,-2.5212,-2.5212,-2.5269,-2.5308,-2.5308,-2.5308,-2.5308,-2.5308,-2.5308,-2.5308,-2.5308,-2.5308,-2.5308,-2.5308,-2.5308,-2.5308,0.0,0.0,0.0,0.0,0.0,0.0,0.0,0.0,0.0,0.0,0.0,0.0,0.0,0.0,0.0,0.0,0.0,-3.3528,-3.6484,-3.5801,-3.5039,-3.4219,-3.3418,-3.2012,0.0,-3.209,-3.2832,-3.3613,-3.4609,-3.5391,-3.5957,-3.6074,-3.75,-3.8926,0.0,-4.222,0.0,0.0,-5.0596,0.0,-5.3126,-5.4722,-5.5703,-5.5703,-5.5703,-5.5703,-5.5703,-5.5645,-5.4876,-5.326,-5.4703,-5.4741,-5.3126,-5.3914,-5.3914,-5.3077,-5.1848,-5.0672,-4.9518,-4.9123,-4.8691,0.0,-4.737,-4.6984,-4.6801,-4.5241,-4.4617,-4.4544,-4.3791,-4.3993,-4.4635,-4.392,-4.4635,-4.5993,0.0,0.0,0.0,0.0,0.0,0.0,0.0,0.0,0.0,0.0,0.0,-2.0365,-2.0558,-2.0404,0.0,0.0,0.0,0.0,0.0,0.0,0.0,0.0,0.0,0.0,0.0,-2.3932,-2.4375,-2.4375,-2.5,-2.5308,-2.5308,-2.5308,-2.5308,-2.5308,-2.5308,-2.5308,-2.5308,-2.5308,-2.5308,-2.5308,-2.5308,-2.5308,0.0,0.0,0.0,0.0,-2.5308,-2.5308,0.0,0.0,0.0,0.0,0.0,0.0,0.0,0.0,-2.5839,-2.6601,-2.7446,0.0,-3.0617,-3.1796,-3.1934,-3.1738,0.0,0.0,0.0,0.0,0.0,0.0,-3.5293,-3.5312,-3.5449,-3.6777,-3.7891,-3.9141,-4.0684,-4.5114,0.0,-5.0089,-5.2935,-5.4376,-5.3299,-5.4722,-5.5703,-5.5703,-5.5703,-5.5703,-5.5703,-5.5126,-5.4299,-5.3241,-5.3587,-5.328,-5.2212,-5.2404,-5.2404,-5.2192,-5.1276,-5.0538,-4.9949,-4.9532,-4.8802,-4.7779,-4.6653,-4.5828,-4.5186,-4.4195,-4.3773,-4.3754,-4.357,-4.3993,-4.4746,-4.5186,-4.5957,-4.6819,0.0,0.0,0.0,0.0,0.0,0.0,0.0,0.0,0.0,0.0,0.0,0.0,0.0,0.0,0.0,0.0,0.0,0.0,0.0,0.0,0.0,0.0,0.0,0.0,0.0,-2.3451,-2.411,-2.411,-2.4909,-2.5308,-2.5308,-2.5308,-2.5308,-2.5308,-2.5308,-2.5308,-2.5308,-2.5308,-2.5308,-2.5308,-2.5308,0.0,0.0,0.0,0.0,0.0,-2.5308,-2.5308,0.0,-2.5308,-2.5308,-2.5308,0.0,0.0,0.0,0.0,-2.5933,-2.6749,-2.7171,-2.8296,-2.9589,-3.0558,-3.1151,-3.1504,-3.1504,0.0,0.0,0.0,0.0,0.0,0.0,-3.5332,-3.5742,-3.707,-3.8379,0.0,0.0,0.0,-4.979,-5.1271,-5.3333,-5.4564,0.0,-5.5164,-5.5703,-5.5703,-5.5703,-5.553,-5.5164,-5.4741,-5.3914,-5.2635,-5.2596,-5.2385,-5.1904,-5.1904,-5.1904,-5.1885,-5.1087,-5.0483,-5.0092,-4.9866,-4.9108,-4.7863,-4.6682,-4.5819,-4.5117,-4.3962,-4.3818,-4.4227,-4.3693,-4.4213,-4.5223,-4.4911,-4.5535,-4.6507,0.0,0.0,0.0,0.0,0.0,0.0,0.0,0.0,0.0,0.0,0.0,0.0,0.0,0.0,0.0,0.0,0.0,0.0,0.0,0.0,0.0,0.0,0.0,-2.137,-2.1504,-2.3086,-2.3975,-2.411,-2.5043,-2.5423,-2.5308,-2.5442,-2.5423,-2.5308,-2.5308,-2.5308,-2.5308,-2.5308,-2.5308,-2.5308,-2.5308,0.0,0.0,0.0,0.0,0.0,0.0,0.0,0.0,-2.5308,-2.5308,-2.5308,-2.5308,0.0,0.0,0.0,0.0,0.0,-2.7765,-2.9496,-3.101,-3.075,-3.1458,-3.2207,-3.2207,0.0,0.0,0.0,0.0,0.0,0.0,-3.5508,0.0,0.0,0.0,0.0,-4.5984,-4.8113,-4.9999,-5.1955,-5.3123,0.0,-5.5247,-5.5562,-5.5645,-5.553,-5.5511,-5.5164,-5.4357,-5.4184,-5.3433,-5.1942,-5.1769,-5.1654,-5.1519,-5.1654,-5.1712,-5.1712,-5.1029,-5.0457,-4.9992,-4.9926,-4.9169,-4.7847,-4.6825,0.0,-4.5512,-4.4212,-4.4244,-4.5012,-4.405,-4.4568,-4.5712,-4.4278,-4.4704,-4.5863,0.0,0.0,0.0,0.0,0.0,0.0,0.0,0.0,0.0,0.0,0.0,0.0,0.0,0.0,0.0,0.0,0.0,0.0,0.0,0.0,0.0,0.0,0.0,-2.0808,-2.1485,-2.2489,-2.3355,-2.411,-2.564,-2.6019,-2.5327,-2.6058,-2.6,-2.5308,-2.5308,-2.5308,-2.5308,-2.5308,-2.5308,-2.5308,-2.5308,0.0,0.0,0.0,0.0,0.0,0.0,0.0,0.0,-2.5308,-2.5308,-2.5308,-2.5308,0.0,0.0,0.0,0.0,0.0,-2.7883,-3.0269,-3.2403,-3.1047,-3.1458,-3.2207,-3.2207,0.0,0.0,0.0,0.0,0.0,0.0,-3.5918,-3.6523,0.0,0.0,-4.5215,0.0,0.0,-5.2066,-5.2467,0.0,-5.5056,-5.3878,-5.494,-5.5415,-5.4741,-5.4684,-5.4318,-5.3453,-5.2692,-5.2173,-5.1904,-5.1241,-5.0529,-4.9798,-5.051,-5.0875,-5.0875,-5.077,-5.0279,-4.9499,-4.9159,-4.8112,-4.658,0.0,-4.5475,-4.4768,-4.453,-4.4535,-4.467,-4.4503,-4.4988,-4.5739,-4.5149,-4.5528,-4.6199,0.0,0.0,0.0,0.0,0.0,0.0,0.0,0.0,0.0,0.0,0.0,0.0,0.0,0.0,0.0,0.0,0.0,0.0,0.0,0.0,0.0,0.0,-2.0942,-2.1115,-2.1485,-2.2816,-2.3913,-2.4755,-2.5986,-2.639,-2.6,-2.5923,-2.5673,-2.5308,-2.5308,-2.5308,-2.5308,-2.5308,-2.5308,-2.5308,0.0,0.0,0.0,0.0,0.0,0.0,0.0,0.0,0.0,0.0,-2.5308,-2.5308,-2.5308,0.0,0.0,0.0,0.0,0.0,-2.7895,-3.0443,-3.2822,-3.1646,-3.2428,-3.3371,-3.2949,0.0,0.0,0.0,0.0,0.0,0.0,0.0,-3.8437,-4.1543,0.0,-4.7695,-4.9375,-5.0933,-5.2051,0.0,0.0,-5.3893,-5.3448,-5.4044,-5.4275,-5.3828,-5.3799,-5.3414,-5.2538,-5.2115,-5.1481,-5.0587,-5.0183,-4.9586,-4.8702,-4.9086,-4.9298,-4.9298,-4.9298,-4.9086,-4.8692,-4.8507,-4.7766,-4.6587,0.0,-4.5726,-4.5118,-4.4745,-4.496,-4.5456,-4.4846,-4.5089,-4.5714,-4.5106,-4.511,-4.5358,0.0,0.0,0.0,0.0,0.0,0.0,0.0,0.0,0.0,0.0,0.0,0.0,0.0,0.0,0.0,0.0,0.0,0.0,0.0,0.0,-2.0865,-2.1466,-2.1889,-2.21,-2.21,-2.3605,-2.4678,-2.5308,-2.639,-2.6794,-2.6582,-2.5712,-2.5308,-2.5308,-2.5308,-2.5308,-2.5308,-2.5308,-2.5308,-2.5308,0.0,0.0,0.0,0.0,0.0,0.0,0.0,0.0,0.0,0.0,0.0,0.0,0.0,0.0,0.0,-2.5596,-2.6832,-2.8184,-2.8184,-3.0432,-3.257,-3.1766,0.0,0.0,0.0,0.0,0.0,0.0,0.0,0.0,0.0,-3.832,0.0,-4.4394,-4.7187,-4.9277,-5.0332,-5.1191,-5.199,-5.2763,-5.2823,-5.2995,-5.3456,-5.3432,-5.3268,-5.2974,-5.2906,-5.2529,-5.1664,-5.1423,-5.0741,-4.9433,-4.9202,-4.8682,-4.7836,-4.7817,-4.7913,-4.8105,-4.8105,-4.8009,-4.7817,-4.7817,-4.7375,-4.6577,-4.6271,-4.5937,-4.5568,-4.5044,-4.5358,-4.6058,-4.5178,-4.5155,-4.5558,-4.4941,-4.4726,-4.4726,0.0,0.0,0.0,0.0,0.0,0.0,0.0,0.0,0.0,0.0,0.0,0.0,0.0,0.0,0.0,0.0,0.0,0.0,0.0,0.0,-2.1446,-2.1504,-2.3047,-2.3918,-2.3918,-2.4774,-2.525,-2.5308,-2.6986,-2.739,-2.6582,-2.5712,-2.5308,-2.5308,-2.5308,-2.5308,-2.5308,-2.5308,-2.5308,-2.5308,-2.5308,0.0,0.0,0.0,0.0,0.0,0.0,0.0,0.0,0.0,0.0,0.0,0.0,0.0,-2.6505,-2.6505,-2.7698,-2.9011,-2.9011,-3.0383,-3.1617,-3.0795,-3.2619,0.0,-3.6659,-3.6387,0.0,-3.9961,0.0,0.0,0.0,-4.0996,-4.2754,-4.4687,-4.7187,-4.9473,-5.1094,0.0,-5.293,-5.3789,-5.3787,-5.3727,-5.3774,-5.3557,-5.3062,-5.2233,-5.2058,-5.1645,-5.0827,-5.001,-4.951,-4.9394,-4.8625,-4.7798,-4.6981,-4.6981,-4.7355,-4.8105,-4.8105,-4.7721,-4.6981,-4.6981,-4.6509,-4.5691,-4.5654,-4.5635,-4.5605,-4.5559,-4.5589,-4.5636,-4.5569,-4.537,-4.514,-4.5082,-4.5063,-4.5063,0.0,0.0,0.0,0.0,0.0,0.0,0.0,0.0,0.0,0.0,0.0,0.0,0.0,0.0,0.0,0.0,0.0,0.0,0.0,0.0,-2.1735,-2.2274,-2.3451,-2.4336,-2.4832,-2.5135,-2.5827,-2.6928,-2.7024,-2.6928,-2.6582,-2.5712,-2.5308,-2.5308,-2.5308,-2.5308,-2.5308,-2.5308,-2.5308,-2.5308,-2.5308,-2.5308,0.0,0.0,0.0,0.0,0.0,0.0,0.0,0.0,-2.5308,-2.5308,0.0,0.0,-2.5904,-2.6447,-2.7428,-2.8453,-2.8953,-3.0802,-3.2503,-3.2237,-3.3801,0.0,0.0,-3.7459,-3.8809,-4.0117,-4.0703,0.0,0.0,0.0,-4.5215,-4.6426,-4.8789,-5.0879,-5.2031,-5.2969,-5.3437,-5.3223,-5.3141,-5.2874,-5.2238,-5.2056,-5.1567,-5.0625,-5.0417,-4.999,-4.9125,-4.8779,-4.8355,-4.7855,-4.7528,-4.6951,-4.6105,-4.6086,-4.624,-4.6547,-4.6547,-4.6394,-4.6086,-4.6086,-4.5913,-4.5594,-4.5594,-4.5594,-4.5594,-4.5594,-4.5594,-4.5594,-4.5594,-4.5513,-4.541,-4.541,-4.541,-4.541,0.0,0.0,0.0,0.0,0.0,0.0,0.0,0.0,0.0,0.0,0.0,0.0,0.0,0.0,0.0,0.0,0.0,0.0,0.0,0.0,-2.2586,-2.3182,-2.4028,-2.487,-2.5692,-2.5442,-2.5885,-2.7082,-2.6486,-2.6192,-2.6173,-2.5577,-2.5308,-2.5308,-2.5308,-2.5308,-2.5308,-2.5308,-2.5308,-2.5308,-2.5308,-2.5308,0.0,0.0,0.0,0.0,0.0,0.0,0.0,0.0,-2.5308,0.0,0.0,0.0,0.0,0.0,-2.7601,-2.8464,-2.9315,-3.1091,-3.2717,-3.2779,0.0,0.0,-3.7007,-3.8979,-4.0996,-4.2109,-4.2812,-4.3223,-4.3223,0.0,0.0,0.0,-4.9297,-5.0996,-5.2129,-5.2793,-5.2969,-5.2363,-5.2285,-5.203,-5.1328,-5.0953,-5.0461,-4.9717,-4.9289,-4.8775,-4.8125,-4.7855,-4.7471,-4.6923,-4.6624,-4.6201,-4.5614,-4.5594,-4.5594,-4.5594,-4.5594,-4.5594,-4.5594,-4.5594,-4.5594,-4.5594,-4.5594,-4.5594,-4.5594,-4.5594,-4.5594,-4.5594,-4.5594,-4.5594,-4.5594,-4.5594,-4.5594,-4.5594,0.0,0.0,0.0,0.0,0.0,0.0,0.0,0.0,0.0,0.0,0.0,0.0,0.0,0.0,0.0,0.0,0.0,0.0,0.0,-2.3124,-2.411,-2.411,-2.487,-2.5692,-2.6563,-2.5731,-2.5308,-2.5308,-2.5308,-2.5308,-2.5308,-2.5308,-2.5308,-2.5308,-2.5308,-2.5308,-2.5308,-2.5308,-2.5308,-2.5308,-2.5308,-2.5308,-2.5308,0.0,0.0,0.0,0.0,0.0,0.0,0.0,-2.5308,-2.5308,0.0,0.0,0.0,0.0,-2.8472,-2.9294,-3.0235,-3.1131,-3.1829,-3.1916,0.0,0.0,-3.9432,-4.1167,-4.3398,-4.6875,-4.6211,-4.5019,-4.5019,-4.4316,0.0,-4.7187,-4.834,-4.9492,-5.1172,-5.1406,-5.1406,-5.1406,-5.1387,-5.1387,-5.1387,-5.0549,-4.9926,-4.9794,-4.8857,-4.823,-4.8095,-4.7317,-4.6885,-4.6885,-4.6047,-4.5594,-4.5594,-4.5594,-4.5594,-4.5594,-4.5594,-4.5594,-4.5594,-4.5594,-4.5594,-4.5594,-4.5594,-4.5594,-4.5594,-4.5594,-4.5594,-4.5594,-4.5594,-4.5594,-4.5594,-4.5594,-4.5594,-4.5594,0.0,0.0,0.0,0.0,0.0,0.0,0.0,0.0,0.0,0.0,0.0,0.0,0.0,0.0,0.0,0.0,0.0,0.0,0.0,-2.3124,-2.411,-2.411,-2.487,-2.5423,-2.5673,-2.5423,-2.5308,-2.5308,-2.5308,-2.5308,-2.5308,-2.5308,-2.5308,-2.5308,-2.5308,-2.5308,-2.5308,-2.5308,-2.5308,-2.5308,-2.5308,-2.5308,-2.5308,0.0,0.0,0.0,0.0,0.0,0.0,0.0,0.0,0.0,0.0,0.0,0.0,-2.764,-2.8472,-2.9286,-3.0191,-3.1577,-3.2947,-3.3579,0.0,0.0,0.0,-4.2031,0.0,0.0,-4.6758,-4.6641,-4.6035,-4.6719,0.0,-4.7578,-4.8848,-5.0195,-5.125,-5.1406,-5.1406,-5.1406,-5.0898,-5.0566,-5.0566,-4.9669,-4.8811,-4.8151,-4.7653,-4.7117,-4.6506,-4.6172,-4.599,-4.599,-4.5729,-4.5594,-4.5594,-4.5594,-4.5594,-4.5594,-4.5594,-4.5594,-4.5594,-4.5594,-4.5594,-4.5594,-4.5594,-4.5594,-4.5594,-4.5594,-4.5594,-4.5594,-4.5594,-4.5594,-4.5594,-4.5594,-4.5594,-4.5594,0.0,0.0,0.0,0.0,0.0,0.0,0.0,0.0,0.0,0.0,0.0,0.0,0.0,0.0,0.0,0.0,0.0,0.0,0.0,0.0,-2.4586,-2.4586,-2.5038,-2.5308,-2.5308,-2.5308,-2.5308,-2.5308,-2.5308,-2.5308,-2.5308,-2.5308,-2.5308,-2.5308,0.0,-2.5308,-2.5308,-2.5308,-2.55,-2.5827,-2.5827,-2.5827,-2.5827,0.0,0.0,0.0,0.0,0.0,0.0,0.0,0.0,0.0,0.0,0.0,0.0,-2.803,-2.8746,-2.9414,-3.0666,-3.2356,0.0,-3.5291,-3.7882,-4.0605,-4.248,0.0,0.0,0.0,-4.7441,-4.7129,-4.7305,-4.7344,0.0,-4.8027,-4.9004,-4.9961,-5.0801,-5.0918,-5.0781,-5.0449,-4.998,-4.9687,-4.9687,-4.8821,-4.8023,-4.744,-4.6933,-4.6394,-4.5829,-4.5711,-4.5668,-4.5594,-4.5594,-4.5594,-4.5594,-4.5594,-4.5594,-4.5594,-4.5594,-4.5594,-4.5594,-4.5594,-4.5594,-4.5594,-4.5594,-4.5594,-4.5594,-4.5594,-4.5594,-4.5594,-4.5594,-4.5594,-4.5594,-4.5594,-4.5594,-4.5594,0.0,0.0,0.0,0.0,0.0,0.0,0.0,0.0,0.0,0.0,-2.0308,0.0,0.0,0.0,0.0,0.0,0.0,0.0,0.0,0.0,-2.5308,-2.5308,-2.5308,-2.5308,-2.5308,-2.5308,-2.5308,-2.5308,-2.5308,-2.5308,-2.5308,0.0,-2.5308,-2.5308,0.0,-2.5308,-2.5308,-2.5308,-2.5769,-2.6486,-2.6563,-2.6544,-2.6486,-2.6563,0.0,0.0,0.0,0.0,0.0,0.0,0.0,0.0,-2.6346,-2.6697,-2.7121,-2.8646,-2.9207,-2.9695,-3.142,-3.3217,-3.5041,-3.6932,-4.0039,0.0,-4.373,-4.5781,-4.791,-4.9414,0.0,-4.6992,-4.8496,-4.6894,-4.6113,-4.8418,-4.8848,-4.918,-4.9961,-5.0078,-4.9785,-4.8984,-4.8828,-4.8789,-4.8789,-4.7988,-4.7438,-4.7313,-4.6542,-4.6008,-4.5821,-4.5809,-4.5733,-4.5603,-4.5594,-4.5594,-4.5594,-4.5594,-4.5594,-4.5594,-4.5594,-4.5594,-4.5594,-4.5594,-4.5594,-4.5594,-4.5594,-4.5594,-4.5594,-4.5594,-4.5594,-4.5594,-4.5594,-4.5594,-4.5594,-4.5594,-4.5594,-4.5594,0.0,0.0,0.0,0.0,0.0,0.0,0.0,0.0,0.0,0.0,0.0,0.0,0.0,0.0,0.0,0.0,0.0,0.0,0.0,0.0,-2.5308,-2.5308,-2.5308,-2.5308,-2.5308,-2.5308,-2.5308,-2.5308,-2.5308,-2.5308,0.0,0.0,0.0,-2.5308,0.0,-2.5308,-2.5308,-2.5308,-2.5404,-2.5635,-2.6327,-2.6192,-2.5654,-2.6346,-2.6058,0.0,0.0,0.0,0.0,0.0,0.0,0.0,-2.6544,-2.7505,-2.8626,-2.8992,-2.9631,-3.0453,-3.1534,-3.3184,0.0,-3.7621,-4.1364,-4.4668,-4.5547,-4.6172,-4.6484,-4.6172,-4.7305,-4.8242,-4.7949,-4.7988,-4.8027,-4.7891,-4.8457,-4.8965,-4.9141,-4.918,-4.9101,-4.8926,-4.8301,-4.7871,-4.7871,-4.709,-4.6562,-4.6541,-4.6267,-4.6033,-4.5886,-4.5832,-4.5733,-4.5603,-4.5594,-4.5594,-4.5594,-4.5594,-4.5594,-4.5594,-4.5594,-4.5594,-4.5594,-4.5594,-4.5594,-4.5594,-4.5594,-4.5594,-4.5594,-4.5594,-4.5594,-4.5594,-4.5594,-4.5594,-4.5594,-4.5594,-4.5594,-4.5594,0.0,0.0,0.0,0.0,0.0,0.0,0.0,0.0,0.0,0.0,0.0,0.0,0.0,0.0,0.0,0.0,0.0,0.0,0.0,0.0,0.0,0.0,-2.5308,-2.5308,-2.5308,-2.5308,-2.5308,-2.5308,-2.5308,0.0,0.0,0.0,0.0,-2.5308,0.0,-2.5308,-2.5308,-2.5308,-2.5788,-2.6582,-2.7044,-2.6948,-2.6601,-2.7044,-2.6428,-2.5308,-2.5308,0.0,0.0,0.0,0.0,0.0,0.0,0.0,-2.9184,-2.9602,-3.009,-3.0709,-3.1604,0.0,0.0,-4.0012,0.0,-4.5742,-4.6191,-4.6308,-4.6172,-4.5723,-4.6719,-4.7637,-4.7617,-4.7637,-4.7637,-4.7617,-4.7988,-4.8281,-4.8281,-4.8281,-4.8125,-4.7695,-4.7246,-4.6973,-4.6973,-4.6562,-4.6308,-4.6308,-4.5855,-4.5508,-4.5328,-4.4905,-4.4563,-4.441,-4.4393,-4.4393,-4.4393,-4.4393,-4.4393,-4.4412,-4.4778,-4.4979,-4.4998,-4.5421,-4.5594,-4.5594,-4.5594,-4.5594,-4.5594,-4.5594,-4.5594,-4.5594,-4.5594,-4.5594,-4.5594,-4.5594,-4.5594,-4.5594,0.0,0.0,0.0,0.0,0.0,0.0,0.0,0.0,0.0,0.0,0.0,0.0,0.0,0.0,0.0,0.0,0.0,0.0,0.0,0.0,0.0,0.0,-2.5308,-2.5308,-2.5308,-2.5308,-2.5308,-2.5308,0.0,0.0,0.0,0.0,0.0,-2.5308,0.0,-2.5308,-2.5308,-2.5308,-2.6135,-2.7467,-2.7621,-2.7582,-2.7467,-2.7621,-2.6774,-2.5519,-2.5519,-2.5615,-2.5865,-2.6582,0.0,0.0,0.0,0.0,-2.9467,-3.0192,-3.0456,-3.0699,-3.1624,0.0,-3.7503,-4.2284,-4.4785,0.0,-4.6269,-4.6308,-4.6308,-4.6308,-4.6308,-4.6523,-4.7246,-4.6797,-4.6543,-4.7266,-4.7383,-4.7383,-4.7383,-4.7383,-4.7109,-4.6387,-4.6308,-4.6308,-4.6308,-4.6308,-4.6308,-4.6308,-4.5488,-4.491,-4.4736,-4.3888,-4.3299,-4.3111,-4.3102,-4.3104,-4.3104,-4.3104,-4.3104,-4.3104,-4.3778,-4.4085,-4.4124,-4.4844,-4.5171,-4.519,-4.5325,-4.5383,-4.5383,-4.5537,-4.5594,-4.5594,-4.5594,-4.5594,-4.5594,-4.5594,-4.5594,-4.5575,0.0,0.0,0.0,0.0,0.0,0.0,0.0,0.0,0.0,0.0,0.0,0.0,0.0,0.0,0.0,0.0,0.0,0.0,0.0,0.0,0.0,0.0,-2.5308,-2.5308,-2.5308,-2.5308,-2.5308,0.0,0.0,0.0,0.0,0.0,0.0,-2.5308,0.0,-2.5308,-2.5308,-2.5308,-2.5423,-2.5712,-2.6467,-2.6327,-2.5731,-2.6486,-2.664,-2.6428,-2.6428,-2.6909,-2.7563,-2.7678,-2.8184,0.0,0.0,0.0,-3.025,-3.0365,-3.0456,-3.0681,-3.1564,0.0,-3.8851,0.0,-4.3887,-4.5371,0.0,0.0,-4.6308,0.0,-4.6308,-4.6348,-4.6445,-4.6387,-4.6348,-4.6445,-4.6465,-4.6465,-4.6465,-4.6465,-4.6426,-4.6308,-4.6308,-4.6308,-4.6308,-4.6308,-4.6308,-4.6308,-4.5488,-4.4937,-4.4792,-4.3906,-4.3321,-4.3202,-4.3135,-4.3104,-4.3104,-4.3104,-4.3104,-4.3104,-4.3201,-4.3258,-4.3258,-4.3374,-4.3431,-4.347,-4.4162,-4.447,-4.4528,-4.5287,-4.5594,-4.5594,-4.5594,-4.5594,-4.5594,-4.5594,-4.5594,-4.5498,0.0,0.0,0.0,0.0,0.0,0.0,0.0,0.0,0.0,0.0,0.0,0.0,0.0,0.0,0.0,0.0,0.0,0.0,0.0,0.0,0.0,0.0,0.0,-2.5308,-2.5308,-2.5308,-2.5308,0.0,0.0,0.0,0.0,-2.5308,-2.5558,0.0,0.0,0.0,0.0,-2.5519,-2.5577,-2.6058,-2.6447,-2.6365,-2.6115,-2.7005,-2.7024,-2.6659,-2.7159,-2.7563,-2.7972,-2.8415,-2.8819,-2.9184,-2.9679,0.0,0.0,0.0,-3.0411,-3.0858,-3.2735,-3.5071,-3.7722,0.0,-4.292,-4.4447,-4.5351,-4.5957,-4.6308,-4.6308,-4.6308,-4.6308,-4.6308,-4.6308,-4.6308,-4.6308,-4.6308,-4.6308,-4.6308,-4.6308,-4.6308,-4.6308,-4.6308,-4.6308,-4.6308,-4.6308,-4.6094,-4.5605,-4.4766,-4.3805,-4.2735,-4.1827,-4.1023,-4.0368,-4.0784,-4.101,-4.0969,-4.1412,-4.1893,-4.2374,-4.1873,-4.1893,-4.2354,-4.1873,-4.2181,-4.3124,-4.347,-4.3874,-4.4335,-4.4701,-4.5171,-4.5594,-4.5594,-4.5594,-4.5594,-4.5594,-4.5287,-4.4816,0.0,0.0,0.0,0.0,0.0,0.0,0.0,0.0,0.0,0.0,0.0,0.0,0.0,0.0,0.0,0.0,0.0,0.0,0.0,0.0,0.0,0.0,0.0,0.0,-2.5308,-2.5308,0.0,0.0,0.0,0.0,-2.5308,-2.5308,-2.5769,0.0,-2.5923,-2.5865,0.0,0.0,-2.5885,-2.6269,-2.6269,-2.6404,-2.6678,-2.7313,-2.7428,-2.7313,-2.7972,-2.8352,-2.8621,-2.9236,-2.9429,-2.9544,-3.0192,-3.0404,0.0,0.0,0.0,-3.122,0.0,0.0,-3.6469,-3.9548,-4.1456,-4.2873,0.0,0.0,-4.5635,0.0,-4.6063,-4.62,-4.62,-4.6248,-4.6308,-4.6308,-4.6308,-4.6308,-4.6308,-4.6308,-4.6308,-4.6308,-4.6308,-4.6308,-4.6308,-4.6094,-4.5703,-4.5058,-4.3984,-4.2694,-4.1132,-4.0182,-3.9226,-3.8185,-3.8748,-3.9136,-3.9304,-3.99,-4.0508,-4.1162,-4.0508,-4.0527,-4.1143,-4.0708,-4.1208,-4.245,-4.2662,-4.3104,-4.3682,-4.3893,-4.4489,-4.5267,-4.5267,-4.5402,-4.5594,-4.5594,-4.5056,-4.4259,0.0,0.0,0.0,0.0,0.0,0.0,0.0,0.0,0.0,0.0,0.0,0.0,0.0,0.0,0.0,-2.4196,0.0,0.0,0.0,0.0,0.0,0.0,0.0,0.0,0.0,0.0,0.0,0.0,0.0,0.0,-2.5308,-2.5308,-2.5769,-2.6601,-2.6544,-2.6096,-2.5423,0.0,0.0,0.0,0.0,-2.5865,-2.6601,-2.6659,-2.7621,-2.8973,-2.9011,-2.9563,-3.0288,-3.0327,-3.0327,-3.0346,-3.0385,-3.0404,-3.0404,0.0,0.0,0.0,0.0,-3.4361,0.0,-3.7968,-3.9121,-4.0234,0.0,0.0,-4.379,-4.4604,-4.5394,-4.5916,-4.5916,-4.612,-4.6308,-4.6308,-4.6308,-4.6308,-4.6308,-4.6308,-4.6308,-4.6308,-4.6308,-4.6308,-4.6308,-4.5547,-4.5058,-4.5,-4.3437,-4.209,-4.123,-4.0236,-3.927,-3.833,-3.821,-3.853,-3.9284,-3.9342,-3.94,-3.9438,-3.9381,-3.94,-3.9457,-4.0169,-4.0554,-4.0689,-4.1508,-4.1885,-4.1981,-4.2816,-4.3643,-4.4374,-4.4374,-4.4874,-4.5594,-4.5594,-4.5056,-4.4182,0.0,0.0,0.0,0.0,0.0,0.0,0.0,0.0,0.0,0.0,0.0,0.0,0.0,-2.4569,-2.5056,-2.5032,-2.5253,0.0,0.0,0.0,0.0,0.0,0.0,0.0,0.0,0.0,0.0,0.0,0.0,-2.5308,-2.5308,-2.5308,-2.5462,-2.5769,-2.5769,-2.6212,-2.6928,-2.6115,0.0,0.0,-2.6365,-2.6659,-2.7486,-2.8005,-2.8588,-2.9165,-2.9737,-3.0135,-3.0404,-3.0404,-3.0404,-3.0404,-3.0404,-3.0404,-3.0404,-3.0404,0.0,0.0,0.0,0.0,0.0,-3.6954,-3.8058,-3.9017,-4.0213,-4.1567,-4.2657,-4.2965,-4.4145,-4.5129,-4.5129,-4.5634,-4.6077,-4.617,-4.6174,-4.62,-4.6289,-4.6308,-4.6308,-4.6308,-4.6308,-4.6074,-4.5527,-4.5176,-4.4531,-4.3418,-4.2266,-4.1016,-3.9609,-3.8669,-3.7737,-3.6791,-3.7171,-3.7732,-3.8457,-3.8469,-3.8469,-3.8469,-3.8469,-3.8469,-3.8488,-3.9342,-3.9727,-3.9785,-4.0604,-4.1277,-4.1808,-4.2143,-4.2777,-4.3528,-4.3528,-4.4047,-4.4759,-4.4759,-4.4239,-4.3489,0.0,0.0,0.0,0.0,0.0,0.0,0.0,0.0,0.0,0.0,0.0,0.0,0.0,0.0,-2.5558,-2.5541,-2.5459,-2.5409,-2.5398,-2.5335,0.0,0.0,0.0,0.0,0.0,0.0,0.0,0.0,0.0,0.0,0.0,-2.5308,-2.5462,-2.5731,-2.5731,-2.639,0.0,0.0,-2.6832,-2.7857,-2.7274,-2.7544,-2.8396,-2.9217,-2.9717,-3.0083,-3.0929,-3.1231,-3.1231,-3.1231,-3.1058,-3.0846,-3.0846,-3.0846,-3.0846,0.0,0.0,0.0,-3.3333,0.0,0.0,0.0,-3.6878,-3.7531,-3.8423,-3.9704,-4.0888,-4.1451,-4.2717,-4.3813,-4.4104,-4.4608,-4.5191,-4.592,-4.5609,-4.5381,-4.5755,-4.5585,-4.543,-4.543,-4.543,-4.5195,-4.4629,-4.4297,-4.3652,-4.248,-4.1387,0.0,-3.8672,-3.7773,-3.685,-3.5858,-3.6572,-3.7156,-3.7565,-3.7565,-3.7565,-3.7565,-3.7565,-3.7565,-3.7584,-3.8469,-3.8854,-3.8911,-3.9746,-4.0585,-4.1354,-4.1354,-4.1873,-4.2662,-4.2662,-4.3162,-4.3893,-4.3893,-4.3374,-4.2662,0.0,0.0,0.0,0.0,0.0,0.0,0.0,0.0,0.0,0.0,0.0,0.0,0.0,0.0,0.0,-2.5605,-2.5471,-2.5394,-2.5402,-2.5339,0.0,0.0,0.0,0.0,0.0,0.0,0.0,0.0,0.0,0.0,0.0,0.0,-2.575,-2.6563,-2.6582,-2.6621,-2.6697,-2.7544,-2.7934,-2.8011,-2.7953,-2.8453,-2.93,-3.0135,-3.0981,-3.1833,-3.2622,-3.2891,-3.2891,-3.2891,-3.2372,-3.1737,-3.1737,-3.1756,0.0,0.0,0.0,0.0,0.0,0.0,0.0,0.0,-3.55,-3.5692,-3.6481,-3.7334,-3.8411,-4.0054,-4.1104,-4.1989,-4.2835,-4.2989,-4.3593,-4.5464,-4.4559,-4.3866,-4.4643,-4.4152,-4.3691,-4.3691,-4.3691,-4.3691,-4.3652,-4.2871,-4.2344,-4.2324,-4.0762,-3.9453,-3.8613,-3.7734,-3.6785,-3.5733,-3.6454,-3.6797,-3.6668,-3.668,-3.6654,-3.6654,-3.6654,-3.6654,-3.6692,-3.7565,-3.7969,-3.8007,-3.8911,-3.9746,-4.0477,-4.0496,-4.0989,-4.175,-4.175,-4.2297,-4.3066,-4.3066,-4.2527,-4.1788,0.0,0.0,0.0,0.0,0.0,0.0,0.0,0.0,0.0,0.0,0.0,0.0,0.0,0.0,-2.5683,-2.5662,-2.5552,-2.5463,-2.546,-2.5367,-2.5308,-2.5308,0.0,0.0,0.0,0.0,0.0,0.0,0.0,0.0,0.0,0.0,0.0,0.0,-2.6327,-2.6948,-2.7563,-2.7799,-2.8967,-3.0544,-2.928,-3.0012,-3.1814,-3.1468,-3.1852,-3.2602,-3.2814,-3.2891,-3.2891,-3.2891,-3.2756,-3.2564,-3.2564,0.0,0.0,0.0,0.0,0.0,-3.4379,0.0,0.0,0.0,0.0,0.0,-3.5788,-3.6462,-3.7199,-3.7661,-3.895,-4.0065,-4.0315,-4.0354,-4.092,-4.2649,-4.3228,-4.3575,-4.3882,-4.3802,-4.3691,-4.3691,-4.3691,-4.3457,-4.2812,-4.2012,-4.1269,0.0,-3.8984,-3.791,-3.7676,-3.6836,-3.6205,-3.5864,-3.5966,-3.5997,-3.5913,-3.5856,-3.5827,-3.5827,-3.5827,-3.5827,-3.5865,-3.6673,-3.7065,-3.7142,-3.8642,-3.9438,-3.9688,-4.0265,-4.065,-4.0854,-4.0854,-4.1393,-4.2162,-4.2162,-4.2,-4.1788,0.0,0.0,0.0,0.0,0.0,0.0,0.0,0.0,0.0,0.0,0.0,0.0,0.0,0.0,0.0,-2.5703,-2.5603,-2.5537,-2.5493,-2.5409,-2.5326,-2.5308,0.0,0.0,0.0,0.0,0.0,0.0,0.0,0.0,0.0,0.0,0.0,0.0,0.0,0.0,0.0,-2.8396,-2.9467,-3.1077,-3.0044,-3.0756,-3.2372,-3.2256,-3.2718,-3.3487,-3.3853,-3.3987,-3.3987,-3.3987,-3.3737,-3.3372,-3.3006,-3.3506,0.0,0.0,0.0,0.0,0.0,0.0,0.0,-3.55,0.0,0.0,-3.55,-3.5865,-3.6288,-3.6635,-3.7507,-3.8334,-3.8681,-3.8757,-3.9084,-4.0065,-4.0782,-4.152,-4.2311,-4.2197,-4.191,-4.1601,-4.1562,-4.1367,-4.0859,-4.0391,-3.9902,-3.9394,-3.8086,-3.7148,-3.6777,-3.6289,-3.5973,-3.5903,-3.5814,-3.5736,-3.5633,-3.5577,-3.5534,-3.5534,-3.5515,-3.55,-3.5519,-3.5981,-3.6192,-3.6269,-3.7623,-3.8411,-3.8823,-3.9699,-4.0224,-4.0496,-4.0496,-4.0804,-4.1258,-4.1258,-4.1258,-4.1258,0.0,0.0,0.0,0.0,0.0,0.0,0.0,0.0,0.0,0.0,0.0,0.0,0.0,0.0,0.0,0.0,-2.5636,-2.5566,-2.5496,-2.5441,0.0,0.0,0.0,0.0,0.0,0.0,0.0,0.0,0.0,0.0,0.0,0.0,0.0,0.0,0.0,0.0,0.0,-2.9261,-2.9775,-3.0404,-3.0519,-3.1173,-3.2199,-3.2814,-3.3583,-3.4449,-3.5212,-3.55,-3.55,-3.55,-3.4988,-3.4199,-3.343,-3.3718,-3.434,0.0,-3.4891,0.0,0.0,0.0,0.0,0.0,-3.55,0.0,-3.55,-3.55,-3.5692,-3.6423,-3.6577,-3.6788,-3.7584,-3.7796,-3.7853,-3.7853,-3.8041,-3.8722,-4.0289,-3.997,-3.9312,-3.8651,-3.8594,-3.8594,-3.8594,-3.8516,-3.8457,-3.8457,-3.7656,-3.6816,-3.6035,-3.5996,-3.5974,-3.591,-3.5905,-3.5841,-3.572,-3.5657,-3.5611,-3.5611,-3.5558,-3.5522,-3.5522,-3.5522,-3.5522,-3.5579,-3.6388,-3.7236,-3.8104,-3.9035,-3.9863,-4.0508,-4.053,-4.0526,-4.0526,-4.0526,-4.0526,-4.0526,0.0,0.0,0.0,0.0,0.0,0.0,0.0,0.0,0.0,0.0,0.0,0.0,0.0,0.0,0.0,0.0,-2.5636,-2.5566,-2.5496,-2.5441,0.0,0.0,0.0,0.0,0.0,0.0,0.0,0.0,0.0,0.0,0.0,0.0,0.0,0.0,0.0,0.0,0.0,0.0,-3.0891,-3.0462,-3.1154,-3.2769,-3.4692,-3.4141,-3.4487,-3.5269,-3.5442,-3.55,-3.55,-3.55,-3.5385,-3.5212,-3.5058,-3.5115,-3.525,-3.525,0.0,0.0,0.0,0.0,0.0,-3.55,-3.55,0.0,-3.55,-3.55,-3.5538,-3.5692,-3.5731,-3.5788,-3.5962,-3.6519,-3.6942,-3.6942,-3.7562,-3.8189,-3.8644,-3.8679,-3.8601,-3.8454,-3.8531,-3.8594,-3.8594,-3.7969,-3.7559,-3.7559,-3.6758,-3.6172,-3.6016,-3.5996,-3.5996,-3.5975,-3.5939,-3.5898,-3.5869,-3.5743,-3.5678,-3.5678,-3.5675,-3.5667,-3.5667,-3.5667,-3.5667,-3.5706,-3.6572,-3.7446,-3.8305,-3.9196,-4.0009,-4.0667,-4.0708,-4.0733,-4.0733,-4.0733,-4.0733,-4.0733,0.0,0.0,0.0,0.0,0.0,0.0,0.0,0.0,0.0,0.0,0.0,0.0,0.0,0.0,0.0,0.0,0.0,0.0,0.0,0.0,0.0,0.0,0.0,0.0,0.0,0.0,0.0,0.0,0.0,0.0,0.0,0.0,0.0,0.0,0.0,0.0,0.0,0.0,-3.0921,-3.1673,-3.2122,-3.3064,-3.4199,-3.4199,-3.4737,-3.55,-3.55,-3.55,-3.55,-3.55,-3.55,-3.55,-3.55,-3.55,-3.55,-3.55,-3.55,-3.55,0.0,0.0,0.0,-3.55,-3.55,0.0,0.0,-3.55,-3.55,-3.55,-3.55,-3.55,-3.55,-3.5827,-3.6231,-3.6635,-3.6731,-3.6927,-3.7392,-3.7569,-3.753,-3.7186,-3.7209,-3.7261,-3.7305,-3.6914,-3.6641,-3.6641,-3.625,-3.5996,-3.5996,-3.5996,-3.5996,-3.5996,-3.5973,-3.5948,-3.5948,-3.5851,-3.5802,-3.5802,-3.5726,-3.5707,-3.5707,-3.5707,-3.5707,-3.5726,-3.6151,-3.6848,-3.7688,-3.8198,-3.9104,-4.0249,-4.0642,-4.0797,-4.0797,-4.0797,-4.0797,-4.0797,-2.5703,0.0,0.0,0.0,0.0,0.0,0.0,0.0,0.0,0.0,0.0,0.0,0.0,0.0,0.0,0.0,0.0,0.0,0.0,0.0,0.0,0.0,0.0,-2.6145,0.0,0.0,0.0,0.0,0.0,0.0,0.0,0.0,0.0,0.0,0.0,0.0,0.0,0.0,-3.0945,-3.291,-3.3095,-3.3262,-3.3487,-3.418,-3.4891,-3.55,-3.55,-3.55,-3.55,-3.55,-3.55,-3.55,-3.55,-3.55,-3.55,-3.55,-3.55,-3.55,-3.55,-3.55,-3.55,-3.55,-3.55,-3.55,0.0,0.0,0.0,-3.55,-3.55,-3.55,-3.55,0.0,0.0,-3.618,0.0,0.0,0.0,-3.6453,0.0,-3.5914,-3.5871,-3.5916,-3.5974,-3.5996,-3.5996,-3.5996,-3.5996,-3.5996,-3.5996,-3.5996,-3.5996,-3.5996,-3.5996,-3.5996,-3.5996,-3.5947,-3.5914,-3.5914,-3.5817,-3.5752,-3.5752,-3.5752,-3.5752,-3.5752,-3.5752,-3.6256,-3.7077,-3.717,-3.812,-3.9559,-4.0134,-4.0578,-4.0854,-4.0698,-4.064,-4.0659,-2.5703,-2.5703,0.0,0.0,0.0,0.0,0.0,0.0,0.0,0.0,0.0,0.0,0.0,0.0,0.0,0.0,0.0,0.0,-2.8067,0.0,0.0,0.0,0.0,0.0,-2.7741,0.0,0.0,0.0,0.0,0.0,0.0,0.0,0.0,0.0,-2.9346,0.0,0.0,0.0,-3.2046,-3.2961,-3.3818,-3.4562,-3.5212,-3.5308,-3.5404,-3.55,-3.55,-3.55,-3.55,-3.55,-3.55,-3.55,-3.55,-3.55,-3.55,-3.55,-3.55,-3.55,-3.55,-3.55,-3.55,-3.55,-3.55,-3.55,-3.55,0.0,-3.55,-3.55,0.0,-3.55,-3.55,0.0,0.0,0.0,0.0,0.0,-3.468,-3.5155,-3.5643,-3.5636,-3.5794,-3.5903,-3.591,-3.5972,-3.5996,-3.5996,-3.5996,-3.5996,-3.5996,-3.5996,-3.5996,-3.5996,-3.5996,-3.5996,-3.5996,-3.5996,-3.5995,-3.5995,-3.5975,-3.5975,-3.5975,-3.5975,-3.5975,-3.5975,-3.5975,-3.6463,-3.7264,-3.7284,-3.7851,-3.873,-3.8827,-3.9783,-4.1053,-4.0291,-3.9998,-4.0115,-2.5703,-2.5703,0.0,0.0,0.0,0.0,0.0,0.0,0.0,0.0,0.0,0.0,-2.7051,-2.7773,-2.8496,-2.9004,-2.9043,-2.9043,-2.9,-2.8972,0.0,0.0,0.0,0.0,0.0,0.0,0.0,0.0,-2.8126,0.0,0.0,0.0,0.0,0.0,-2.9564,0.0,-3.124,0.0,-3.2546,-3.3705,-3.4216,-3.4849,-3.55,-3.55,-3.55,-3.55,-3.55,-3.55,-3.55,-3.55,-3.55,-3.55,-3.55,-3.55,-3.55,-3.55,-3.55,-3.55,-3.55,-3.5846,-3.6077,-3.5615,-3.5846,-3.6077,-3.5615,0.0,-3.55,-3.55,0.0,0.0,0.0,0.0,0.0,0.0,-3.5846,-3.5923,0.0,0.0,-3.5528,-3.559,0.0,0.0,-3.5896,-3.5502,-3.5469,-3.5957,-3.5527,-3.5469,-3.5976,-3.5996,-3.5996,-3.5996,-3.5996,-3.5996,-3.5996,-3.5996,-3.5996,-3.5996,-3.5996,-3.5996,-3.5996,-3.5996,-3.5996,-3.5996,-3.5996,-3.6211,-3.6543,-3.6543,-3.7051,-3.7793,-3.7285,-3.8164,-3.9707,-3.9844,-3.9902,-4.0019,-2.6055,0.0,0.0,0.0,0.0,0.0,0.0,0.0,0.0,0.0,0.0,0.0,-2.7773,-2.8691,-2.9531,-2.9922,-3.0176,-3.0215,-2.9961,-2.9918,-2.9566,0.0,-2.8758,-2.8949,-2.948,0.0,0.0,0.0,0.0,0.0,0.0,0.0,0.0,0.0,0.0,-3.0704,-3.2149,0.0,-3.3165,-3.4588,-3.452,-3.4899,-3.55,-3.55,-3.55,-3.55,-3.55,-3.55,-3.55,-3.55,-3.55,0.0,-3.55,-3.55,-3.55,-3.55,-3.55,-3.55,-3.55,0.0,0.0,0.0,0.0,0.0,0.0,0.0,0.0,-3.5885,-3.5827,0.0,0.0,0.0,0.0,0.0,0.0,-3.5615,0.0,-3.5712,0.0,0.0,0.0,0.0,0.0,-3.517,-3.4961,-3.5605,-3.5059,-3.498,-3.5605,-3.5879,-3.5996,-3.5996,-3.5996,-3.5996,-3.5996,-3.5996,-3.5996,-3.5996,-3.5996,-3.5996,-3.5996,-3.5996,-3.5996,-3.5996,-3.5996,-3.5996,-3.5996,-3.5996,-3.6367,-3.6875,-3.625,-3.6777,-3.8027,-3.9121,-3.9531,-3.9707,-2.6953,-2.6289,0.0,0.0,0.0,0.0,0.0,0.0,0.0,0.0,-2.9004,-2.9551,-2.9512,-3.1055,-3.1758,-3.0937,-3.1621,-3.1758,-3.0918,-3.0859,-3.0778,-3.0617,-3.0543,-3.0503,-3.046,-3.0367,0.0,0.0,0.0,0.0,0.0,0.0,0.0,0.0,-3.1426,-3.224,-3.2977,-3.3166,-3.4155,-3.5499,-3.4781,-3.4899,-3.55,-3.55,-3.55,-3.55,-3.55,0.0,0.0,-3.55,-3.55,0.0,0.0,0.0,0.0,0.0,0.0,0.0,0.0,0.0,0.0,-3.6462,0.0,0.0,0.0,0.0,-3.768,0.0,0.0,0.0,0.0,0.0,0.0,0.0,0.0,0.0,0.0,0.0,-3.55,-3.5507,-3.5626,0.0,0.0,-3.517,-3.4707,-3.4746,-3.4726,-3.4707,-3.4746,-3.5547,-3.5996,-3.5996,-3.5996,-3.5996,-3.5996,-3.5996,-3.5996,-3.5996,-3.5996,-3.5996,-3.5996,-3.5996,-3.5996,-3.5996,-3.5996,-3.5996,-3.5996,-3.5996,-3.6016,-3.6035,-3.6016,-3.6035,-3.6289,-3.8008,-3.8633,-3.8887,0.0,0.0,0.0,0.0,-2.748,-2.7969,0.0,-2.8789,-2.9375,-2.9941,-3.123,-3.2109,-3.2109,-3.3164,-3.3496,-3.2637,-3.2812,-3.2637,-3.1816,-3.1758,-3.1443,-3.0735,-3.068,-3.0624,-3.0565,-3.0548,0.0,0.0,0.0,0.0,0.0,0.0,0.0,0.0,0.0,-3.2372,0.0,0.0,0.0,0.0,0.0,-3.5405,-3.5574,0.0,-3.5547,-3.55,-3.55,-3.55,0.0,-3.55,-3.55,-3.5596,-3.6135,-3.5923,-3.5596,-3.6135,-3.6288,-3.6288,0.0,0.0,-3.793,-3.7642,0.0,0.0,0.0,0.0,0.0,0.0,0.0,0.0,0.0,0.0,0.0,0.0,0.0,0.0,0.0,-3.5308,-3.55,-3.55,-3.5582,-3.5469,0.0,0.0,-3.378,-3.3848,-3.3848,-3.4082,-3.4668,-3.5527,-3.5996,-3.5996,-3.5996,-3.5996,-3.5996,-3.5996,-3.5996,-3.5996,-3.5996,-3.5996,-3.5996,-3.5996,-3.5996,-3.5996,-3.5996,-3.5996,-3.5996,-3.5996,-3.5996,-3.5996,-3.5996,-3.6348,-3.6992,-3.8164,-3.8594,-3.8848,-2.8769,0.0,0.0,-2.8027,-2.8906,-2.9687,-2.9687,-3.0664,-3.1621,-3.2187,-3.3457,-3.4316,-3.4316,-3.4824,-3.4805,-3.3945,-3.3867,-3.3516,-3.2676,-3.2637,-3.2206,-3.1278,-3.1483,-3.1464,-3.1115,-3.1382,-3.1526,0.0,0.0,-3.1056,0.0,0.0,0.0,0.0,0.0,-3.2925,-3.3812,-3.471,-3.5359,0.0,0.0,-3.5694,0.0,0.0,-3.5556,-3.55,0.0,-3.55,-3.55,-3.55,-3.55,-3.5596,-3.6115,-3.5923,-3.5596,-3.6115,-3.6481,-3.6692,-3.6692,-3.7757,0.0,-3.8527,-3.8873,0.0,-3.895,0.0,-3.8815,0.0,0.0,0.0,0.0,0.0,0.0,0.0,0.0,0.0,0.0,-3.55,-3.55,-3.55,-3.5286,-3.4962,-3.4538,-3.3487,-3.299,-3.3379,-3.3398,-3.3789,-3.4648,-3.5527,-3.5996,-3.5996,-3.5996,-3.5996,-3.5996,-3.5996,-3.5996,-3.5996,-3.5996,-3.5996,-3.5996,-3.5996,-3.5996,-3.5996,-3.5996,-3.5996,-3.5996,-3.5996,-3.5996,-3.5996,-3.5996,-3.6523,-3.7402,-3.8281,-3.8984,-3.9687,-2.9766,-2.9785,-2.9785,-2.9785,-3.1133,-3.2207,-3.2246,-3.3652,-3.4726,-3.4824,-3.5586,-3.6152,-3.6191,-3.6191,-3.584,-3.4961,-3.4844,-3.4453,-3.3594,-3.3496,-3.3105,-3.2285,-3.294,-3.2926,-3.2086,-3.2822,-3.3201,-3.3201,0.0,0.0,0.0,0.0,0.0,0.0,-3.2986,0.0,-3.4654,-3.5602,-3.5951,-3.5901,-3.5901,-3.5785,-3.5611,-3.5611,-3.5556,-3.55,-3.55,-3.55,-3.55,-3.55,-3.55,-3.5519,-3.5558,-3.5558,-3.5577,-3.5615,-3.6192,-3.6827,-3.6827,-3.7469,-3.8315,-3.915,-3.9361,0.0,0.0,0.0,-4.0285,0.0,0.0,0.0,0.0,0.0,0.0,0.0,0.0,0.0,0.0,0.0,-3.55,-3.55,-3.4797,-3.4332,-3.4415,-3.3039,-3.2464,-3.3261,-3.3418,-3.3828,0.0,-3.5527,-3.5996,-3.5996,-3.5996,-3.5996,-3.5996,-3.5996,-3.5996,-3.5996,-3.5996,-3.5996,-3.5996,-3.5996,-3.5996,-3.5996,-3.5996,-3.5996,-3.5996,-3.5996,-3.5996,-3.5996,-3.5996,-3.6562,-3.7461,-3.834,-3.9746,-4.1191,-3.2187,-3.2422,-3.2422,-3.2422,-3.2305,-3.2402,-3.3008,-3.4004,-3.5176,-3.6465,-3.7383,-3.8184,-3.8828,-3.8906,-3.8555,-3.7676,-3.7012,-3.6269,-3.5391,-3.4726,-3.3984,-3.3125,-3.3261,-3.328,-3.3045,-3.3237,-3.3352,-3.3352,0.0,0.0,-3.2121,0.0,0.0,0.0,0.0,-3.3842,-3.4654,-3.5602,-3.5951,-3.5901,-3.5901,-3.5785,-3.5611,0.0,-3.5556,-3.55,-3.55,-3.55,-3.55,-3.55,-3.55,-3.5596,-3.6192,-3.6385,-3.6519,-3.718,-3.7969,-3.8623,-3.8623,-3.9227,-3.9919,-4.015,-4.0189,-4.0246,0.0,0.0,0.0,0.0,0.0,0.0,0.0,0.0,0.0,0.0,0.0,0.0,0.0,0.0,-3.55,-3.55,-3.4758,-3.3994,-3.3441,-3.3672,-3.3446,-3.2424,-3.3611,-3.4453,-3.4687,0.0,-3.5996,-3.5996,-3.5996,-3.5996,-3.5996,-3.5996,-3.5996,-3.5996,-3.5996,-3.5996,-3.5996,-3.5996,-3.5996,-3.5996,-3.5996,-3.5996,-3.5996,-3.5996,-3.5996,-3.5996,-3.5996,-3.6934,-3.8379,-3.9238,-4.0254,-4.1191,-3.3203,-3.3398,-3.3516,-3.3906,-3.3906,-3.4004,-3.4473,-3.5273,-3.6328,-3.7695,-3.8633,-3.9355,-3.9844,-3.9902,-3.9707,-3.9219,-3.8027,-3.709,-3.6601,-3.5742,-3.4883,-3.4004,-3.4336,-3.4355,-3.3984,-3.4336,-3.4531,-3.4531,0.0,0.0,-3.3281,0.0,0.0,0.0,0.0,-3.4647,-3.581,-3.6347,-3.6303,-3.588,-3.5838,-3.5732,0.0,-3.5574,-3.5528,-3.55,-3.55,-3.55,-3.55,-3.55,-3.55,-3.5577,-3.6038,-3.6423,-3.6788,-3.7296,-3.8315,-3.9304,-3.9304,-3.99,-4.0496,-4.0496,-4.0496,-4.0496,-4.0496,-4.0496,-4.0496,0.0,-3.9861,-3.9034,0.0,0.0,0.0,0.0,0.0,0.0,0.0,0.0,-3.55,-3.55,-3.5064,-3.4289,-3.3062,-3.3552,-3.3557,-3.2646,-3.3883,-3.4863,-3.5254,0.0,-3.5996,-3.5996,-3.6367,-3.6387,-3.5996,-3.6387,-3.6387,-3.5996,-3.5996,-3.5996,-3.5996,-3.5996,-3.5996,-3.5996,-3.5996,-3.5996,-3.5996,-3.5996,-3.5996,-3.6035,-3.6426,-3.7402,-3.8711,-3.957,-4.0449,-4.1191,-3.3555,-3.375,-3.4141,-3.4902,-3.5664,-3.625,-3.6484,-3.7148,-3.791,-3.8672,-3.9531,-4.0078,-4.0078,-4.0078,-4.0019,-3.9902,-3.8516,-3.7539,-3.7305,-3.6582,-3.5781,-3.4902,-3.5605,-3.5644,-3.4883,-3.5605,-3.5996,-3.5996,0.0,0.0,0.0,0.0,0.0,0.0,0.0,0.0,0.0,-3.7128,-3.6631,-3.5869,-3.5755,-3.5655,-3.5588,-3.5522,-3.55,-3.55,-3.55,-3.55,-3.55,-3.55,-3.55,-3.55,-3.55,-3.6135,-3.6865,-3.6865,-3.8104,-3.9457,-3.9457,-3.9977,-4.0496,-4.0496,-4.0496,-4.0496,-4.0496,-4.0496,-4.0496,-4.0496,-3.9938,-3.9169,-3.818,0.0,0.0,0.0,0.0,0.0,0.0,0.0,-3.55,-3.55,-3.55,0.0,-3.3064,-3.3175,-3.3329,-3.3275,-3.4152,-3.5078,0.0,0.0,-3.5996,-3.5996,-3.6738,-3.6816,-3.6172,-3.6816,-3.6816,-3.6172,-3.6055,-3.5996,-3.5996,-3.5996,-3.5996,-3.5996,-3.5996,-3.5996,-3.5996,-3.5996,-3.5996,-3.6094,-3.6953,-3.7832,-3.8711,-3.957,-4.0449,-4.1191,-3.4336,-3.5625,-3.668,-3.6816,-3.6973,-3.7559,-3.9004,-3.9355,-3.9492,-3.9648,-4.043,-4.0976,-4.0976,-4.0976,-4.0684,-3.9961,-3.9629,-3.8828,-3.7383,-3.7168,-3.668,-3.5801,-3.5918,-3.5937,-3.5781,-3.5918,-3.5996,-3.5996,0.0,0.0,0.0,0.0,0.0,0.0,0.0,0.0,-3.6211,-3.6179,0.0,-3.5726,-3.571,-3.5626,-3.5528,-3.5494,-3.55,-3.55,-3.55,-3.55,-3.55,-3.55,-3.55,-3.55,-3.55,-3.6538,-3.7777,-3.7777,-3.8969,-4.0285,-4.0285,-4.04,-4.0496,-4.0496,-4.0496,-4.0496,-4.0496,-4.0496,-4.0496,-4.0496,-4.04,-3.9823,-3.8277,0.0,0.0,0.0,0.0,0.0,0.0,0.0,0.0,-3.55,-3.55,-3.4827,-3.3064,-3.3638,-3.3837,-3.3172,-3.4057,-3.5001,0.0,0.0,-3.5996,0.0,-3.6152,-3.6504,0.0,0.0,-3.6504,-3.7051,-3.6348,-3.5996,-3.5996,-3.5996,-3.5996,-3.5996,-3.5996,-3.5996,-3.5996,-3.5996,-3.5996,-3.6094,-3.6953,-3.7832,-3.8711,-3.957,-4.0449,-4.1191,-3.6641,-3.7402,-3.8125,-3.8574,-3.9023,-3.9609,-4.0449,-4.0937,-4.0879,-4.0019,-4.0273,-4.0527,-4.0527,-4.0937,-4.1035,-4.0605,-4.0156,-3.9355,-3.8066,-3.7559,-3.6914,-3.6035,-3.5996,-3.5996,-3.5996,-3.5996,-3.5996,-3.5996,0.0,0.0,0.0,0.0,0.0,0.0,0.0,-3.5987,0.0,0.0,0.0,-3.5642,-3.5642,-3.5585,-3.55,-3.55,-3.55,-3.55,-3.55,-3.55,-3.55,-3.55,-3.55,-3.55,-3.55,-3.6346,-3.7334,-3.7334,-3.8546,-3.9881,-3.9881,-4.0189,-4.0496,-4.0496,-4.0496,-4.0496,-4.0496,-4.0496,-4.0496,-4.0496,-4.0496,-4.0131,-3.8892,-3.7276,0.0,0.0,0.0,0.0,0.0,0.0,-3.55,0.0,0.0,0.0,-3.3699,-3.3986,-3.3931,-3.3165,-3.4384,0.0,0.0,0.0,-3.5952,0.0,0.0,0.0,-3.6621,0.0,-3.666,-3.6621,-3.6191,-3.5996,-3.5996,-3.5996,-3.5996,-3.5996,-3.5996,-3.5996,-3.5996,-3.5996,-3.5996,-3.6035,-3.6465,-3.7422,-3.8652,-3.9062,-4.0059,-4.1191,-3.8887,-3.9023,-3.9414,-4.0273,-4.0996,-4.1523,-4.1699,-4.2109,-4.1855,-4.0371,-4.0176,-4.0176,-4.0176,-4.0781,-4.1133,-4.0937,-4.0469,-3.9648,-3.8418,-3.7851,-3.7109,-3.6055,-3.5996,-3.5996,-3.5996,-3.5996,-3.5996,0.0,0.0,0.0,0.0,0.0,0.0,0.0,0.0,0.0,0.0,0.0,-3.6293,-3.5611,-3.5611,-3.5556,-3.55,-3.55,-3.55,-3.55,-3.55,-3.55,-3.55,-3.55,-3.55,-3.55,-3.55,-3.6058,-3.6731,-3.6923,-3.8084,-3.9342,-3.9515,-4.0015,-4.0496,-4.0496,-4.0496,-4.0496,-4.0496,-4.0496,-4.0496,-4.0496,-4.0227,-3.9808,-3.93,-3.7689,0.0,0.0,0.0,0.0,0.0,0.0,-3.55,0.0,0.0,0.0,-3.4282,-3.4379,-3.4166,-3.3388,-3.4613,0.0,-3.5824,0.0,0.0,0.0,0.0,-3.6777,-3.6289,0.0,-3.6777,-3.6269,-3.6094,-3.5996,-3.5996,-3.5996,-3.5996,-3.5996,-3.5996,-3.5996,-3.5996,-3.5996,-3.5996,-3.6016,-3.6191,-3.7226,-3.8613,-3.8809,-3.9863,-4.1191,-3.9785,0.0,0.0,0.0,0.0,-4.2558,-4.3359,-4.2851,-4.207,-4.1191,-4.1074,-4.1074,-4.1074,-4.1152,-4.0879,-4.0098,-4.0664,-4.0039,-3.7578,-3.8086,-3.7734,-3.6074,-3.5996,-3.5996,-3.5996,-3.5996,-3.5996,0.0,0.0,-3.6777,0.0,0.0,0.0,0.0,0.0,0.0,0.0,-3.5788,-3.5745,-3.5611,-3.5611,-3.5556,-3.55,-3.55,-3.55,-3.55,-3.55,-3.55,-3.55,-3.55,-3.55,-3.55,-3.55,-3.6058,-3.6865,-3.7642,-3.8546,-3.9457,-4.0189,-4.0439,-4.0496,-4.0496,-4.0496,-4.0496,-4.0496,-4.0496,-4.0496,-4.0496,-3.9277,-3.8351,-3.8764,-3.7075,-3.5846,0.0,0.0,0.0,0.0,0.0,-3.55,-3.55,0.0,0.0,-3.4282,-3.4911,-3.5013,-3.4148,-3.4295,0.0,0.0,0.0,0.0,-3.5908,-3.6051,-3.6465,-3.7168,-3.6484,-3.6484,-3.7168,-3.6387,-3.5996,-3.5996,-3.5996,-3.5996,-3.5996,-3.5996,-3.5996,-3.5996,-3.5996,-3.5996,-3.6074,-3.6875,-3.7754,-3.8691,-3.9492,-4.0371,-4.1191,0.0,0.0,0.0,0.0,0.0,0.0,0.0,-4.373,-4.2871,-4.2031,-4.1504,-4.1191,-4.1191,-4.1191,-4.1055,-4.0703,-4.0996,-4.0527,-3.8965,-3.8691,-3.8066,-3.6836,-3.6289,-3.5996,-3.5996,-3.5996,-3.5996,0.0,0.0,0.0,0.0,0.0,0.0,0.0,0.0,-3.6025,-3.5644,-3.56,-3.5568,-3.5547,-3.5547,-3.5528,-3.55,-3.55,-3.55,-3.55,-3.55,-3.55,-3.55,-3.55,-3.55,-3.55,-3.55,-3.5712,-3.6058,-3.6404,-3.7469,-3.8584,-3.8911,-3.9727,-4.0496,-4.0496,-4.0496,-4.0496,-4.0496,-4.0496,-4.0496,-4.0496,-3.9846,-3.9378,-3.9755,-3.8544,-3.748,-3.7485,0.0,0.0,0.0,0.0,0.0,-3.55,0.0,-3.5365,-3.5007,-3.5288,-3.5365,-3.5007,-3.5008,0.0,0.0,0.0,0.0,-3.6546,0.0,-3.6239,-3.7115,-3.6344,-3.6101,-3.6452,-3.6151,-3.5996,-3.5996,-3.5996,-3.5996,-3.5996,-3.5996,-3.5996,-3.5996,-3.5996,-3.5996,-3.6094,-3.6953,-3.7832,-3.8711,-3.957,-4.0449,-4.1191,-4.4023,0.0,-4.4355,0.0,-4.5371,-4.5371,-4.5371,-4.4414,-4.3476,-4.2851,-4.1855,-4.1191,-4.1191,-4.1191,-4.1191,-4.1191,-4.1191,-4.0723,-3.959,-3.8945,-3.8105,-3.6973,-3.6328,0.0,-3.5996,-3.5975,-3.5973,-3.5973,-3.6808,0.0,0.0,0.0,0.0,0.0,-3.5888,-3.5822,-3.5574,-3.5515,-3.55,-3.55,-3.55,-3.55,-3.55,-3.55,-3.55,-3.55,-3.55,-3.55,-3.55,-3.55,-3.55,-3.55,-3.55,-3.55,-3.5558,-3.5788,-3.6692,-3.7738,-3.8238,-3.9246,-4.0208,-4.0439,-4.0496,-4.0496,-4.0496,-4.0496,-4.0481,-4.0397,-3.9893,-3.9667,-4.0268,-3.9176,-3.8144,-3.8024,0.0,0.0,0.0,-3.55,0.0,-3.55,-3.55,-3.55,-3.55,-3.55,-3.55,-3.55,0.0,0.0,0.0,0.0,0.0,0.0,0.0,0.0,-3.6614,-3.6109,-3.5841,-3.5841,-3.5924,-3.5973,-3.5973,-3.5996,-3.5975,-3.5907,-3.5952,-3.5951,-3.5907,-3.5907,-3.5907,-3.6024,-3.7155,-3.7975,-3.8659,-3.9752,-4.0552,-4.108,-4.4824,-4.498,-4.5254,-4.6133,-4.6289,-4.6289,-4.6289,-4.4805,-4.3691,-4.3691,-4.2226,-4.1191,-4.1191,-4.1191,-4.1191,-4.1191,-4.1191,-4.0469,-3.873,-3.8613,-3.7832,0.0,0.0,-3.5996,-3.5996,-3.5942,-3.5903,-3.5903,0.0,0.0,-3.5749,0.0,-3.6499,-3.563,-3.6498,-3.6377,-3.55,-3.55,-3.55,-3.55,-3.55,-3.55,-3.55,-3.55,-3.55,-3.55,-3.55,-3.55,-3.55,-3.55,-3.55,-3.55,-3.55,-3.55,-3.5654,-3.6442,-3.6692,-3.7084,-3.8815,-3.9304,-3.9515,-4.0304,-4.0496,-4.0496,-4.0496,-4.0496,-4.0414,-4.0158,-3.901,-3.8458,-3.9843,-3.8254,-3.7,-3.7853,0.0,0.0,0.0,-3.55,0.0,-3.55,-3.55,-3.55,-3.55,-3.55,-3.55,0.0,0.0,0.0,0.0,0.0,0.0,-3.5611,-3.5671,0.0,-3.5726,-3.5707,-3.5707,-3.5707,-3.5838,-3.5903,-3.5905,-3.5973,-3.588,-3.5713,-3.5843,-3.5834,-3.571,-3.571,-3.571,-3.5885,-3.7617,-3.8295,-3.8505,-4.0178,-4.0801,-4.0801,-4.582,-4.5898,-4.5976,-4.625,-4.5801,-4.5605,-4.6211,-4.4316,-4.3027,-4.3613,-4.2246,-4.1191,-4.1191,-4.1191,-4.1191,0.0,-4.1191,-4.0957,0.0,-3.9824,-3.8965,-3.7812,-3.7161,-3.6547,-3.594,-3.5817,-3.5764,-3.5764,0.0,0.0,0.0,-3.6793,-3.6429,-3.5547,-3.5823,-3.5772,-3.55,-3.55,-3.55,-3.55,-3.55,-3.55,-3.55,-3.55,-3.55,-3.55,-3.55,-3.55,-3.55,-3.55,-3.55,-3.55,-3.55,-3.55,-3.5558,-3.5808,-3.6269,-3.6827,-3.7373,-3.7969,-3.8623,-3.9477,-3.9688,-3.9823,-4.0362,-4.0496,-4.0473,-4.0389,-3.9395,-3.8739,-3.9427,-3.8284,-3.7215,-3.7132,-3.6885,0.0,-3.5615,0.0,-3.55,-3.55,-3.55,-3.55,-3.55,-3.55,-3.55,0.0,0.0,0.0,0.0,0.0,0.0,0.0,-3.5847,0.0,-3.6373,-3.5878,-3.5921,-3.6503,-3.6015,-3.5764,-3.5783,-3.6409,-3.6315,-3.5707,-3.5752,-3.5749,-3.5707,-3.5707,-3.605,-3.6708,-3.7859,-3.8291,-3.8505,-4.0178,-4.0451,-3.9988,-4.6308,-4.6308,-4.6308,-4.6308,-4.5859,-4.5664,-4.6211,-4.4648,-4.3457,-4.3672,-4.25,-4.1543,-4.123,-4.1191,0.0,-4.0742,-4.1016,-4.0781,-3.9805,-3.9844,-3.9355,-3.8164,-3.7817,-3.7248,-3.6411,-3.6223,0.0,-3.5667,-3.6172,-3.6425,-3.6372,-3.6372,-3.6061,-3.55,-3.55,-3.55,-3.55,-3.55,-3.55,-3.55,-3.55,-3.55,-3.55,-3.55,-3.55,-3.55,-3.55,-3.55,-3.55,-3.55,-3.55,-3.55,-3.55,-3.55,-3.55,-3.55,-3.5865,-3.6327,-3.6615,-3.7103,-3.7796,-3.8996,-3.9304,-3.9515,-4.0323,-4.0496,-4.0496,-4.0496,-3.9693,-3.9014,-3.9128,-3.8272,-3.7323,-3.6661,-3.655,-3.6305,-3.5608,-3.55,-3.55,-3.55,-3.55,-3.55,-3.55,-3.55,-3.55,0.0,0.0,0.0,0.0,0.0,-3.5731,-3.6231,-3.5769,-3.5731,-3.6231,-3.6093,-3.6296,-3.6818,-3.6673,-3.644,-3.6172,-3.6732,-3.6495,-3.5621,-3.565,-3.5642,-3.5621,-3.5621,-3.5946,-3.6523,-3.7361,-3.7696,-3.7875,-3.9233,-3.9427,-3.9,-4.6308,-4.6308,-4.6308,-4.6308,-4.625,-4.623,-4.6289,-4.5508,-4.4629,-4.3808,-4.2949,-4.209,-4.1289,-4.1191,-4.0859,-3.998,0.0,0.0,-3.7734,-3.9082,-3.9238,-3.7559,-3.8127,-3.8104,-3.731,-3.7102,-3.657,-3.5688,-3.556,-3.5494,-3.55,-3.55,-3.55,-3.55,-3.55,-3.55,-3.55,-3.55,-3.55,-3.55,-3.55,-3.55,-3.55,-3.55,-3.55,-3.55,-3.55,-3.55,-3.55,-3.55,-3.55,-3.55,-3.55,-3.55,-3.55,-3.55,-3.55,-3.5654,-3.6404,-3.6654,-3.7103,-3.8796,-3.9304,-3.9573,-4.0323,-4.0496,-4.0496,-4.0496,-3.9804,-3.9127,-3.8848,-3.8058,-3.7172,-3.6353,-3.6211,-3.6031,-3.5568,-3.5486,-3.5486,-3.55,0.0,0.0,-3.55,-3.55,-3.5519,0.0,0.0,0.0,0.0,0.0,-3.5577,-3.5577,-3.5635,-3.5673,-3.5673,-3.6423,-3.675,-3.6719,-3.7706,-3.7738,-3.6892,-3.7014,-3.6532,-3.5584,-3.5593,-3.555,-3.55,-3.55,-3.5538,-3.5654,-3.6404,-3.6692,-3.6808,-3.768,-3.7969,-3.7911,0.0,0.0,-4.6308,-4.6308,-4.5742,-4.5527,-4.6191,-4.5,-4.3926,-4.373,-4.2949,-4.209,-4.1289,-4.1191,-4.0859,-3.998,-4.0703,-4.0937,-4.0312,-4.0664,-4.041,-3.9336,-3.9341,-3.899,-3.8131,-3.8017,-3.7512,-3.6594,-3.5908,-3.5552,-3.55,-3.55,-3.55,-3.55,-3.55,-3.55,-3.55,-3.55,-3.55,-3.55,-3.55,-3.55,-3.55,-3.55,-3.55,-3.55,-3.55,-3.55,-3.55,-3.55,-3.55,-3.55,-3.55,-3.55,-3.55,-3.55,-3.55,-3.5538,-3.5731,-3.6231,-3.6962,-3.8046,-3.9265,-4.0265,-4.0458,-4.0496,-4.0496,-4.0496,-3.9342,-3.8224,-3.796,-3.6686,-3.5619,-3.5429,-3.5201,-3.5172,-3.5451,-3.532,-3.5273,0.0,-3.55,-3.55,-3.55,-3.55,-3.575,0.0,0.0,-3.6058,-3.7334,-3.6769,-3.6423,-3.6423,-3.7065,-3.7411,-3.7411,-3.7603,-3.7353,-3.6712,-3.8262,-3.8225,-3.6761,-3.7456,-3.7276,-3.6392,-3.5778,-3.5502,-3.55,-3.55,-3.5865,-3.6423,-3.6635,-3.6692,-3.6808,-3.768,-3.7584,-3.7,-4.6308,-4.6308,-4.6308,-4.6308,-4.5918,-4.5742,-4.623,-4.5156,-4.4141,-4.375,-4.2949,-4.209,-4.1289,-4.1191,-4.1016,-4.0547,-4.0937,-4.0859,-4.0059,-4.0762,-4.0801,-3.9941,-4.0141,-3.9887,-3.9009,-3.8539,-3.765,-3.6318,-3.5824,-3.5574,-3.5519,-3.5885,-3.6058,-3.6077,-3.6462,-3.6635,-3.6615,-3.6212,-3.6058,-3.6019,-3.5654,-3.55,-3.55,-3.55,-3.55,-3.55,-3.55,-3.55,-3.55,-3.55,-3.55,-3.55,-3.55,-3.575,-3.5981,-3.5615,-3.55,-3.55,-3.55,-3.6096,-3.7,-3.8277,-3.9554,-4.0496,-4.0496,-4.0496,-4.0496,-4.0496,-3.9785,-3.8839,-3.7789,-3.6757,-3.5809,-3.504,-3.4784,-3.4832,-3.5266,-3.5297,-3.5461,-3.5986,-3.6058,-3.6212,-3.6596,-3.6635,-3.6654,-3.6692,-3.6654,0.0,-3.7373,-3.7719,-3.7719,-3.7315,-3.7757,-3.8007,-3.8007,-3.8392,-3.8546,-3.845,-3.94,-3.895,-3.7315,-3.7777,-3.7315,-3.6135,-3.5692,-3.55,-3.55,-3.55,-3.575,-3.6154,-3.6154,-3.6154,-3.6212,-3.6673,-3.6558,-3.6154,-4.6308,-4.6308,-4.6308,-4.6308,-4.6308,-4.6308,-4.6308,-4.5664,-4.4883,-4.4004,-4.3144,-4.2285,-4.1465,-4.1269,-4.1191,-4.1191,-4.1191,-4.0566,-3.9082,-4.0371,-4.0879,-4.0137,-4.0691,-4.0677,-3.9938,-3.8998,-3.7759,-3.6207,-3.6047,-3.5941,-3.5885,-3.6577,-3.6904,-3.6923,-3.768,-3.8007,-3.795,-3.7065,-3.6692,-3.6635,-3.5827,-3.55,-3.55,-3.55,-3.55,-3.55,-3.55,-3.55,-3.55,-3.55,-3.55,-3.5519,-3.5635,-3.6154,-3.6596,-3.6038,-3.5788,-3.5654,-3.5538,-3.6173,-3.7315,-3.9053,-3.9996,-4.0496,-4.0496,-4.0496,-4.0496,-4.0496,-4.04,-3.9769,-3.7941,-3.7271,-3.6529,-3.5109,-3.4697,-3.4722,-3.5161,0.0,-3.5698,-3.6534,-3.6678,-3.7038,-3.7911,-3.8007,-3.7757,-3.7142,-3.7661,-3.7796,-3.7296,-3.8565,-3.9015,-3.8392,-3.8373,-3.8373,-3.8373,-3.8996,-3.965,-4.0323,-4.0323,-3.9573,-3.818,-3.8065,-3.7219,-3.5865,-3.5615,-3.55,-3.55,-3.55,-3.55,-3.55,-3.55,-3.55,-3.55,-3.55,-3.55,-3.55,-4.6308,-4.6308,-4.6308,-4.6308,-4.6308,-4.6308,-4.6308,-4.6191,-4.5781,-4.4902,-4.4043,-4.3164,-4.2305,-4.1601,-4.1191,-4.1191,-4.1191,-4.1094,-4.0801,-4.1055,-4.1133,-4.0996,-4.1113,-4.1112,-4.0976,-3.9994,-3.9313,-3.8984,-3.8127,-3.7674,-3.7603,-3.7738,-3.7796,-3.7796,-3.795,-3.8007,-3.795,-3.7065,-3.6692,-3.6635,-3.5827,-3.55,-3.55,-3.55,-3.55,-3.55,-3.55,-3.55,-3.55,-3.55,-3.55,-3.5615,-3.6308,-3.6596,-3.6808,-3.743,-3.7084,-3.6365,-3.5673,-3.6615,-3.82,-3.99,-4.0419,-4.0496,-4.0496,-4.0496,-4.0496,-4.0496,-3.9958,-3.9088,-3.7827,-3.6786,-3.6017,-3.5759,-3.4726,-3.4377,-3.5598,0.0,-3.5201,-3.6245,-3.6558,-3.7038,-3.7911,-3.8007,-3.8257,-3.8854,-3.8334,-3.8565,-3.9842,-3.9515,-3.9554,-4.0092,-4.0112,-4.0112,-4.0112,-3.9573,-3.9361,-3.9496,-3.9496,-3.9361,-3.9073,-3.8334,-3.7853,-3.7526,-3.6115,-3.55,-3.55,-3.55,-3.55,-3.55,-3.55,-3.55,-3.55,-3.55,-3.55,-3.55,-4.6308,-4.6308,-4.6308,-4.6308,-4.6308,-4.6308,-4.6308,-4.5898,-4.5469,-4.5058,-4.3828,-4.3027,-4.3086,-4.2344,-4.1855,-4.1855,-4.2285,-4.2344,-4.1875,-4.1445,-4.1191,-4.1191,-4.1191,-4.0956,-4.0398,-3.9932,-3.9405,-3.8787,-3.8329,-3.8079,-3.8007,-3.8469,-3.87,-3.8719,-3.9142,-3.9104,-3.8661,-3.8277,-3.7565,-3.6673,-3.6308,-3.5885,-3.55,-3.55,-3.55,-3.55,-3.55,-3.55,-3.55,-3.55,-3.5788,-3.6212,-3.6577,-3.7334,-3.8084,-3.8027,-3.7719,-3.7315,-3.6949,-3.7757,-3.8988,-4.0208,-4.0496,-4.0496,-4.0496,-4.0496,-4.0496,-4.0496,-4.0208,-3.9607,-3.8449,-3.7346,-3.654,-3.6365,-3.5039,-3.4563,-3.6108,-3.5885,-3.6074,-3.7489,-3.7915,-3.843,-3.9265,-3.9361,-3.9342,-3.9304,-3.9342,-3.9496,-3.9842,-3.9919,-4.0112,-4.0496,-4.0496,-4.0496,-4.0496,-4.0131,-3.9958,-3.9958,-3.9958,-3.9727,-3.9284,-3.8873,-3.818,-3.7257,-3.6481,-3.5904,-3.55,-3.55,-3.55,-3.55,-3.55,-3.55,-3.55,-3.55,-3.55,-3.55,-4.6308,-4.6308,-4.6308,-4.6308,-4.6308,-4.6308,-4.6308,-4.5723,-4.5293,-4.5293,-4.3965,-4.3262,-4.3926,-4.3223,-4.2695,-4.2695,-4.3301,-4.3418,-4.2754,-4.2129,-4.1777,-4.1777,-4.1562,-4.0984,-3.9979,-3.9942,-3.9536,-3.8698,-3.8663,-3.8621,-3.8604,-3.9265,-3.9573,-3.9611,-4.0227,-4.0169,-3.9573,-3.9381,-3.8411,-3.6981,-3.6769,-3.6212,-3.55,-3.55,-3.55,-3.55,-3.55,-3.55,-3.5538,-3.5712,-3.6192,-3.6769,-3.718,-3.8219,-3.9207,-3.8719,-3.8584,-3.8546,-3.8354,-3.8796,-3.9496,-4.0304,-4.0496,-4.0496,-4.0496,-4.0669,-4.0746,-4.0535,-4.0669,-4.0422,-3.9143,-3.8126,-3.7397,-3.7131,0.0,-3.5212,-3.6684,-3.6772,-3.7176,-3.8546,-3.9151,-3.9741,-4.0431,-4.0496,-4.0323,-3.9912,-4.045,-4.0527,-3.9912,-4.0469,-4.0708,-4.0516,-4.0496,-4.0496,-4.0496,-4.0496,-4.0496,-4.0496,-4.0496,-4.0189,-3.9573,-3.94,-3.845,-3.7,-3.7,-3.6423,-3.5519,-3.5692,-3.5673,-3.55,-3.55,-3.55,-3.55,-3.55,-3.55,-3.55,-4.6308,-4.6308,-4.6308,-4.6308,-4.6308,-4.6308,-4.6308,-4.625,-4.6191,-4.6191,-4.5391,-4.4824,-4.4902,-4.4121,-4.3594,-4.3594,-4.3652,-4.3672,-4.3613,-4.3555,-4.3516,-4.3516,-4.2682,-4.1757,-4.0735,-4.0665,-4.0585,-4.0504,-4.0388,-4.0319,-4.0323,-4.0381,-4.0419,-4.0419,-4.0477,-4.0477,-4.0362,-3.9631,-3.8757,-3.7834,-3.7026,-3.6212,-3.55,-3.55,-3.55,-3.55,-3.55,-3.55,-3.5615,-3.6365,-3.6654,-3.6981,-3.8604,-3.9207,-3.9438,-4.0131,-4.0323,-4.015,-3.9419,-3.9246,-3.9496,-4.0304,-4.0496,-4.0496,-4.0496,-4.1123,-4.1489,-4.0669,-4.1143,-4.1192,-3.9569,-3.8728,-3.8278,-3.8203,0.0,0.0,-3.7334,-3.7645,-3.7941,-3.8384,-3.9342,-4.009,-4.0454,-4.0496,-4.0816,-4.1566,-4.1673,-4.1673,-4.1615,-4.1673,-4.1335,-4.0535,-4.0496,-4.0496,-4.0496,-4.0496,-4.0496,-4.0496,-4.0496,-4.0477,-4.04,-3.965,-3.8796,-3.7892,-3.7892,-3.6988,-3.5558,-3.6308,-3.6173,-3.55,-3.55,-3.55,-3.55,-3.55,-3.55,-3.55,-4.6308,-4.6308,-4.6308,-4.6308,-4.6308,-4.6308,-4.6308,-4.6308,-4.6308,-4.6308,-4.5547,-4.5215,-4.5742,-4.5039,-4.4512,-4.4512,-4.5,-4.5078,-4.4531,-4.4512,-4.4256,-4.3656,-4.2783,-4.2292,-4.2294,-4.1773,-4.148,-4.1384,-4.1336,-4.1027,-4.0496,-4.0496,-4.0496,-4.0496,-4.0496,-4.0227,-3.9765,-3.9958,-3.9238,-3.8027,-3.8238,-3.7488,-3.6308,-3.6834,-3.6404,-3.5577,-3.6077,-3.5923,-3.5615,-3.6423,-3.7065,-3.7719,-3.8911,-3.965,-4.0208,-4.1066,-4.1316,-4.1354,-4.1585,-4.0881,-4.0112,-4.0419,-4.0912,-4.1316,-4.1316,-4.1989,-4.2508,-4.2181,-4.2374,-4.229,-4.1232,-4.0449,-3.997,-4.0025,0.0,-3.8248,-3.9551,-3.9519,-3.9647,-4.0317,-4.1067,-4.1608,-4.1734,-4.1963,-4.2258,-4.2585,-4.2604,-4.2374,-4.1827,-4.1296,-4.0835,-4.0516,-4.0496,-4.0496,-4.0496,-4.0496,-4.0496,-4.0496,-4.0496,-4.0496,-4.0496,-4.0189,-3.9592,-3.8815,-3.8815,-3.7834,-3.6308,-3.7161,-3.6712,-3.5558,-3.6058,-3.5942,-3.55,-3.55,-3.55,-3.55,-4.6308,-4.6308,-4.6308,-4.6308,-4.6308,-4.6308,-4.6308,-4.6308,-4.6308,-4.6308,-4.5781,-4.5644,-4.623,-4.5762,-4.541,-4.541,-4.5957,-4.6055,-4.5449,-4.5369,-4.4807,-4.3599,-4.3185,-4.3048,-4.3174,-4.2626,-4.2158,-4.1788,-4.1788,-4.1354,-4.0496,-4.0496,-4.0496,-4.0496,-4.0496,-4.0189,-3.9708,-4.0265,-3.9688,-3.845,-3.9073,-3.8411,-3.718,-3.7777,-3.7296,-3.6365,-3.6904,-3.675,-3.6404,-3.7238,-3.8084,-3.8931,-3.9815,-4.0642,-4.1431,-4.2027,-4.222,-4.2335,-4.2931,-4.222,-4.1324,-4.1324,-4.1777,-4.222,-4.222,-4.2776,-4.3242,-4.2973,-4.3043,-4.2954,-4.2207,-4.155,-4.1143,-4.1249,-4.0236,-3.9829,-4.093,-4.1003,-4.11,-4.1551,-4.219,-4.258,-4.251,-4.2757,-4.3066,-4.3442,-4.347,-4.322,-4.2624,-4.1527,-4.0912,-4.0912,-4.065,-4.0496,-4.0496,-4.0496,-4.0496,-4.0496,-4.0496,-4.0496,-4.0496,-4.0496,-4.0054,-3.9304,-3.9573,-3.87,-3.718,-3.8046,-3.7411,-3.5962,-3.6788,-3.6442,-3.5538,-3.5788,-3.5712,-3.55,-4.6308,-4.6308,-4.6308,-4.6308,-4.6308,-4.6308,-4.6308,-4.6308,-4.6308,-4.6308,-4.6308,-4.6308,-4.6308,-4.6308,-4.6308,-4.6308,-4.6308,-4.6308,-4.6308,-4.6174,-4.5298,-4.351,-4.4104,-4.407,-4.3151,-4.3104,-4.2701,-4.1808,-4.1808,-4.1354,-4.0516,-4.0496,-4.0496,-4.0496,-4.0496,-4.0496,-4.0496,-4.0496,-4.0035,-3.9304,-3.9304,-3.8796,-3.8007,-3.8027,-3.8007,-3.8007,-3.8007,-3.8007,-3.8123,-3.9015,-3.9823,-4.065,-4.1527,-4.2412,-4.3104,-4.3104,-4.3104,-4.3104,-4.3124,-4.3124,-4.3124,-4.3104,-4.3104,-4.3104,-4.3104,-4.3465,-4.355,-4.2692,-4.2955,-4.3032,-4.2178,-4.1804,-4.1622,-4.1622,-4.1329,-4.1113,-4.1113,-4.1809,-4.214,-4.1671,-4.2333,-4.273,-4.2533,-4.2521,-4.3024,-4.4222,-4.4297,-4.4297,-4.4297,-4.272,-4.1808,-4.1788,-4.095,-4.0516,-4.0496,-4.0496,-4.0496,-4.0496,-4.0496,-4.0496,-4.0496,-4.0496,-4.0054,-3.9361,-4.015,-3.9554,-3.8084,-3.8957,-3.8277,-3.6788,-3.768,-3.6988,-3.5615,-3.6423,-3.6192,-3.5519,-4.6308,-4.6308,-4.6308,-4.6308,-4.6308,-4.6308,-4.6308,-4.6308,-4.6308,-4.6308,-4.6308,-4.6268,-4.6173,-4.6247,-4.6268,-4.6173,-4.6247,-4.6268,-4.6171,-4.5998,-4.565,-4.5115,-4.4704,-4.4612,-4.4844,-4.4239,-4.3816,-4.3547,-4.2989,-4.2277,-4.1393,-4.0785,-4.0496,-4.0496,-4.0496,-4.0496,-4.0496,-4.0496,-4.0362,-4.015,-4.015,-3.965,-3.8969,-3.9534,-3.9008,-3.8084,-3.8681,-3.8527,-3.8123,-3.9015,-3.9823,-4.0766,-4.2239,-4.2893,-4.3201,-4.3778,-4.3932,-4.4085,-4.4682,-4.4863,-4.4566,-4.3393,-4.3528,-4.3932,-4.3932,-4.4336,-4.4628,-4.4391,-4.4256,-4.4049,-4.3498,-4.3349,-4.3203,-4.2959,-4.2848,-4.2782,-4.2782,-4.2983,-4.309,-4.2949,-4.3348,-4.3625,-4.3572,-4.4016,-4.448,-4.4831,-4.4507,-4.4297,-4.4297,-4.3297,-4.2431,-4.1808,-4.1546,-4.1123,-4.0516,-4.0496,-4.0496,-4.0496,-4.0496,-4.0496,-4.0496,-4.0496,-4.0362,-4.0169,-4.04,-3.99,-3.8977,-3.9804,-3.9142,-3.77,-3.8565,-3.8238,-3.7276,-3.7526,-3.7469,-3.7257,-4.6145,-4.6145,-4.617,-4.6202,-4.6223,-4.6246,-4.6289,-4.6248,-4.6223,-4.6223,-4.6174,-4.6113,-4.6033,-4.6144,-4.6173,-4.6036,-4.6106,-4.6101,-4.5979,-4.5867,-4.5789,-4.5711,-4.5228,-4.5129,-4.5594,-4.5075,-4.4643,-4.4297,-4.3816,-4.297,-4.1788,-4.1258,-4.0843,-4.0496,-4.0496,-4.0689,-4.0989,-4.065,-4.0708,-4.0969,-4.065,-4.0208,-3.9823,-4.0304,-4.0085,-3.9565,-4.0104,-4.0162,-4.0104,-4.0623,-4.1343,-4.2247,-4.3643,-4.4085,-4.4182,-4.4662,-4.4797,-4.494,-4.546,-4.5504,-4.516,-4.4135,-4.4269,-4.4614,-4.4614,-4.4641,-4.4663,-4.4663,-4.4387,-4.4095,-4.3852,-4.3804,-4.3742,-4.3531,-4.3515,-4.3515,-4.3515,-4.3515,-4.3515,-4.3515,-4.3695,-4.3849,-4.3986,-4.4395,-4.4726,-4.4896,-4.459,-4.4488,-4.4605,-4.3828,-4.3193,-4.2788,-4.2489,-4.2066,-4.1535,-4.1535,-4.1189,-4.0496,-4.0854,-4.0835,-4.0496,-4.0496,-4.0496,-4.0496,-4.0496,-4.0227,-3.9804,-4.0304,-3.9727,-3.8604,-3.9438,-3.9046,-3.8046,-3.8392,-3.8296,-3.8007,-4.5899,-4.5899,-4.5932,-4.605,-4.6082,-4.6119,-4.6247,-4.615,-4.6082,-4.6082,-4.5978,-4.5894,-4.5885,-4.6018,-4.6033,-4.5894,-4.5885,-4.5871,-4.579,-4.5783,-4.5737,-4.5603,-4.5594,-4.5594,-4.5594,-4.5594,-4.521,-4.4412,-4.4335,-4.3489,-4.1904,-4.1846,-4.1373,-4.0631,-4.0631,-4.1104,-4.1865,-4.0989,-4.1123,-4.1835,-4.0969,-4.0631,-4.0631,-4.0631,-4.1104,-4.1788,-4.1788,-4.2354,-4.3104,-4.3181,-4.3682,-4.4451,-4.5325,-4.5594,-4.5594,-4.5594,-4.5594,-4.5594,-4.5594,-4.5352,-4.5096,-4.5096,-4.5052,-4.5,-4.5052,-4.4521,-4.4001,-4.4001,-4.3742,-4.3515,-4.3515,-4.3515,-4.3515,-4.3515,-4.3515,-4.3515,-4.3515,-4.3515,-4.3515,-4.3515,-4.3515,-4.3612,-4.3924,-4.3986,-4.4161,-4.4567,-4.4593,-4.472,-4.5041,-4.4298,-4.3987,-4.4208,-4.3506,-4.3075,-4.2998,-4.312,-4.2338,-4.0746,-4.1546,-4.1508,-4.0727,-4.0727,-4.0689,-4.0631,-4.0631,-4.0573,-4.0496,-4.0496,-4.0073,-3.9477,-4.0208,-3.9573,-3.8315,-3.9111,-3.8892,-3.8219,-4.5899,-4.5899,-4.5907,-4.5932,-4.5936,-4.5944,-4.5985,-4.5971,-4.5936,-4.5936,-4.5916,-4.5881,-4.5826,-4.5886,-4.5909,-4.5832,-4.5814,-4.5821,-4.5803,-4.57,-4.5627,-4.5594,-4.5594,-4.5594,-4.5594,-4.5594,-4.5518,-4.5325,-4.4624,-4.3797,-4.2797,-4.2124,-4.1692,-4.1527,-4.1527,-4.2008,-4.2758,-4.1893,-4.2027,-4.2739,-4.1873,-4.1527,-4.1527,-4.1527,-4.1643,-4.1788,-4.1788,-4.2354,-4.3201,-4.3835,-4.4162,-4.4451,-4.5325,-4.5594,-4.5594,-4.5594,-4.5594,-4.5594,-4.5594,-4.5352,-4.5096,-4.5096,-4.4663,-4.4332,-4.4631,-4.4346,-4.4001,-4.4001,-4.3742,-4.3515,-4.3515,-4.3515,-4.3515,-4.3515,-4.3515,-4.3515,-4.3515,-4.3515,-4.3515,-4.3515,-4.3515,-4.3531,-4.3614,-4.3852,-4.4161,-4.4567,-4.4593,-4.4618,-4.4695,-4.4525,-4.4152,-4.3549,-4.336,-4.2931,-4.2245,-4.3185,-4.3273,-4.2547,-4.2739,-4.272,-4.2547,-4.2547,-4.2162,-4.1527,-4.1527,-4.1123,-4.0496,-4.0496,-4.04,-4.0265,-4.0439,-4.0285,-3.9977,-4.0169,-4.0131,-3.9881,-4.5751,-4.5751,-4.5776,-4.5834,-4.5845,-4.5871,-4.589,-4.5872,-4.5845,-4.5845,-4.5801,-4.5737,-4.5715,-4.579,-4.5836,-4.5809,-4.574,-4.5708,-4.5708,-4.5643,-4.5594,-4.5594,-4.5594,-4.5594,-4.5594,-4.5594,-4.5594,-4.5594,-4.5152,-4.4489,-4.3662,-4.322,-4.2797,-4.2431,-4.2431,-4.2893,-4.3624,-4.2777,-4.2893,-4.3605,-4.2758,-4.2431,-4.2431,-4.2431,-4.2662,-4.2989,-4.2989,-4.3547,-4.4355,-4.4778,-4.4921,-4.4998,-4.546,-4.5594,-4.5594,-4.5594,-4.5594,-4.5568,-4.541,-4.5118,-4.4825,-4.4625,-4.418,-4.3868,-4.4237,-4.4035,-4.3756,-4.3756,-4.3612,-4.3515,-4.3515,-4.3515,-4.3515,-4.3515,-4.3515,-4.3515,-4.3515,-4.3515,-4.3515,-4.3515,-4.3515,-4.3515,-4.3515,-4.3662,-4.3852,-4.4065,-4.408,-4.4154,-4.4308,-4.4304,-4.4199,-4.3925,-4.3906,-4.3699,-4.3234,-4.3874,-4.4057,-4.3821,-4.373,-4.347,-4.3104,-4.3104,-4.2854,-4.2431,-4.2431,-4.1931,-4.1123,-4.1123,-4.0798,-4.0313,-4.0313,-4.0212,-4.0063,-4.0063,-4.0063,-4.0024,-4.5594,-4.5594,-4.5635,-4.5747,-4.5775,-4.5783,-4.5836,-4.5808,-4.5775,-4.5775,-4.5673,-4.5594,-4.5594,-4.57,-4.5775,-4.5775,-4.5665,-4.5594,-4.5594,-4.5594,-4.5594,-4.5594,-4.5594,-4.5594,-4.5594,-4.5594,-4.5594,-4.5594,-4.5594,-4.5152,-4.4297,-4.4297,-4.3932,-4.3316,-4.3316,-4.3758,-4.447,-4.3643,-4.3778,-4.4451,-4.3624,-4.3316,-4.3316,-4.3316,-4.372,-4.4297,-4.4297,-4.4855,-4.5594,-4.5594,-4.5594,-4.5594,-4.5594,-4.5594,-4.5594,-4.5594,-4.5559,-4.5448,-4.518,-4.4812,-4.4419,-4.4073,-4.3758,-4.3563,-4.3849,-4.3693,-4.3515,-4.3515,-4.3515,-4.3515,-4.3515,-4.3515,-4.3515,-4.3515,-4.3515,-4.3515,-4.3515,-4.3515,-4.3515,-4.3515,-4.3515,-4.3515,-4.3515,-4.3515,-4.3515,-4.3515,-4.3515,-4.3612,-4.3912,-4.3909,-4.4061,-4.4406,-4.4406,-4.4406,-4.4406,-4.4474,-4.4501,-4.4514,-4.4404,-4.4,-4.3367,-4.3367,-4.329,-4.3137,-4.3201,-4.2738,-4.1903,-4.1777,-4.1166,-4.0291,-4.009,-3.984,-3.9599,-3.9599,-3.9599,-3.9634,-4.5594,-4.5594,-4.5603,-4.5618,-4.5637,-4.5627,-4.564,-4.5635,-4.5637,-4.5637,-4.5612,-4.5594,-4.5594,-4.562,-4.5637,-4.5637,-4.5612,-4.5594,-4.5594,-4.5594,-4.5594,-4.5594,-4.5594,-4.5594,-4.5594,-4.5594,-4.5594,-4.5594,-4.5594,-4.5152,-4.4297,-4.4297,-4.4239,-4.4143,-4.4143,-4.4624,-4.5364,-4.4489,-4.4643,-4.5344,-4.447,-4.4143,-4.4143,-4.4143,-4.4201,-4.4297,-4.4297,-4.4855,-4.5594,-4.5594,-4.5594,-4.5594,-4.5594,-4.5594,-4.5594,-4.5594,-4.5381,-4.5169,-4.5107,-4.46,-4.4058,-4.3998,-4.3758,-4.3513,-4.3565,-4.3531,-4.3515,-4.3515,-4.3515,-4.3515,-4.3515,-4.3515,-4.3515,-4.3515,-4.3515,-4.3515,-4.3515,-4.3515,-4.3515,-4.3515,-4.3515,-4.3515,-4.3515,-4.3515,-4.3515,-4.3515,-4.3515,-4.3513,-4.3582,-4.3563,-4.3597,-4.3647,-4.3647,-4.3647,-4.3647,-4.3943,-4.4073,-4.4106,-4.4408,-4.4493,-4.4398,-4.4398,-4.3988,-4.3288,-4.3583,-4.3212,-4.2353,-4.1647,-4.1284,-4.1044,-4.0052,-3.9634,-3.9599,-3.9599,-3.9599,-3.9611,-4.5594,-4.5594,-4.5594,-4.5594,-4.5594,-4.5594,-4.5594,-4.5594,-4.5594,-4.5594,-4.5594,-4.5594,-4.5594,-4.5594,-4.5594,-4.5594,-4.5594,-4.5594,-4.5594,-4.5594,-4.5594,-4.5594,-4.5594,-4.5594,-4.5594,-4.5594,-4.5594,-4.5594,-4.5594,-4.5402,-4.5037,-4.5037,-4.5037,-4.5037,-4.5037,-4.5248,-4.5575,-4.519,-4.5248,-4.5575,-4.519,-4.5037,-4.5037,-4.5037,-4.5037,-4.5037,-4.5037,-4.5267,-4.5594,-4.5594,-4.5594,-4.5594,-4.5594,-4.5594,-4.5568,-4.539,-4.5211,-4.5,-4.46,-4.4261,-4.3955,-4.3756,-4.3614,-4.3515,-4.3515,-4.3846,-4.4048,-4.3589,-4.3515,-4.3515,-4.3515,-4.3515,-4.3515,-4.3515,-4.3515,-4.3515,-4.3515,-4.3515,-4.3515,-4.3515,-4.3515,-4.3515,-4.3515,-4.3515,-4.3515,-4.3515,-4.3515,-4.3515,-4.3515,-4.3515,-4.3515,-4.3515,-4.3515,-4.3515,-4.3515,-4.3646,-4.3726,-4.3726,-4.3899,-4.4194,-4.4593,-4.4593,-4.4391,-4.4033,-4.4183,-4.3751,-4.2924,-4.2564,-4.2035,-4.1418,-4.0909,-4.0344,-3.9775,-3.9775,-3.9477,-3.9114]},{"header":{"parameterUnit":"m.s-1","parameterCategory":1,"la1":30.6,"la2":28.766,"lo1":-90.7593,"lo2":-88.6598,"dy":0.0162,"dx":0.0183,"nx":116,"ny":114,"refTime":"2023-11-05T00:00:00:Z","depth":0,"parameterNumber":3,"parameterNumberName":"V-component_of_WINDS"},"data":[0.0,0.0,0.0,0.0,0.0,0.0,0.0,0.0,0.0,0.0,0.0,0.0,0.0,0.0,0.0,0.0,0.0,0.0,0.0,0.0,0.0,0.0,0.0,0.0,0.0,0.0,0.0,0.0,0.0,0.0,0.0,0.0,0.0,0.0,0.0,0.0,0.0,0.0,0.0,0.0,0.0,0.0,0.0,0.0,0.0,0.0,0.0,0.0,0.0,0.0,0.0,0.0,0.0,0.0,0.0,0.0,0.0,0.0,0.0,0.0,0.0,0.0,0.0,0.0,0.0,0.0,0.0,0.0,0.0,0.0,0.0,0.0,0.0,0.0,0.0,0.0,0.0,0.0,0.0,0.0,0.0,0.0,0.0,0.0,0.0,0.0,0.0,0.0,0.0,0.0,0.0,0.0,0.0,0.0,0.0,0.0,0.0,0.0,0.0,0.0,0.0,0.0,0.0,0.0,0.0,0.0,0.0,0.0,0.0,0.0,0.0,0.0,0.0,0.0,0.0,0.0,0.0,0.0,0.0,0.0,0.0,0.0,0.0,0.0,0.0,0.0,0.0,0.0,0.0,0.0,0.0,0.0,0.0,0.0,0.0,0.0,0.0,0.0,0.0,0.0,0.0,0.0,0.0,0.0,0.0,0.0,0.0,0.0,0.0,0.0,0.0,0.0,0.0,0.0,0.0,0.0,0.0,0.0,0.0,0.0,0.0,0.0,0.0,0.0,0.0,0.0,0.0,0.0,0.0,0.0,0.0,0.0,0.0,0.0,0.0,0.0,0.0,0.0,0.0,0.0,0.0,0.0,0.0,0.0,0.0,0.0,0.0,0.0,0.0,0.0,0.0,0.0,0.0,0.0,0.0,0.0,0.0,0.0,0.0,0.0,0.0,0.0,0.0,0.0,0.0,0.0,0.0,0.0,0.0,0.0,0.0,0.0,0.0,0.0,0.0,0.0,0.0,0.0,0.0,0.0,0.0,0.0,0.0,0.0,0.0,0.0,0.0,0.0,0.0,0.0,0.0,0.0,0.0,0.0,0.0,0.0,0.0,0.0,0.0,0.0,0.0,0.0,0.0,0.0,0.0,0.0,0.0,0.0,0.0,0.0,0.0,0.0,0.0,0.0,0.0,0.0,0.0,0.0,0.0,0.0,0.0,0.0,0.0,0.0,0.0,0.0,0.0,0.0,0.0,0.0,0.0,0.0,0.0,0.0,0.0,0.0,0.0,0.0,0.0,0.0,0.0,0.0,0.0,0.0,0.0,0.0,0.0,0.0,0.0,0.0,0.0,0.0,0.0,0.0,0.0,0.0,0.0,0.0,0.0,0.0,0.0,0.0,0.0,0.0,0.0,0.0,0.0,0.0,0.0,0.0,0.0,0.0,0.0,0.0,0.0,0.0,0.0,0.0,0.0,0.0,0.0,0.0,0.0,0.0,0.0,0.0,0.0,0.0,0.0,0.0,0.0,0.0,0.0,0.0,0.0,0.0,0.0,0.0,0.0,0.0,0.0,0.0,0.0,0.0,0.0,0.0,0.0,0.0,0.0,0.0,0.0,0.0,0.0,0.0,0.0,0.0,0.0,0.0,0.0,0.0,0.0,0.0,0.0,0.0,0.0,0.0,0.0,0.0,0.0,0.0,0.0,0.0,0.0,0.0,0.0,0.0,0.0,0.0,0.0,0.0,0.0,0.0,0.0,0.0,0.0,0.0,0.0,0.0,0.0,0.0,0.0,0.0,0.0,0.0,0.0,0.0,0.0,0.0,0.0,0.0,0.0,0.0,0.0,0.0,0.0,0.0,0.0,0.0,0.0,0.0,0.0,0.0,0.0,0.0,0.0,0.0,0.0,0.0,0.0,0.0,0.0,0.0,0.0,0.0,0.0,0.0,0.0,0.0,0.0,0.0,0.0,0.0,0.0,0.0,0.0,0.0,0.0,0.0,0.0,0.0,0.0,0.0,0.0,0.0,0.0,0.0,0.0,0.0,0.0,0.0,0.0,0.0,0.0,0.0,0.0,0.0,0.0,0.0,0.0,0.0,0.0,0.0,0.0,0.0,0.0,0.0,0.0,0.0,0.0,0.0,0.0,0.0,0.0,0.0,0.0,0.0,0.0,0.0,0.0,0.0,0.0,0.0,0.0,0.0,0.0,0.0,0.0,0.0,0.0,0.0,0.0,0.0,0.0,0.0,0.0,0.0,0.0,0.0,0.0,0.0,0.0,0.0,0.0,0.0,0.0,0.0,0.0,0.0,0.0,0.0,0.0,0.0,0.0,0.0,0.0,0.0,0.0,0.0,0.0,0.0,0.0,0.0,0.0,0.0,0.0,0.0,0.0,0.0,0.0,0.0,0.0,0.0,0.0,0.0,0.0,0.0,0.0,0.0,0.0,0.0,0.0,0.0,0.0,0.0,0.0,0.0,0.0,0.0,0.0,0.0,0.0,0.0,0.0,0.0,0.0,0.0,0.0,0.0,0.0,0.0,0.0,0.0,0.0,0.0,0.0,0.0,0.0,0.0,0.0,0.0,0.0,0.0,0.0,0.0,0.0,0.0,0.0,0.0,0.0,0.0,0.0,0.0,0.0,0.0,0.0,0.0,0.0,0.0,0.0,0.0,0.0,0.0,0.0,0.0,0.0,0.0,0.0,0.0,0.0,0.0,0.0,0.0,0.0,0.0,0.0,0.0,0.0,0.0,0.0,0.0,0.0,0.0,0.0,0.0,0.0,0.0,0.0,0.0,0.0,0.0,0.0,0.0,0.0,0.0,0.0,0.0,0.0,0.0,0.0,0.0,0.0,0.0,0.0,0.0,0.0,0.0,0.0,0.0,0.0,0.0,0.0,0.0,0.0,0.0,0.0,0.0,0.0,0.0,0.0,0.0,0.0,0.0,0.0,0.0,0.0,0.0,0.0,0.0,0.0,0.0,0.0,0.0,0.0,0.0,0.0,0.0,0.0,0.0,0.0,0.0,0.0,0.0,0.0,0.0,0.0,0.0,0.0,0.0,0.0,0.0,0.0,0.0,0.0,0.0,0.0,0.0,0.0,0.0,0.0,0.0,0.0,0.0,0.0,0.0,0.0,0.0,0.0,0.0,0.0,0.0,0.0,0.0,0.0,0.0,0.0,0.0,0.0,0.0,0.0,0.0,0.0,0.0,0.0,0.0,0.0,0.0,0.0,0.0,0.0,0.0,0.0,0.0,0.0,0.0,0.0,0.0,0.0,0.0,0.0,0.0,0.0,0.0,0.0,0.0,0.0,0.0,0.0,0.0,0.0,0.0,0.0,0.0,0.0,0.0,0.0,0.0,0.0,0.0,0.0,0.0,0.0,0.0,0.0,0.0,0.0,0.0,0.0,0.0,0.0,0.0,0.0,0.0,0.0,0.0,0.0,0.0,0.0,0.0,0.0,0.0,0.0,0.0,0.0,0.0,0.0,0.0,0.0,0.0,0.0,0.0,0.0,0.0,0.0,0.0,0.0,0.0,0.0,0.0,0.0,0.0,0.0,0.0,0.0,0.0,0.0,0.0,0.0,0.0,0.0,0.0,0.0,0.0,0.0,0.0,0.0,0.0,0.0,0.0,0.0,0.0,0.0,0.0,0.0,0.0,0.0,0.0,0.0,0.0,0.0,0.0,0.0,0.0,0.0,0.0,0.0,0.0,0.0,0.0,0.0,0.0,0.0,0.0,0.0,0.0,0.0,0.0,0.0,0.0,0.0,0.0,0.0,0.0,0.0,0.0,0.0,0.0,0.0,0.0,0.0,0.0,0.0,0.0,0.0,0.0,0.0,0.0,0.0,0.0,0.0,0.0,0.0,0.0,0.0,0.0,0.0,0.0,0.0,0.0,0.0,0.0,0.0,0.0,0.0,0.0,0.0,0.0,0.0,0.0,0.0,0.0,0.0,0.0,0.0,0.0,0.0,0.0,0.0,0.0,0.0,0.0,0.0,0.0,0.0,0.0,0.0,0.0,0.0,0.0,0.0,0.0,0.0,0.0,0.0,0.0,0.0,0.0,0.0,0.0,0.0,0.0,0.0,0.0,0.0,0.0,0.0,0.0,0.0,0.0,0.0,0.0,0.0,0.0,0.0,0.0,0.0,0.0,0.0,0.0,0.0,0.0,0.0,0.0,0.0,0.0,0.0,0.0,0.0,0.0,0.0,0.0,0.0,0.0,0.0,0.0,0.0,0.0,0.0,0.0,0.0,0.0,0.0,0.0,0.0,0.0,0.0,0.0,0.0,0.0,0.0,0.0,0.0,0.0,0.0,0.0,0.0,0.0,0.0,0.0,0.0,0.0,0.0,0.0,0.0,0.0,0.0,0.0,0.0,0.0,0.0,0.0,0.0,0.0,0.0,0.0,0.0,0.0,0.0,0.0,0.0,0.0,0.0,0.0,0.0,0.0,0.0,0.0,0.0,0.0,0.0,0.0,0.0,0.0,0.0,0.0,0.0,0.0,0.0,0.0,0.0,0.0,0.0,0.0,0.0,0.0,0.0,0.0,0.0,0.0,0.0,0.0,0.0,0.0,0.0,0.0,0.0,0.0,0.0,0.0,0.0,0.0,0.0,0.0,0.0,0.0,0.0,0.0,0.0,0.0,0.0,0.0,0.0,0.0,0.0,0.0,0.0,0.0,0.0,0.0,0.0,0.0,0.0,0.0,0.0,0.0,0.0,0.0,0.0,0.0,0.0,0.0,0.0,0.0,0.0,0.0,0.0,0.0,0.0,0.0,0.0,0.0,0.0,0.0,0.0,0.0,0.0,0.0,0.0,0.0,0.0,0.0,0.0,0.0,0.0,0.0,0.0,0.0,0.0,0.0,0.0,0.0,0.0,0.0,0.0,0.0,0.0,0.0,0.0,0.0,0.0,0.0,0.0,0.0,0.0,0.0,0.0,0.0,0.0,0.0,0.0,0.0,0.0,0.0,0.0,0.0,0.0,0.0,0.0,0.0,0.0,0.0,0.0,0.0,0.0,0.0,0.0,0.0,0.0,0.0,0.0,0.0,0.0,0.0,0.0,0.0,0.0,0.0,0.0,0.0,0.0,0.0,0.0,0.0,0.0,0.0,0.0,0.0,0.0,0.0,0.0,0.0,0.0,0.0,0.0,0.0,0.0,0.0,0.0,0.0,0.0,0.0,0.0,0.0,0.0,0.0,0.0,0.0,0.0,0.0,0.0,0.0,0.0,0.0,0.0,0.0,0.0,0.0,0.0,0.0,0.0,0.0,0.0,0.0,0.0,0.0,0.0,0.0,0.0,0.0,0.0,0.0,0.0,0.0,0.0,0.0,0.0,0.0,0.0,0.0,0.0,0.0,0.0,0.0,0.0,0.0,0.0,0.0,0.0,0.0,0.0,0.0,0.0,0.0,0.0,0.0,0.0,0.0,0.0,0.0,0.0,0.0,0.0,0.0,0.0,0.0,0.0,0.0,0.0,0.0,0.0,0.0,0.0,0.0,0.0,0.0,0.0,0.0,0.0,0.0,0.0,0.0,0.0,0.0,0.0,0.0,0.0,0.0,0.0,0.0,0.0,0.0,0.0,0.0,0.0,0.0,0.0,0.0,0.0,0.0,0.0,0.0,0.0,0.0,0.0,0.0,0.0,0.0,0.0,0.0,0.0,0.0,0.0,0.0,0.0,0.0,0.0,0.0,0.0,0.0,0.0,0.0,0.0,0.0,0.0,0.0,0.0,0.0,0.0,0.0,0.0,0.0,0.0,0.0,0.0,0.0,0.0,0.0,0.0,0.0,0.0,0.0,0.0,0.0,0.0,0.0,0.0,0.0,0.0,0.0,0.0,0.0,0.0,0.0,0.0,0.0,0.0,0.0,0.0,0.0,0.0,0.0,0.0,0.0,0.0,0.0,0.0,0.0,0.0,0.0,0.0,0.0,0.0,0.0,0.0,0.0,0.0,0.0,0.0,0.0,0.0,0.0,0.0,0.0,0.0,0.0,0.0,0.0,0.0,0.0,0.0,0.0,0.0,0.0,0.0,0.0,0.0,0.0,0.0,0.0,0.0,0.0,0.0,0.0,0.0,0.0,0.0,0.0,0.0,0.0,0.0,0.0,0.0,0.0,0.0,0.0,0.0,0.0,0.0,0.0,0.0,0.0,-1.1938,0.0,0.0,0.0,0.0,0.0,0.0,0.0,0.0,0.0,0.0,0.0,0.0,0.0,0.0,0.0,0.0,0.0,0.0,0.0,0.0,0.0,0.0,0.0,0.0,0.0,0.0,0.0,0.0,0.0,0.0,0.0,0.0,0.0,0.0,0.0,0.0,0.0,0.0,0.0,0.0,0.0,0.0,0.0,0.0,0.0,0.0,0.0,0.0,0.0,0.0,0.0,0.0,0.0,0.0,0.0,0.0,0.0,0.0,0.0,0.0,0.0,0.0,0.0,0.0,0.0,0.0,0.0,0.0,0.0,0.0,0.0,0.0,0.0,0.0,0.0,0.0,0.0,0.0,0.0,0.0,0.0,0.0,0.0,0.0,0.0,0.0,0.0,0.0,0.0,0.0,0.0,0.0,0.0,0.0,0.0,0.0,0.0,0.0,0.0,0.0,0.0,0.0,0.0,0.0,0.0,0.0,0.0,0.0,0.0,0.0,0.0,0.0,0.0,0.0,0.0,0.0,-1.253,0.0,0.0,0.0,0.0,0.0,0.0,0.0,0.0,0.0,0.0,0.0,0.0,0.0,0.0,0.0,0.0,0.0,0.0,0.0,0.0,0.0,0.0,0.0,0.0,0.0,0.0,0.0,0.0,0.0,0.0,0.0,0.0,0.0,0.0,0.0,0.0,0.0,0.0,0.0,0.0,0.0,0.0,0.0,0.0,0.0,0.0,0.0,0.0,0.0,0.0,0.0,0.0,0.0,0.0,0.0,0.0,0.0,0.0,0.0,0.0,0.0,0.0,0.0,0.0,0.0,0.0,0.0,0.0,0.0,0.0,0.0,0.0,0.0,0.0,0.0,0.0,0.0,0.0,0.0,0.0,0.0,0.0,0.0,0.0,0.0,0.0,0.0,0.0,0.0,0.0,0.0,0.0,0.0,0.0,0.0,0.0,0.0,0.0,0.0,0.0,0.0,0.0,0.0,0.0,0.0,0.0,0.0,0.0,-1.1623,-1.1955,-1.2509,-1.3426,-1.3536,-1.2948,-1.2941,-1.2791,-1.2653,-1.3642,0.0,0.0,0.0,0.0,0.0,0.0,0.0,0.0,0.0,0.0,0.0,0.0,0.0,0.0,0.0,0.0,0.0,0.0,0.0,0.0,0.0,0.0,0.0,0.0,0.0,0.0,0.0,0.0,0.0,0.0,0.0,0.0,0.0,0.0,0.0,0.0,0.0,0.0,0.0,0.0,-0.011,-0.0291,-0.0194,0.0,0.0,0.0,0.0,0.0,0.0,0.0,0.0,0.0,0.0,0.0,0.0,0.0,0.0,0.0,0.0,0.0,0.0,0.0,0.0,0.0,0.0,0.0,0.0,0.0,0.0,0.0,0.0,0.0,0.0,0.0,0.0,0.0,0.0,0.0,0.0,0.0,0.0,0.0,0.0,0.0,0.0,0.0,-0.7717,-0.8566,0.0,0.0,0.0,0.0,0.0,0.0,0.0,0.0,0.0,0.0,0.0,0.0,0.0,-1.1182,-1.1951,-1.2288,-1.261,-1.2919,-1.2959,-1.3019,-1.3093,-1.3244,-1.3366,-1.3473,-1.3473,0.0,-1.4038,-1.4189,0.0,0.0,0.0,0.0,0.0,0.0,0.0,0.0,0.0,0.0,0.0,0.0,0.0,0.0,0.0,0.0,0.0,0.0,0.0,0.0,0.0,0.0,0.0,0.0,0.0,0.0,0.0,0.0,0.0,0.0,0.0,0.0,0.0,0.0,0.0,0.0,0.0,0.0,0.0,0.0,0.0,0.0,0.0,0.0,0.0,0.0,0.0,0.0,0.0,0.0,0.0,0.0,0.0,0.0,0.0,0.0,0.0,0.0,0.0,0.0,0.0,0.0,0.0,0.0,0.0,0.0,0.0,0.0,0.0,0.0,0.0,0.0,0.0,0.0,0.0,0.0,0.0,0.0,0.0,0.0,0.0,0.0,0.0,0.0,0.0,-0.7688,-0.8807,-0.8791,-0.9098,-0.9232,0.0,0.0,0.0,0.0,0.0,0.0,0.0,0.0,0.0,-1.1806,-1.2084,-1.2425,-1.2806,-1.31,-1.34,-1.3707,-1.3868,-1.4035,-1.4202,-1.4369,-1.4509,-1.4673,-1.5257,-1.5369,-1.5024,-1.4387,-1.3442,-1.2428,0.0,0.0,0.0,0.0,-1.5169,-1.5837,0.0,0.0,0.0,0.0,0.0,0.0,0.0,0.0,0.0,0.0,0.0,0.0,0.0,0.0,0.0,0.0,0.0,0.0,0.0,0.0,0.0,0.0,0.0,0.0,0.0,0.0,0.0,0.0,0.0,0.0,0.0,0.0,0.0,0.0,0.0,0.0,0.0,0.0,0.0,0.0,0.0,0.0,0.0,0.0,0.0,0.0,0.0,0.0,0.0,0.0,0.0,0.0,0.0,0.0,0.0,0.0,0.0,0.0,0.0,0.0,0.0,0.0,0.0,0.0,0.0,0.0,0.0,0.0,0.0,0.0,0.0,0.0,0.0,0.0,0.0,0.0,0.0,-0.8569,-0.9579,-0.8964,-0.9506,-0.976,0.0,0.0,0.0,0.0,0.0,0.0,-1.153,-1.1977,-1.2516,-1.3112,-1.3313,-1.354,-1.3768,-1.3939,-1.4242,-1.4536,-1.4756,-1.501,-1.535,-1.5444,-1.5591,-1.5772,-1.6419,-1.6306,-1.5653,-1.4991,-1.4036,-1.31,-1.4215,-1.484,-1.5257,-1.6255,-1.7145,-1.791,0.0,0.0,0.0,0.0,0.0,0.0,0.0,0.0,0.0,0.0,0.0,0.0,0.0,0.0,0.0,0.0,0.0,0.0,0.0,0.0,0.0,0.0,0.0,0.0,0.0,0.0,0.0,0.0,0.0,0.0,0.0,0.0,0.0,0.0,0.0,0.0,0.0,0.0,0.0,0.0,0.0,0.0,0.0,0.0,0.0,0.0,0.0,0.0,0.0,0.0,0.0,0.0,0.0,0.0,0.0,0.0,0.0,0.0,0.0,0.0,0.0,0.0,0.0,0.0,0.0,0.0,0.0,0.0,0.0,0.0,0.0,0.0,0.0,0.0,0.0,0.0,0.0,0.0,0.0,-0.9257,-0.9987,0.0,0.0,0.0,0.0,-1.1282,-1.2167,-1.279,-1.308,-1.3126,-1.3414,-1.4001,-1.4035,-1.4442,-1.5277,-1.5304,-1.5451,-1.5691,-1.5711,-1.5919,-1.6199,-1.5932,-1.6112,-1.6607,-1.6094,-1.5839,-1.5852,-1.6492,-1.6443,-1.5986,-1.6083,-1.6842,-1.7926,-1.7981,-1.8514,-1.9199,0.0,0.0,0.0,0.0,0.0,0.0,0.0,0.0,0.0,0.0,0.0,0.0,0.0,0.0,0.0,0.0,0.0,0.0,0.0,0.0,0.0,0.0,0.0,0.0,0.0,0.0,0.0,0.0,0.0,0.0,0.0,0.0,0.0,0.0,0.0,0.0,0.0,0.0,0.0,0.0,0.0,0.0,0.0,0.0,0.0,0.0,0.0,0.0,0.0,0.0,0.0,0.0,0.0,0.0,0.0,0.0,0.0,0.0,0.0,0.0,0.0,0.0,0.0,0.0,0.0,0.0,0.0,0.0,0.0,0.0,0.0,0.0,0.0,0.0,0.0,0.0,0.0,0.0,0.0,-1.0663,-1.1603,0.0,-1.1732,-1.1973,-1.2281,-1.2552,-1.3039,-1.3454,-1.3761,-1.4135,-1.4522,-1.4917,-1.5297,-1.5645,-1.5959,-1.5959,-1.6106,-1.6386,-1.6005,-1.5985,-1.6321,-1.6166,-1.6233,-1.6426,-1.6406,-1.6393,-1.6395,-1.6462,-1.5948,-1.5162,-1.5589,-1.6501,-1.762,-1.774,-1.8921,-2.0459,0.0,0.0,0.0,0.0,0.0,0.0,0.0,0.0,0.0,0.0,0.0,0.0,0.0,0.0,0.0,0.0,0.0,0.0,0.0,0.0,0.0,0.0,0.0,0.0,0.0,0.0,0.0,0.0,0.0,0.0,0.0,0.0,0.0,0.0,0.0,0.0,0.0,0.0,0.0,0.0,0.0,0.0,0.0,0.0,0.0,0.0,0.0,0.0,0.0,0.0,0.0,0.0,0.0,0.0,0.0,0.0,0.0,0.0,0.0,0.0,0.0,0.0,0.0,0.0,0.0,0.0,0.0,0.0,0.0,0.0,0.0,0.0,0.0,0.0,0.0,0.0,0.0,0.0,-1.2058,-1.1289,-1.2563,-1.3347,-1.2985,-1.3119,-1.3407,-1.3774,-1.4068,-1.4409,-1.4803,-1.5243,-1.5491,-1.5538,-1.6019,-1.6274,-1.6126,-1.6219,-1.6373,-1.656,-1.6266,-1.6279,-1.6616,-1.6466,-1.6526,-1.6707,-1.6607,-1.6613,-1.6673,-1.6286,-1.5725,-1.5212,-1.6409,-1.7594,-1.8726,-1.9279,-2.0451,-2.1738,0.0,0.0,0.0,0.0,0.0,0.0,0.0,0.0,0.0,0.0,0.0,0.0,0.0,0.0,0.0,0.0,0.0,0.0,0.0,0.0,0.0,0.0,0.0,0.0,0.0,0.0,0.0,0.0,0.0,0.0,0.0,0.0,0.0,0.0,0.0,0.0,0.0,0.0,0.0,0.0,0.0,0.0,0.0,0.0,0.0,0.0,0.0,0.0,0.0,0.0,0.0,0.0,0.0,0.0,0.0,0.0,0.0,0.0,0.0,0.0,0.0,0.0,0.0,0.0,0.0,0.0,0.0,0.0,0.0,0.0,0.0,0.0,0.0,0.0,0.0,0.0,-0.6879,-1.0513,-1.2633,-1.1143,-1.2877,-1.3941,-1.3373,-1.3834,-1.4402,-1.5022,-1.5277,-1.5685,-1.6301,-1.6286,-1.6152,-1.5818,-1.6146,-1.6159,-1.5872,-1.6159,-1.6355,-1.6319,-1.658,-1.686,-1.7192,-1.6847,-1.7027,-1.7522,-1.668,-1.6473,-1.6687,-1.6112,-1.6039,-1.6545,-1.8582,-2.0133,-2.1355,-2.2457,-2.2906,-2.3003,0.0,0.0,0.0,0.0,0.0,0.0,0.0,0.0,0.0,0.0,0.0,0.0,0.0,0.0,0.0,0.0,0.0,0.0,0.0,0.0,0.0,0.0,0.0,0.0,0.0,0.0,0.0,0.0,0.0,0.0,0.0,0.0,0.0,0.0,0.0,0.0,0.0,0.0,0.0,0.0,0.0,0.0,0.0,0.0,0.0,0.0,0.0,0.0,0.0,0.0,0.0,0.0,0.0,0.0,0.0,0.0,0.0,0.0,0.0,0.0,0.0,0.0,0.0,0.0,0.0,0.0,0.0,0.0,0.0,0.0,0.0,0.0,0.0,0.0,0.0,-0.8801,-1.0015,-1.1821,-1.3384,-1.4302,-1.5338,-1.5925,-1.5758,-1.5892,-1.6052,-1.6213,-1.6299,-1.6413,-1.658,-1.6587,-1.6547,-1.6466,-1.6804,-1.6918,-1.6837,-1.6918,-1.7065,-1.7221,-1.6867,-1.686,-1.7199,-1.7112,-1.7166,-1.732,-1.7235,-1.7268,-1.7315,-1.6941,-1.6707,-1.6632,-1.677,-1.7717,-1.8879,-1.8117,-1.894,-2.0629,0.0,0.0,0.0,0.0,0.0,0.0,0.0,0.0,0.0,0.0,0.0,0.0,0.0,0.0,0.0,0.0,0.0,0.0,0.0,0.0,0.0,0.0,0.0,0.0,0.0,0.0,0.0,0.0,0.0,0.0,0.0,0.0,0.0,0.0,0.0,0.0,0.0,0.0,0.0,0.0,0.0,0.0,0.0,0.0,0.0,0.0,0.0,0.0,0.0,0.0,0.0,0.0,0.0,0.0,0.0,0.0,0.0,0.0,0.0,0.0,0.0,0.0,0.0,0.0,0.0,0.0,0.0,0.0,0.0,0.0,0.0,0.0,0.0,0.0,-0.7522,-0.9046,-1.0985,-1.251,-1.3939,-1.5246,-1.614,-1.6707,-1.6707,-1.6707,-1.676,-1.6881,-1.6774,-1.676,-1.6881,-1.6894,-1.6834,-1.6707,-1.7045,-1.7139,-1.7018,-1.7139,-1.7286,-1.7454,-1.7174,-1.7161,-1.738,-1.738,-1.738,-1.7387,-1.7434,-1.7454,-1.7427,-1.7088,-1.686,0.0,0.0,0.0,0.0,0.0,-1.8572,-2.035,0.0,0.0,0.0,0.0,0.0,0.0,0.0,0.0,0.0,0.0,0.0,0.0,0.0,0.0,0.0,0.0,0.0,0.0,0.0,0.0,0.0,0.0,0.0,0.0,0.0,0.0,0.0,0.0,0.0,0.0,0.0,0.0,0.0,0.0,0.0,0.0,0.0,0.0,0.0,0.0,0.0,0.0,0.0,0.0,0.0,0.0,0.0,0.0,0.0,0.0,0.0,0.0,0.0,0.0,0.0,0.0,0.0,0.0,0.0,0.0,0.0,0.0,0.0,0.0,0.0,0.0,0.0,0.0,0.0,0.0,0.0,0.0,0.0,0.0,-0.7502,-0.8494,-1.0632,-1.257,-1.41,-1.4804,-1.5891,-1.6599,-1.6807,-1.6807,-1.6914,-1.7226,-1.6954,-1.6921,-1.7239,0.0,0.0,0.0,0.0,-1.7119,-1.6807,-1.7119,-1.7253,-1.7253,-1.7514,-1.7582,-1.7582,-1.7582,-1.7582,-1.7569,-1.7367,-1.7253,-1.7226,-1.6914,-1.6767,-1.6773,-1.7579,-1.7739,-1.7638,-1.868,-1.9943,-2.1114,0.0,0.0,0.0,0.0,0.0,0.0,0.0,0.0,0.0,0.0,0.0,0.0,0.0,0.0,0.0,0.0,0.0,0.0,0.0,0.0,0.0,0.0,0.0,0.0,0.0,0.0,0.0,0.0,0.0,0.0,0.0,0.0,0.0,0.0,0.0,0.0,0.0,0.0,0.0,0.0,0.0,0.0,0.0,0.0,0.0,0.0,0.0,0.0,0.0,0.0,0.0,0.0,0.0,0.0,0.0,0.0,0.0,0.0,0.0,0.0,0.0,0.0,0.0,0.0,0.0,0.0,0.0,0.0,0.0,0.0,0.0,0.0,0.0,-0.76,-0.814,-0.9111,-1.0845,-1.1627,-1.2889,-1.5227,-1.5618,-1.6125,-1.7304,-1.7415,-1.7435,-1.7495,-1.7442,-1.7435,-1.7495,-1.7502,-1.7475,-1.7415,-1.7468,-1.7468,-1.7415,-1.7468,-1.7502,-1.7502,0.0,0.0,-1.7582,-1.7582,-1.7582,-1.7582,-1.7522,-1.7502,-1.7495,-1.7435,-1.7134,-1.6673,-1.6674,-1.6464,-1.6197,-1.6426,-1.794,-1.9852,0.0,0.0,0.0,0.0,0.0,0.0,0.0,0.0,0.0,0.0,0.0,0.0,0.0,0.0,0.0,0.0,0.0,0.0,0.0,0.0,0.0,0.0,0.0,0.0,0.0,0.0,0.0,0.0,0.0,0.0,0.0,0.0,0.0,0.0,0.0,0.0,0.0,0.0,0.0,0.0,0.0,0.0,0.0,0.0,0.0,0.0,0.0,0.0,0.0,0.0,0.0,0.0,0.0,0.0,-0.0142,0.0,0.0,0.0,0.0,0.0,0.0,0.0,0.0,0.0,0.0,0.0,0.0,0.0,0.0,-0.6434,0.0,0.0,-0.7692,-0.8187,-0.8638,-0.9286,-1.0197,-1.0413,-1.1758,-1.5395,-1.5645,-1.6162,-1.7649,-1.7675,-1.7582,-1.7582,-1.7582,-1.7582,-1.7582,-1.7582,-1.7582,-1.7582,-1.7582,-1.7582,-1.7582,-1.7582,-1.7582,-1.7582,-1.7582,-1.7582,-1.7582,-1.7582,-1.7582,-1.7582,-1.7582,-1.7582,-1.7569,-1.7481,-1.7108,-1.6673,-1.6386,-1.6092,-1.5784,-1.5784,-1.6983,-1.8596,0.0,0.0,0.0,0.0,0.0,0.0,0.0,0.0,0.0,0.0,0.0,0.0,0.0,0.0,0.0,0.0,0.0,0.0,0.0,0.0,0.0,0.0,0.0,0.0,0.0,0.0,0.0,0.0,0.0,0.0,0.0,0.0,0.0,0.0,0.0,0.0,0.0,0.0,0.0,0.0,0.0,0.0,0.0,0.0,0.0,0.0,0.0,0.0,0.0,0.0,0.0,0.0,0.0,0.0,-0.0115,-0.0725,-0.0974,0.0,0.0,0.0,0.0,0.0,0.0,0.0,0.0,0.0,-0.6132,-0.6419,-0.6692,-0.7034,-0.7428,-0.7868,-0.8265,-0.8767,-0.9066,-0.9327,-0.9574,-0.9503,-1.0851,-1.4629,-1.4955,-1.5465,-1.6965,-1.691,-1.6876,-1.7147,-1.7147,-1.7312,-1.7582,-1.7582,-1.7582,-1.7582,-1.7582,-1.7582,-1.7582,-1.7582,-1.7582,-1.7582,-1.7582,-1.7582,-1.7582,-1.7582,-1.7582,-1.7582,-1.7582,-1.7582,-1.7562,-1.738,-1.7027,-1.6687,-1.6446,-1.6139,-1.5784,-1.5784,-1.6622,-1.7692,0.0,0.0,0.0,0.0,0.0,0.0,0.0,0.0,0.0,0.0,0.0,0.0,0.0,0.0,0.0,0.0,0.0,0.0,0.0,0.0,0.0,0.0,0.0,0.0,0.0,0.0,0.0,0.0,0.0,0.0,0.0,0.0,0.0,0.0,0.0,0.0,0.0,0.0,0.0,0.0,0.0,0.0,0.0,0.0,0.0,0.0,0.0,0.0,0.0,0.0,0.0,0.0,0.0,0.0,0.0,-0.0116,0.0,-0.1342,-0.2497,-0.3975,-0.5295,-0.5794,-0.5905,-0.6064,0.0,0.0,-0.6957,-0.6991,-0.7387,-0.7743,-0.788,-0.8333,-0.8784,-0.9232,-0.9449,-0.9571,-0.9605,-0.9595,-1.0226,-1.2056,-1.198,-1.2354,-1.3699,-1.3819,-1.4288,-1.5524,-1.563,-1.6227,-1.7529,-1.7582,-1.7582,-1.7582,-1.7582,-1.7582,-1.7582,-1.7582,-1.7582,-1.7582,-1.7582,-1.7582,-1.7582,-1.7582,-1.7582,-1.7582,-1.7582,-1.7582,-1.7582,-1.7549,-1.7208,-1.67,-1.6667,-1.6319,-1.5784,-1.5784,-1.6622,-1.7692,0.0,0.0,0.0,0.0,0.0,0.0,0.0,0.0,0.0,0.0,0.0,0.0,0.0,0.0,0.0,0.0,0.0,0.0,0.0,0.0,0.0,0.0,0.0,0.0,0.0,0.0,0.0,0.0,0.0,0.0,0.0,0.0,0.0,0.0,0.0,0.0,0.0,0.0,0.0,0.0,0.0,0.0,0.0,0.0,0.0,0.0,0.0,0.0,0.0,0.0,0.0,0.0,0.0,0.0,0.0,0.0,-0.0221,0.0,-0.2293,-0.3837,-0.5141,-0.5831,-0.6256,-0.66,-0.6933,-0.7189,-0.7455,-0.758,-0.795,-0.8248,-0.8401,-0.8723,-0.9028,0.0,-0.9452,-0.9578,-0.949,-0.9476,-0.9617,-1.0044,-0.9916,-1.0785,-1.3277,-1.3395,-1.3534,-1.4126,-1.4931,-1.5689,-1.628,-1.7147,-1.7582,-1.7582,-1.7582,-1.7582,-1.7582,-1.7582,-1.7582,-1.7582,-1.7582,-1.7582,-1.7582,-1.7582,-1.7582,-1.7569,-1.7454,-1.738,-1.7373,-1.7148,-1.6827,-1.6453,-1.6453,-1.6199,-1.5784,-1.5784,-1.6157,-1.6574,0.0,0.0,0.0,0.0,0.0,0.0,0.0,0.0,0.0,0.0,0.0,0.0,0.0,0.0,0.0,0.0,0.0,0.0,0.0,0.0,0.0,0.0,0.0,0.0,0.0,0.0,0.0,0.0,0.0,0.0,0.0,0.0,0.0,0.0,0.0,0.0,0.0,0.0,0.0,0.0,0.0,0.0,0.0,0.0,0.0,0.0,0.0,0.0,0.0,0.0,0.0,0.0,0.0,0.0,0.0,0.0,-0.0185,-0.0722,-0.2412,-0.3752,-0.4982,-0.6097,-0.6759,-0.7173,-0.74,-0.7689,-0.7967,-0.813,-0.8428,-0.8642,-0.8754,-0.8981,-0.921,-0.921,-0.9374,-0.9493,-0.934,-0.9283,-0.9164,-0.8906,-0.874,-0.9581,-1.2041,-1.2099,-1.221,-1.2583,-1.3981,-1.499,-1.5364,-1.6823,-1.7582,-1.7582,-1.7582,-1.7582,-1.7582,-1.7582,-1.7582,-1.7582,-1.7582,-1.7582,-1.7582,-1.7582,-1.7542,-1.7507,-1.7293,-1.7152,-1.7058,-1.6794,-1.6587,-1.6393,-1.6393,-1.6213,-1.5952,-1.5952,-1.5899,-1.5784,0.0,0.0,0.0,0.0,0.0,0.0,0.0,0.0,0.0,0.0,0.0,0.0,0.0,0.0,0.0,0.0,0.0,0.0,0.0,0.0,0.0,0.0,0.0,0.0,0.0,0.0,0.0,0.0,0.0,0.0,0.0,0.0,0.0,0.0,0.0,0.0,0.0,0.0,0.0,0.0,0.0,0.0,0.0,0.0,0.0,0.0,0.0,0.0,0.0,0.0,0.0,0.0,0.0,0.0,0.0,0.0,-0.0584,-0.1556,-0.2932,-0.3986,-0.5143,-0.6933,-0.7455,-0.7695,-0.8136,-0.8465,-0.8679,-0.8686,-0.8815,-0.8871,-0.8875,-0.9052,-0.921,-0.921,-0.9344,-0.9337,-0.9238,-0.9039,-0.8838,-0.8737,-0.8581,-0.8545,0.0,-0.8792,-0.9459,-1.0884,-1.2446,-1.3965,-1.531,-1.6823,-1.7582,-1.7582,-1.7582,-1.7582,-1.7582,-1.7582,-1.7582,-1.7582,-1.7582,-1.7582,-1.7582,-1.7582,-1.7481,-1.7213,-1.7206,-1.7038,-1.6714,-1.6707,-1.67,-1.6693,-1.6693,-1.6513,-1.6259,-1.6259,-1.6079,-1.5784,0.0,0.0,0.0,0.0,0.0,0.0,0.0,0.0,0.0,0.0,0.0,0.0,0.0,0.0,0.0,0.0,0.0,0.0,0.0,0.0,0.0,0.0,0.0,0.0,0.0,0.0,0.0,0.0,0.0,0.0,0.0,0.0,0.0,0.0,0.0,0.0,0.0,0.0,0.0,0.0,0.0,0.0,0.0,0.0,0.0,0.0,0.0,0.0,0.0,0.0,0.0,0.0,0.0,0.0,0.0,0.0,-0.0849,-0.2006,-0.32,-0.4504,-0.5891,-0.7303,-0.7926,-0.8252,-0.8506,-0.8716,-0.8832,-0.873,-0.8594,-0.8462,-0.8308,-0.8381,-0.8448,-0.8603,-0.8862,-0.9035,-0.8879,-0.8906,-0.8808,-0.8462,-0.8374,0.0,0.0,0.0,0.0,-0.9391,-1.0832,-1.2359,-1.3901,-1.5364,-1.6605,-1.7582,-1.7582,-1.7582,-1.7582,-1.7582,-1.7582,-1.7582,-1.7582,-1.7582,-1.7582,-1.7582,-1.7528,-1.7481,-1.7286,-1.7146,-1.7018,-1.658,-1.6533,-1.6687,-1.6493,-1.6359,-1.6321,-1.6321,-1.6086,-1.5784,0.0,0.0,0.0,0.0,0.0,0.0,0.0,0.0,0.0,0.0,0.0,0.0,0.0,0.0,0.0,0.0,0.0,0.0,0.0,0.0,0.0,0.0,0.0,0.0,0.0,0.0,0.0,0.0,0.0,0.0,0.0,0.0,0.0,0.0,0.0,0.0,0.0,0.0,0.0,0.0,0.0,0.0,0.0,0.0,0.0,0.0,0.0,0.0,0.0,0.0,0.0,0.0,0.0,0.0,0.0,0.0,-0.061,-0.1557,-0.2698,-0.416,-0.5667,-0.7012,-0.7982,-0.8604,-0.8757,-0.8825,-0.8801,-0.8594,-0.8357,-0.8109,-0.7848,-0.7801,-0.7851,-0.8004,-0.8272,-0.8482,-0.8543,-0.8591,-0.855,-0.8367,-0.8354,-0.8252,0.0,0.0,0.0,-0.8621,-1.0108,-1.1774,-1.3376,-1.4826,-1.6313,-1.7696,-1.7749,-1.7695,-1.7582,-1.7582,-1.7582,-1.7582,-1.7582,-1.7582,-1.7582,-1.7582,-1.7522,-1.7467,-1.728,-1.7139,-1.7012,-1.6587,-1.6533,-1.67,-1.662,-1.6509,-1.6335,-1.6386,-1.6172,-1.5784,0.0,0.0,0.0,0.0,0.0,0.0,0.0,0.0,0.0,0.0,0.0,0.0,0.0,0.0,0.0,0.0,0.0,0.0,0.0,0.0,0.0,0.0,0.0,0.0,0.0,0.0,0.0,0.0,0.0,0.0,0.0,0.0,0.0,0.0,0.0,0.0,0.0,0.0,0.0,0.0,0.0,0.0,0.0,0.0,0.0,0.0,0.0,0.0,0.0,0.0,0.0,0.0,0.0,0.0,0.0,0.0,-0.0038,-0.0368,-0.1663,-0.3102,-0.4549,-0.603,-0.7519,-0.8649,-0.8731,-0.8747,-0.8604,-0.8306,-0.8106,-0.7803,0.0,0.0,-0.74,-0.7563,-0.7614,-0.7784,-0.8272,-0.817,-0.8184,0.0,0.0,0.0,0.0,0.0,0.0,-0.8516,0.0,-1.1866,-1.3497,-1.5105,-1.6599,-1.7853,-1.7941,-1.7903,-1.7609,-1.7589,-1.7589,-1.7609,-1.7589,-1.7582,-1.7582,-1.7582,-1.7481,-1.7226,-1.7226,-1.7065,-1.6747,-1.6734,-1.6727,-1.6754,-1.7072,-1.6831,-1.6355,-1.6587,-1.6319,-1.5784,0.0,0.0,0.0,0.0,0.0,0.0,0.0,0.0,0.0,0.0,0.0,0.0,0.0,0.0,0.0,0.0,0.0,0.0,0.0,0.0,0.0,0.0,0.0,0.0,0.0,0.0,0.0,0.0,0.0,0.0,0.0,0.0,0.0,0.0,0.0,0.0,0.0,0.0,0.0,0.0,0.0,0.0,0.0,0.0,0.0,0.0,0.0,0.0,0.0,0.0,0.0,0.0,0.0,0.0,0.0,0.0,-0.0711,-0.1607,-0.2016,-0.3136,-0.4304,-0.4898,-0.6104,-0.7196,-0.7136,-0.7765,-0.8296,-0.7991,-0.7546,-0.7098,-0.6915,0.0,0.0,-0.7387,-0.7807,0.0,-0.8397,-0.8591,0.0,-0.8499,0.0,-0.8611,-0.8648,-0.8757,0.0,0.0,-0.9314,-1.0249,-1.1964,-1.3613,-1.5092,-1.6555,-1.7489,-1.7955,-1.7876,-1.7695,-1.7702,-1.7923,-1.7695,-1.7582,-1.7582,-1.7582,-1.7542,-1.7521,-1.7521,-1.7428,-1.7341,-1.7128,-1.7085,-1.7072,-1.6874,-1.6593,-1.6328,-1.6359,-1.6152,-1.5784,0.0,0.0,0.0,0.0,0.0,0.0,0.0,0.0,0.0,0.0,0.0,0.0,0.0,0.0,0.0,0.0,0.0,0.0,0.0,0.0,0.0,0.0,0.0,0.0,0.0,0.0,0.0,0.0,0.0,0.0,0.0,0.0,0.0,0.0,0.0,0.0,0.0,0.0,0.0,0.0,0.0,0.0,0.0,0.0,0.0,0.0,0.0,0.0,0.0,0.0,0.0,0.0,0.0,0.0,0.0,0.0,-0.0546,-0.1122,-0.1232,-0.2248,-0.3373,-0.3489,-0.4636,-0.5696,-0.5615,-0.639,-0.7043,-0.6681,-0.6655,-0.6661,-0.6447,-0.6532,-0.6756,0.0,0.0,0.0,-0.8323,-0.8479,-0.8601,0.0,-0.8737,0.0,-0.8984,-0.9022,-0.912,0.0,-0.9279,-0.9925,-1.1649,-1.261,-1.4117,-1.6198,-1.6968,-1.7627,-1.8189,-1.7936,-1.7876,-1.7989,-1.7736,-1.7582,-1.7582,-1.7582,-1.7582,-1.7582,-1.7582,-1.7582,-1.7569,-1.746,-1.732,-1.7199,-1.7108,-1.6754,-1.6286,-1.642,-1.6192,-1.5784,0.0,0.0,0.0,0.0,0.0,0.0,0.0,0.0,0.0,0.0,0.0,0.0,0.0,0.0,0.0,0.0,0.0,0.0,0.0,0.0,0.0,0.0,0.0,0.0,0.0,0.0,0.0,0.0,0.0,0.0,0.0,0.0,0.0,0.0,0.0,0.0,0.0,0.0,0.0,0.0,0.0,0.0,0.0,0.0,0.0,0.0,0.0,0.0,0.0,0.0,0.0,0.0,0.0,0.0,0.0,0.0,0.0,0.0,0.0,-0.0956,-0.1918,-0.188,-0.3068,-0.4186,-0.4147,-0.4781,-0.5287,-0.5102,-0.5701,-0.6175,-0.5849,-0.6093,-0.6394,-0.6669,0.0,-0.7316,-0.8177,-0.8201,-0.8377,-0.9101,-0.8913,-0.893,-0.934,-0.9337,-0.9334,-0.9615,-0.9639,-1.022,-1.1618,-1.2005,-1.3428,-1.612,-1.6402,-1.7055,-1.8203,-1.8141,-1.8049,-1.8049,-1.7789,-1.7622,-1.7582,-1.7582,-1.7582,-1.7582,-1.7582,-1.7582,-1.7582,-1.7582,-1.7467,-1.7226,-1.7434,-1.6981,-1.6299,-1.6506,-1.6266,-1.5784,0.0,0.0,0.0,0.0,0.0,0.0,0.0,0.0,0.0,0.0,0.0,0.0,0.0,0.0,0.0,0.0,0.0,0.0,0.0,0.0,0.0,0.0,0.0,0.0,0.0,0.0,0.0,0.0,0.0,0.0,0.0,0.0,0.0,0.0,0.0,0.0,0.0,0.0,0.0,0.0,0.0,0.0,0.0,0.0,0.0,0.0,0.0,0.0,0.0,0.0,0.0,0.0,0.0,0.0,0.0,0.0,0.0,0.0,0.0,-0.0173,-0.0406,-0.0396,-0.1496,-0.2564,-0.2452,-0.3305,0.0,-0.4832,-0.4991,-0.4944,-0.4787,-0.5699,-0.6335,-0.5894,-0.6769,-0.7709,-0.8353,-0.853,-0.8689,0.0,-0.9035,-0.9214,-0.9361,-0.9469,0.0,0.0,-0.9785,-0.9902,-1.0197,-1.1483,-1.2953,-1.455,-1.5821,-1.6614,-1.6864,-1.7869,-1.841,-1.841,-1.811,-1.7829,-1.7582,-1.7582,-1.7582,-1.7582,-1.7582,0.0,-1.7582,-1.7582,-1.7467,-1.7186,-1.6934,-1.662,-1.6253,-1.6052,-1.5871,-1.5784,0.0,0.0,0.0,0.0,0.0,0.0,0.0,0.0,0.0,0.0,0.391,0.3762,0.0,0.0,0.0,0.0,0.0,0.0,0.0,0.0,0.0,0.0,0.0,0.0,0.0,0.0,0.1507,0.1146,0.0,0.0,0.0,0.1146,0.1146,0.0,0.0,0.0,0.0,0.0,0.0,0.0,0.0,0.0,0.0,0.0,0.0,0.0,0.0,0.0,0.0,0.0,0.032,0.0,0.0,0.0,0.0,0.0,0.0,0.0,0.0,0.0,0.0,0.0,-0.0546,-0.1024,-0.0977,-0.1771,-0.2579,-0.296,-0.3433,-0.376,-0.3674,-0.4305,-0.4995,-0.5432,-0.5931,-0.6743,-0.8042,-0.8245,-0.8414,-0.8828,-0.9066,-0.9303,-0.9479,-0.9564,-0.9666,-0.9812,-0.9822,-0.9822,-0.9822,-1.1231,-1.2377,-1.3038,-1.5355,-1.6574,-1.6574,-1.8025,-1.8637,-1.849,-1.8135,-1.7883,-1.7582,-1.7582,-1.7582,-1.7582,-1.7582,-1.7582,-1.7582,-1.7582,-1.7467,-1.7186,-1.7045,-1.6667,-1.6301,-1.6112,-1.5965,-1.5784,0.0,0.0,0.0,0.0,0.0,0.0,0.0,0.3792,0.386,0.4018,0.4014,0.395,0.3853,0.3812,0.0,0.0,0.0,0.0,0.0,0.0,0.0,0.0,0.0,0.0,0.0,0.0,0.0,0.2202,0.2202,0.0,0.0,0.0,0.0,0.0,0.2369,0.2426,0.0,0.0,0.0,0.0,0.0,0.0,0.0,0.0,0.0,0.0,0.0,0.0,0.0,0.0,0.0723,0.0221,0.0043,0.0,0.0,0.0,0.0,0.0,0.0,0.0,0.0,0.0,0.0,0.0,0.0,-0.0533,-0.1066,-0.1268,-0.2017,-0.2621,-0.2561,-0.2938,-0.357,0.0,-0.4969,-0.5758,-0.7381,-0.7796,-0.8167,-0.8801,-0.9096,0.0,-0.9585,-0.9639,0.0,-0.9812,-0.9822,-0.9822,-0.9822,-1.089,-1.1524,-1.1524,-1.4263,-1.5894,-1.6247,-1.7721,-1.8518,-1.8577,-1.8283,-1.7976,-1.7669,-1.7609,-1.7582,-1.7582,-1.7582,-1.7582,-1.7582,-1.7582,-1.7467,-1.7192,-1.7132,-1.6784,-1.6315,-1.6206,-1.6032,-1.5784,0.0,0.0,0.0,0.0,0.0,0.0,0.0,0.3792,0.3897,0.4137,0.4082,0.3991,0.3974,0.3873,0.0,0.0,0.0,0.0,0.0,0.0,0.0,0.0,0.0,0.0,0.0,0.0,0.0,0.2202,0.2202,0.0,0.0,0.0,0.0,0.0,0.0,0.3204,0.3262,0.0,0.0,0.0,0.0,0.0,0.0,0.0,0.0,0.0,0.0,0.0,0.0,0.0,0.0,0.0895,0.0226,0.0,0.0,0.0,0.0,0.0,0.0,0.0,0.0,0.0,0.0,0.0,0.0,-0.008,-0.0334,-0.113,-0.1511,-0.1657,-0.1487,-0.2346,-0.2947,-0.2412,0.0,-0.5606,-0.6345,-0.7509,-0.8404,-0.8828,0.0,0.0,-0.9595,-0.9727,-0.9805,-0.9819,-0.9822,-0.9822,-0.9822,-0.9926,-0.998,-0.998,-1.1711,-1.3319,-1.4806,-1.6399,-1.7749,-1.8878,-1.8591,-1.8283,-1.7963,-1.7702,-1.7582,-1.7582,-1.7582,-1.7582,0.0,-1.7582,-1.7467,-1.7172,-1.6854,-1.6553,-1.6239,-1.5972,-1.5852,-1.5784,0.0,0.0,0.0,0.0,0.0,0.0,0.0,0.3792,0.39,0.4157,0.4143,0.4132,0.4132,0.3994,0.0,0.0,0.0,0.0,0.0,0.0,0.0,0.0,0.0,0.0,0.0,0.0,0.3873,0.3594,0.3594,0.0,0.0,0.0,0.0,0.0,0.0,0.4015,0.4042,0.4377,0.0,0.0,0.0,0.0,0.0,0.0,0.0,0.0,0.0,0.0,0.286,0.2539,0.2114,0.0,0.0888,0.0677,0.0,0.0,0.0,0.0,0.0,0.0,0.0,0.0,0.0,0.0,0.0,0.0,-0.0108,-0.0451,-0.0591,-0.0603,-0.0517,-0.0901,-0.1386,-0.1791,0.0,0.0,-0.5484,-0.6227,-0.7047,-0.8396,-0.8879,0.0,0.0,0.0,-0.9822,-0.9822,-0.9822,-0.9822,-0.9822,-0.9741,-0.9693,-0.9693,-1.1224,-1.2399,-1.3044,-1.5643,-1.7135,-1.745,-1.8164,-1.833,-1.7969,-1.7722,-1.7582,-1.7582,-1.7582,-1.7582,0.0,-1.7447,-1.7199,-1.6854,-1.656,-1.6266,-1.5992,-1.5872,-1.5784,-1.5784,0.0,0.0,0.0,0.0,0.0,0.0,0.3771,0.3792,0.3883,0.4119,0.413,0.413,0.413,0.4018,0.387,0.3682,0.0,0.0,0.0,0.0,0.0,0.0,0.0,0.0,0.0,0.0,0.4491,0.4491,0.4491,0.4491,0.0,0.0,0.4491,0.4491,0.0,0.0,0.0,0.0,0.0,0.0,0.0,0.0,0.0,0.0,0.0,0.0,0.0,0.0,0.0,0.0,0.0,0.0,0.0,0.0,0.0,0.0,0.0,0.0,0.0,0.0,0.0,0.0,0.0,0.0,0.0,0.0,0.0,0.0,0.0,0.0,0.0,0.0,-0.0268,0.0,0.0,-0.2119,-0.4114,-0.5056,-0.6047,-0.7557,0.0,-0.8981,0.0,-0.9686,-0.9822,-0.9822,-0.9822,-0.9822,-0.9822,-0.9727,-0.9652,-0.9612,-1.0762,-1.1575,-1.1988,-1.436,-1.5658,-1.5879,-1.7185,-1.765,-1.736,-1.7556,-1.7582,-1.7582,-1.7582,-1.7582,0.0,-1.732,-1.6974,-1.6673,-1.6386,-1.6092,-1.5784,-1.5784,-1.5784,-1.5791,0.0,0.0,0.0,0.0,0.0,0.0,0.0,0.3792,0.3846,0.3977,0.3998,0.3998,0.3998,0.3887,0.3792,0.3788,0.0,0.0,0.0,0.0,0.0,0.0,0.0,0.0,0.0,0.0,0.0,0.4491,0.4491,0.4491,0.4491,0.4491,0.4491,0.4491,0.0,0.0,0.0,0.0,0.0,0.0,0.0,0.0,0.0,0.0,0.0,0.0,0.0,0.0,0.0,0.0,0.0,0.0,0.0,0.1677,0.095,0.0,0.0,0.0,0.0,0.0,0.0,0.0,0.0,0.0,0.0,0.0,0.0,0.0,0.0,0.0,0.0,0.0,0.0,0.0,0.0,0.0,-0.2031,-0.4199,-0.5915,0.0,0.0,-0.8662,-0.9169,-0.9561,-0.9822,-0.9822,-0.9822,0.0,-0.9822,-0.9819,-0.9754,-0.9615,-0.9744,-1.0519,-1.1992,-1.2179,-1.3008,-1.4434,-1.558,-1.6063,-1.5963,-1.7117,-1.7582,-1.7582,-1.7582,-1.7582,0.0,-1.732,-1.6974,-1.6673,-1.6386,-1.6092,-1.5784,-1.5784,-1.5784,-1.5872,0.0,0.0,0.0,0.0,0.0,0.0,0.0,0.3668,0.37,0.3843,0.3863,0.3904,0.3984,0.3883,0.3792,0.3792,0.0,0.0,0.0,0.0,0.0,0.0,0.0,0.0,0.0,0.0,0.0,0.4491,0.4491,0.4491,0.4491,0.4491,0.4491,0.4491,0.4491,0.4491,0.0,0.0,0.0,0.0,0.0,0.0,0.0,0.0,0.0,0.0,0.0,0.0,0.0,0.0,0.0,0.0,0.0,0.0,0.0,0.1732,0.0775,0.0,0.0,0.0,0.0,0.0,0.0,0.0,0.0,0.0,0.0,0.0,0.0,0.0,0.0,0.0,0.0,0.0,-0.0326,0.0,0.0,0.0,0.0,-0.63,-0.818,-0.9452,0.0,0.0,-0.9822,-0.9822,-0.9822,-0.9822,-0.9822,-0.9822,-0.9754,-0.9615,-0.9747,-0.9988,-1.0369,-1.1465,-1.2283,-1.2745,-1.3933,-1.4994,-1.5908,-1.603,-1.6658,-1.7569,-1.7427,-1.734,-1.73,-1.6804,-1.6543,-1.638,-1.6086,-1.5912,-1.5804,-1.6059,-1.6132,-1.6172,0.0,0.0,0.0,0.0,0.0,0.0,0.0,0.3604,0.3634,0.3723,0.3737,0.3768,0.3917,0.3799,0.3757,0.3785,0.0,0.0,0.0,0.0,0.0,0.0,0.0,0.0,0.0,0.0,0.4491,0.4491,0.4491,0.4491,0.4491,0.4491,0.4491,0.4491,0.4491,0.4491,0.0,0.0,0.0,0.0,0.0,0.0,0.4491,0.0,0.0,0.0,0.0,0.0,0.0,0.0,0.0,0.0,0.0,0.0,0.0,0.0,0.1776,0.0782,0.0488,0.0201,0.0,0.0,0.0,0.0,0.0,0.0,0.0,0.0,0.0,0.0,0.0,0.0,0.0,0.0,0.0,-0.0249,0.0,0.0,0.0,-0.6975,0.0,0.0,0.0,-0.9754,-0.9822,-0.9822,-0.9822,-0.9822,-0.9822,-0.9822,-0.973,-0.953,-0.9717,-0.9727,-0.9523,-1.0568,-1.1087,-1.1016,-1.2251,-1.3548,-1.4941,-1.5273,-1.6227,-1.7569,-1.7326,-1.7199,0.0,-1.6563,-1.6321,-1.6295,-1.5945,-1.5899,-1.6005,-1.6079,-1.6246,-1.646,0.0,0.0,0.0,0.0,0.0,0.0,0.0,0.0,0.0,0.0,0.3604,0.3651,0.3761,0.3682,0.3655,0.0,0.0,0.0,0.0,0.0,0.0,0.0,0.0,0.0,0.0,0.4372,0.4474,0.4474,0.4484,0.4491,0.4491,0.4491,0.4491,0.4491,0.4491,0.4491,0.4491,0.4491,0.4491,0.4491,0.4491,0.4491,0.0,0.0,0.0,0.0,0.0,0.0,0.0,0.0,0.0,0.0,0.0,0.0,0.0,0.0,0.0,0.0,0.0,0.0695,0.008,0.0,0.0,0.0,0.0,0.0,0.0,0.0,0.0,0.0,0.0,0.0,0.0,0.0,0.0,0.0,0.0,-0.2351,0.0,0.0,-0.8865,0.0,-0.9367,-0.9649,-0.9822,-0.9822,-0.9822,-0.9822,-0.9822,-0.9812,-0.9676,-0.9391,-0.9646,-0.9652,-0.9367,-0.9507,-0.9507,-0.9419,-1.0549,-1.1815,-1.321,-1.4609,-1.6056,0.0,-1.7241,-1.7159,-1.7092,-1.6522,-1.6239,-1.6213,-1.5939,-1.6012,-1.6246,-1.5985,-1.6246,-1.674,0.0,0.0,0.0,0.0,0.0,0.0,0.0,0.0,0.0,0.0,0.0,0.3614,0.3648,0.3621,0.0,0.0,0.0,0.0,0.0,0.0,0.0,0.0,0.0,0.0,0.0,0.4193,0.4271,0.4271,0.4436,0.4491,0.4491,0.4491,0.4491,0.4491,0.4491,0.4491,0.4491,0.4491,0.4491,0.4491,0.4491,0.4491,0.0,0.0,0.0,0.0,0.4491,0.4491,0.0,0.0,0.0,0.0,0.0,0.0,0.0,0.0,0.3775,0.3237,0.3066,0.0,0.0701,0.0139,0.0,0.0,0.0,0.0,0.0,0.0,0.0,0.0,0.0,0.0,0.0,0.0,0.0,0.0,0.0,-0.271,0.0,-0.6928,-0.8621,-0.9588,-0.9398,-0.9649,-0.9822,-0.9822,-0.9822,-0.9822,-0.9822,-0.972,-0.9574,-0.9388,-0.9449,-0.9395,-0.9265,-0.9299,-0.9299,-0.9262,-0.9388,-1.0225,-1.1647,-1.3156,-1.4456,-1.564,-1.6463,-1.668,-1.6502,-1.6086,-1.5932,-1.5925,-1.5804,-1.6012,-1.6342,-1.6446,-1.6727,-1.7099,0.0,0.0,0.0,0.0,0.0,0.0,0.0,0.0,0.0,0.0,0.0,0.0,0.0,0.0,0.0,0.0,0.0,0.0,0.0,0.0,0.0,0.0,0.0,0.0,0.0,0.4109,0.4197,0.4197,0.4392,0.4491,0.4491,0.4491,0.4491,0.4491,0.4491,0.4491,0.4491,0.4491,0.4491,0.4491,0.4491,0.0,0.0,0.0,0.0,0.0,0.4491,0.4491,0.0,0.4491,0.4491,0.4491,0.0,0.0,0.0,0.0,0.4311,0.4028,0.3698,0.2413,0.1098,0.07,0.0306,0.0,0.0,0.0,0.0,0.0,0.0,0.0,0.0,0.0,0.0,0.0,0.0,0.0,0.0,0.0,-0.4575,-0.6636,-0.7971,-0.8947,0.0,-0.9727,-0.9822,-0.9822,-0.9822,-0.9791,-0.9727,-0.9652,-0.9507,-0.934,-0.9333,-0.9296,-0.921,-0.921,-0.921,-0.9207,-0.9008,-0.9699,-1.1105,-1.1914,-1.2929,-1.4121,-1.5224,-1.522,-1.4605,-1.546,-1.5517,-1.5175,-1.5634,-1.6092,-1.646,-1.6346,-1.6573,-1.6927,0.0,0.0,0.0,0.0,0.0,0.0,0.0,0.0,0.0,0.0,0.0,0.0,0.0,0.0,0.0,0.0,0.0,0.0,0.0,0.0,0.0,0.0,0.0,0.3768,0.3792,0.4045,0.4174,0.4197,0.4416,0.4511,0.4491,0.4515,0.4511,0.4491,0.4491,0.4491,0.4491,0.4491,0.4491,0.4491,0.4491,0.0,0.0,0.0,0.0,0.0,0.0,0.0,0.0,0.4491,0.4491,0.4491,0.4491,0.0,0.0,0.0,0.0,0.0,0.3964,0.2808,0.1659,0.1376,0.0652,0.0,0.0,0.0,0.0,0.0,0.0,0.0,0.0,0.0,0.0,0.0,0.0,0.0,-0.1706,-0.2206,-0.3441,-0.6034,-0.6935,0.0,-0.9245,-0.961,-0.9812,-0.9791,-0.9788,-0.9727,-0.9585,-0.9554,-0.9422,-0.9217,-0.9187,-0.9166,-0.9142,-0.9166,-0.9176,-0.9176,-0.8998,-0.9523,-1.074,-1.0954,-1.1635,-1.2653,-1.3704,0.0,-1.2461,-1.4419,-1.4697,-1.4031,-1.4846,-1.5564,-1.6019,-1.568,-1.594,-1.6354,0.0,0.0,0.0,0.0,0.0,0.0,0.0,0.0,0.0,0.0,0.0,0.0,0.0,0.0,0.0,0.0,0.0,0.0,0.0,0.0,0.0,0.0,0.0,0.3692,0.3788,0.394,0.4092,0.4197,0.4521,0.4617,0.4494,0.4624,0.4614,0.4491,0.4491,0.4491,0.4491,0.4491,0.4491,0.4491,0.4491,0.0,0.0,0.0,0.0,0.0,0.0,0.0,0.0,0.4491,0.4491,0.4491,0.4491,0.0,0.0,0.0,0.0,0.0,0.4729,0.4254,0.337,0.1695,0.0652,0.0,0.0,0.0,0.0,0.0,0.0,0.0,0.0,0.0,0.0,0.0,0.0,-0.0099,0.0,0.0,-0.2558,-0.275,0.0,-0.737,-0.7333,-0.8825,-0.9771,-0.9652,-0.9642,-0.9578,-0.9425,-0.935,-0.9258,-0.921,-0.9035,-0.891,-0.8781,-0.8906,-0.8971,-0.8971,-0.8895,-0.8979,-0.9118,-1.0337,-1.0832,-1.07,0.0,-1.2451,-1.1996,-1.2349,-1.2403,-1.2283,-1.2446,-1.2741,-1.317,-1.4181,-1.4793,-1.5067,0.0,0.0,0.0,0.0,0.0,0.0,0.0,0.0,0.0,0.0,0.0,0.0,0.0,0.0,0.0,0.0,0.0,0.0,0.0,0.0,0.0,0.0,0.3716,0.3747,0.3788,0.3998,0.419,0.4365,0.4582,0.4653,0.4614,0.46,0.4556,0.4491,0.4491,0.4491,0.4491,0.4491,0.4491,0.4491,0.0,0.0,0.0,0.0,0.0,0.0,0.0,0.0,0.0,0.0,0.4491,0.4491,0.4491,0.0,0.0,0.0,0.0,0.0,0.4887,0.455,0.3848,0.2421,0.1451,0.0728,0.0144,0.0,0.0,0.0,0.0,0.0,0.0,0.0,0.0,0.0,0.0,0.0,0.0,-0.0667,-0.142,0.0,0.0,-0.5367,-0.6859,-0.7836,-0.8657,-0.9431,-0.9486,-0.9418,-0.9323,-0.9248,-0.9135,-0.892,-0.8849,-0.8743,-0.8587,-0.8655,-0.8693,-0.8693,-0.8693,-0.8655,-0.8641,-0.9319,-0.9447,-0.9267,0.0,-1.0662,-0.9899,-1.1312,-1.1575,-1.1123,-1.1702,-1.2082,-1.2463,-1.2827,-1.3095,-1.3221,0.0,0.0,0.0,0.0,0.0,0.0,0.0,0.0,0.0,0.0,0.0,0.0,0.0,0.0,0.0,0.0,0.0,0.0,0.0,0.0,0.3703,0.3785,0.386,0.3897,0.3897,0.4136,0.4351,0.4491,0.4653,0.4724,0.4687,0.4563,0.4491,0.4491,0.4491,0.4491,0.4491,0.4491,0.4491,0.4491,0.0,0.0,0.0,0.0,0.0,0.0,0.0,0.0,0.0,0.0,0.0,0.0,0.0,0.0,0.0,0.4542,0.4731,0.4938,0.4938,0.4752,0.4288,0.3269,0.0,0.0,0.0,0.0,0.0,0.0,0.0,0.0,0.0,0.0,0.0,0.0,0.0,0.0,0.0,0.0,-0.0454,-0.1785,-0.2249,-0.3415,-0.5795,-0.6679,-0.7605,-0.8746,-0.915,-0.9262,-0.911,-0.9125,-0.8947,-0.8716,-0.8676,-0.8584,-0.8435,-0.8431,-0.8448,-0.8482,-0.8482,-0.8465,-0.8431,-0.8431,-0.8353,-0.8265,-0.9256,-0.9033,-0.8137,-1.0141,-1.0524,-0.9895,-1.069,-1.1363,-1.1835,-1.157,-1.1463,-1.1463,0.0,0.0,0.0,0.0,0.0,0.0,0.0,0.0,0.0,0.0,0.0,0.0,0.0,0.0,0.0,0.0,0.0,0.0,0.0,0.0,0.3782,0.3792,0.4038,0.4164,0.4164,0.4368,0.4481,0.4491,0.4758,0.483,0.4687,0.4563,0.4491,0.4491,0.4491,0.4491,0.4491,0.4491,0.4491,0.4491,0.4491,0.0,0.0,0.0,0.0,0.0,0.0,0.0,0.0,0.0,0.0,0.0,0.0,0.0,0.4674,0.4674,0.4884,0.5083,0.5083,0.5289,0.5255,0.4157,0.2746,0.0,0.024,0.0,0.0,0.0,0.0,0.0,0.0,0.0,0.0,0.0,0.0,0.0,0.0,0.0,-0.0058,-0.0176,-0.1526,-0.2581,-0.2818,-0.5393,-0.7104,-0.7109,-0.842,-0.9106,-0.8905,-0.8818,-0.873,-0.871,-0.8574,-0.8428,-0.8337,-0.8337,-0.835,-0.8482,-0.8482,-0.8414,-0.8337,-0.8337,-0.8201,-0.8005,-0.8101,-0.8098,-0.8041,-0.8187,-0.8244,-0.8201,-0.824,-0.9076,-1.0162,-1.0149,-1.0145,-1.0145,0.0,0.0,0.0,0.0,0.0,0.0,0.0,0.0,0.0,0.0,0.0,0.0,0.0,0.0,0.0,0.0,0.0,0.0,0.0,0.0,0.3832,0.3927,0.4109,0.4264,0.4379,0.446,0.4583,0.4748,0.4765,0.4748,0.4687,0.4563,0.4491,0.4491,0.4491,0.4491,0.4491,0.4491,0.4491,0.4491,0.4491,0.4491,0.0,0.0,0.0,0.0,0.0,0.0,0.0,0.0,0.4491,0.4491,0.0,0.0,0.4597,0.4663,0.4836,0.4985,0.5073,0.4913,0.4496,0.3459,0.2401,0.0,0.0,0.0409,0.0,0.0,0.0,0.0,0.0,0.0,0.0,0.0,0.0,0.0,0.0,0.0,0.0,0.0,-0.058,-0.1327,-0.2224,-0.4211,-0.5818,-0.6609,-0.8042,-0.8815,-0.8662,-0.8601,-0.8526,-0.8438,-0.8381,-0.8279,-0.813,-0.8126,-0.8153,-0.8208,-0.8208,-0.818,-0.8126,-0.8126,-0.8096,-0.7988,-0.7988,-0.7988,-0.7988,-0.7988,-0.7988,-0.7988,-0.7988,-0.8333,-0.8775,-0.8775,-0.8775,-0.8775,0.0,0.0,0.0,0.0,0.0,0.0,0.0,0.0,0.0,0.0,0.0,0.0,0.0,0.0,0.0,0.0,0.0,0.0,0.0,0.0,0.3957,0.4062,0.421,0.4385,0.4559,0.4515,0.4593,0.4775,0.467,0.4648,0.4644,0.4539,0.4491,0.4491,0.4491,0.4491,0.4491,0.4491,0.4491,0.4491,0.4491,0.4491,0.0,0.0,0.0,0.0,0.0,0.0,0.0,0.0,0.4491,0.0,0.0,0.0,0.0,0.0,0.4867,0.4923,0.4807,0.4439,0.3908,0.294,0.0,0.0,0.1333,0.0638,0.0,0.0,0.0,0.0,0.0,0.0,0.0,0.0,0.0,0.0,0.0,0.0,0.0,0.0,0.0,-0.0397,-0.14,-0.2893,-0.4304,-0.5665,-0.7147,-0.8162,-0.8486,-0.8438,-0.837,-0.8327,-0.8221,-0.8147,-0.7992,-0.7988,-0.7988,-0.7988,-0.7988,-0.7988,-0.7988,-0.7988,-0.7988,-0.7988,-0.7988,-0.7988,-0.7988,-0.7988,-0.7988,-0.7988,-0.7988,-0.7988,-0.7988,-0.7988,-0.7988,-0.7988,0.0,0.0,0.0,0.0,0.0,0.0,0.0,0.0,0.0,0.0,0.0,0.0,0.0,0.0,0.0,0.0,0.0,0.0,0.0,0.4051,0.4197,0.4197,0.4385,0.4559,0.4684,0.4566,0.4491,0.4491,0.4491,0.4491,0.4491,0.4491,0.4491,0.4491,0.4491,0.4491,0.4491,0.4491,0.4491,0.4491,0.4491,0.4491,0.4491,0.0,0.0,0.0,0.0,0.0,0.0,0.0,0.4491,0.4491,0.0,0.0,0.0,0.0,0.4988,0.4935,0.4216,0.3995,0.3767,0.2933,0.0,0.0,0.1291,0.0629,0.0,0.0,0.0,0.0,0.0,0.0,0.0,0.0,0.0,0.0,0.0,0.0,0.0,0.0,0.0,0.0,0.0,-0.1324,-0.2726,-0.4083,-0.5621,-0.71,-0.8426,-0.8343,-0.832,-0.832,-0.8119,-0.7988,-0.7988,-0.7988,-0.7988,-0.7988,-0.7988,-0.7988,-0.7988,-0.7988,-0.7988,-0.7988,-0.7988,-0.7988,-0.7988,-0.7988,-0.7988,-0.7988,-0.7988,-0.7988,-0.7988,-0.7988,-0.7988,-0.7988,0.0,0.0,0.0,0.0,0.0,0.0,0.0,0.0,0.0,0.0,0.0,0.0,0.0,0.0,0.0,0.0,0.0,0.0,0.0,0.4051,0.4197,0.4197,0.4385,0.4511,0.4556,0.4511,0.4491,0.4491,0.4491,0.4491,0.4491,0.4491,0.4491,0.4491,0.4491,0.4491,0.4491,0.4491,0.4491,0.4491,0.4491,0.4491,0.4491,0.0,0.0,0.0,0.0,0.0,0.0,0.0,0.0,0.0,0.0,0.0,0.0,0.4874,0.4988,0.5098,0.5018,0.4052,0.3027,0.2753,0.0,0.0,0.0,0.0183,0.0,0.0,0.0,0.0,0.0,0.0,0.0,0.0,0.0,0.0,0.0,0.0,0.0,0.0,0.0,0.0,0.0,-0.1355,-0.2345,-0.2629,-0.4956,-0.6465,-0.6743,-0.7623,-0.8109,-0.8109,-0.8012,-0.7988,-0.7988,-0.7988,-0.7988,-0.7988,-0.7988,-0.7988,-0.7988,-0.7988,-0.7988,-0.7988,-0.7988,-0.7988,-0.7988,-0.7988,-0.7988,-0.7988,-0.7988,-0.7988,-0.7988,-0.7988,-0.7988,-0.7988,0.0,0.0,0.0,0.0,0.0,0.0,0.0,0.0,0.0,0.0,0.0,0.0,0.0,0.0,0.0,0.0,0.0,0.0,0.0,0.0,0.4308,0.4308,0.4443,0.4491,0.4491,0.4491,0.4491,0.4491,0.4491,0.4491,0.4491,0.4491,0.4491,0.4491,0.0,0.4491,0.4491,0.4491,0.4525,0.4583,0.4583,0.4583,0.4583,0.0,0.0,0.0,0.0,0.0,0.0,0.0,0.0,0.0,0.0,0.0,0.0,0.4911,0.4778,0.456,0.4378,0.3258,0.0,0.1695,0.0827,0.0,0.0,0.0,0.0,0.0,0.0,0.0,0.0,0.0,0.0,0.0,0.0,0.0,0.0,0.0,0.0,0.0,0.0,0.0,0.0,-0.0799,-0.152,-0.1968,-0.3591,-0.4979,-0.5932,-0.6781,-0.7437,-0.7988,-0.7988,-0.7988,-0.7988,-0.7988,-0.7988,-0.7988,-0.7988,-0.7988,-0.7988,-0.7988,-0.7988,-0.7988,-0.7988,-0.7988,-0.7988,-0.7988,-0.7988,-0.7988,-0.7988,-0.7988,-0.7988,-0.7988,-0.7988,-0.7988,0.0,0.0,0.0,0.0,0.0,0.0,0.0,0.0,0.0,0.0,0.3604,0.0,0.0,0.0,0.0,0.0,0.0,0.0,0.0,0.0,0.4491,0.4491,0.4491,0.4491,0.4491,0.4491,0.4491,0.4491,0.4491,0.4491,0.4491,0.0,0.4491,0.4491,0.0,0.4491,0.4491,0.4491,0.4573,0.467,0.4684,0.468,0.467,0.4684,0.0,0.0,0.0,0.0,0.0,0.0,0.0,0.0,0.4675,0.4707,0.4782,0.5019,0.4495,0.3679,0.2991,0.2068,0.1109,0.0322,0.0044,0.0,0.0,0.0,0.0,0.0,0.0,0.0,0.0,0.0,0.0,0.0,0.0,0.0,0.0,0.0,0.0,0.0,0.0,0.0,0.0,0.0,-0.0517,-0.1704,-0.193,-0.3116,-0.5677,-0.5929,-0.6631,-0.7939,-0.7988,-0.7988,-0.7988,-0.7988,-0.7988,-0.7988,-0.7988,-0.7988,-0.7988,-0.7988,-0.7988,-0.7988,-0.7988,-0.7988,-0.7988,-0.7988,-0.7988,-0.7988,-0.7988,-0.7988,-0.7988,-0.7988,-0.7988,-0.7988,0.0,0.0,0.0,0.0,0.0,0.0,0.0,0.0,0.0,0.0,0.0,0.0,0.0,0.0,0.0,0.0,0.0,0.0,0.0,0.0,0.4491,0.4491,0.4491,0.4491,0.4491,0.4491,0.4491,0.4491,0.4491,0.4491,0.0,0.0,0.0,0.4491,0.0,0.4491,0.4491,0.4491,0.4508,0.4549,0.4672,0.4648,0.4552,0.4675,0.4624,0.0,0.0,0.0,0.0,0.0,0.0,0.0,0.468,0.485,0.5015,0.5079,0.4561,0.3908,0.3767,0.2539,0.0,0.1067,0.0496,0.0,0.0,0.0,0.0,0.0,0.0,0.0,0.0,0.0,0.0,0.0,0.0,0.0,0.0,0.0,0.0,0.0,0.0,0.0,0.0,0.0,-0.0102,-0.0406,-0.1414,-0.2715,-0.4368,-0.5425,-0.6631,-0.7939,-0.7988,-0.7988,-0.7988,-0.7988,-0.7988,-0.7988,-0.7988,-0.7988,-0.7988,-0.7988,-0.7988,-0.7988,-0.7988,-0.7988,-0.7988,-0.7988,-0.7988,-0.7988,-0.7988,-0.7988,-0.7988,-0.7988,-0.7988,-0.7988,0.0,0.0,0.0,0.0,0.0,0.0,0.0,0.0,0.0,0.0,0.0,0.0,0.0,0.0,0.0,0.0,0.0,0.0,0.0,0.0,0.0,0.0,0.4491,0.4491,0.4491,0.4491,0.4491,0.4491,0.4491,0.0,0.0,0.0,0.0,0.4491,0.0,0.4491,0.4491,0.4491,0.4576,0.4687,0.4769,0.4752,0.4691,0.4769,0.466,0.4491,0.4491,0.0,0.0,0.0,0.0,0.0,0.0,0.0,0.5113,0.522,0.4665,0.3907,0.3496,0.0,0.0,0.0786,0.0,0.0,0.0,0.0,0.0,0.0,0.0,0.0,0.0,0.0,0.0,0.0,0.0,0.0,0.0,0.0,0.0,0.0,0.0,0.0,0.0,0.0,0.0,0.0,-0.065,-0.1887,-0.3816,-0.4571,-0.5817,-0.7731,-0.7828,-0.7828,-0.7828,-0.7828,-0.7828,-0.7831,-0.7896,-0.788,-0.7884,-0.7958,-0.7988,-0.7988,-0.7988,-0.7988,-0.7988,-0.7988,-0.7988,-0.7988,-0.7988,-0.7988,-0.7988,-0.7988,-0.7988,-0.7988,0.0,0.0,0.0,0.0,0.0,0.0,0.0,0.0,0.0,0.0,0.0,0.0,0.0,0.0,0.0,0.0,0.0,0.0,0.0,0.0,0.0,0.0,0.4491,0.4491,0.4491,0.4491,0.4491,0.4491,0.0,0.0,0.0,0.0,0.0,0.4491,0.0,0.4491,0.4491,0.4491,0.4638,0.4843,0.487,0.4863,0.4843,0.487,0.4721,0.4528,0.4528,0.4545,0.459,0.4687,0.0,0.0,0.0,0.0,0.5196,0.5358,0.4722,0.3837,0.3115,0.0,0.1105,0.0231,0.0,0.0,0.0,0.0,0.0,0.0,0.0,0.0,0.0,0.0,0.0,0.0,0.0,0.0,0.0,0.0,0.0,0.0,0.0,0.0,0.0,0.0,0.0,0.0,0.0,-0.1029,-0.3374,-0.3695,-0.4886,-0.7214,-0.7503,-0.76,-0.76,-0.76,-0.76,-0.76,-0.7719,-0.7773,-0.778,-0.7857,-0.7914,-0.7917,-0.7941,-0.7951,-0.7951,-0.7978,-0.7988,-0.7988,-0.7988,-0.7988,-0.7988,-0.7988,-0.7988,-0.7985,0.0,0.0,0.0,0.0,0.0,0.0,0.0,0.0,0.0,0.0,0.0,0.0,0.0,0.0,0.0,0.0,0.0,0.0,0.0,0.0,0.0,0.0,0.4491,0.4491,0.4491,0.4491,0.4491,0.0,0.0,0.0,0.0,0.0,0.0,0.4491,0.0,0.4491,0.4491,0.4491,0.4511,0.4563,0.4667,0.4672,0.4566,0.467,0.4697,0.466,0.466,0.4745,0.486,0.488,0.4938,0.0,0.0,0.0,0.5368,0.5388,0.4722,0.3971,0.3841,0.0,0.1102,0.0,0.0,0.0,0.0,0.0,0.0,0.0,0.0,0.0,0.0,0.0,0.0,0.0,0.0,0.0,0.0,0.0,0.0,0.0,0.0,0.0,0.0,0.0,0.0,0.0,0.0,-0.0637,-0.2152,-0.3215,-0.4505,-0.5976,-0.7073,-0.76,-0.76,-0.76,-0.76,-0.76,-0.7617,-0.7628,-0.7628,-0.7648,-0.7658,-0.7665,-0.7787,-0.7841,-0.7851,-0.7934,-0.7988,-0.7988,-0.7988,-0.7988,-0.7988,-0.7988,-0.7988,-0.7971,0.0,0.0,0.0,0.0,0.0,0.0,0.0,0.0,0.0,0.0,0.0,0.0,0.0,0.0,0.0,0.0,0.0,0.0,0.0,0.0,0.0,0.0,0.0,0.4491,0.4491,0.4491,0.4491,0.0,0.0,0.0,0.0,0.4491,0.4535,0.0,0.0,0.0,0.0,0.4528,0.4539,0.4624,0.4663,0.4679,0.4634,0.4762,0.4765,0.4701,0.4789,0.486,0.4901,0.4978,0.5049,0.5113,0.5233,0.0,0.0,0.0,0.5123,0.4681,0.4237,0.3184,0.1977,0.0,0.089,0.0727,0.0148,0.0,0.0,0.0,0.0,0.0,0.0,0.0,0.0,0.0,0.0,0.0,0.0,0.0,0.0,0.0,0.0,0.0,0.0,0.0,0.0,0.0,0.0,-0.0573,-0.1819,-0.2375,-0.3499,-0.5359,-0.605,-0.6633,-0.7224,-0.7302,-0.7387,-0.7472,-0.7383,-0.7387,-0.7468,-0.7383,-0.7438,-0.7604,-0.7665,-0.7736,-0.7818,-0.7882,-0.7914,-0.7988,-0.7988,-0.7988,-0.7988,-0.7988,-0.7934,-0.7902,0.0,0.0,0.0,0.0,0.0,0.0,0.0,0.0,0.0,0.0,0.0,0.0,0.0,0.0,0.0,0.0,0.0,0.0,0.0,0.0,0.0,0.0,0.0,0.0,0.4491,0.4491,0.0,0.0,0.0,0.0,0.4491,0.4491,0.4573,0.0,0.46,0.459,0.0,0.0,0.4593,0.4662,0.4662,0.4685,0.4704,0.4816,0.4836,0.4816,0.4901,0.4999,0.5047,0.5155,0.5189,0.5209,0.5358,0.5395,0.0,0.0,0.0,0.5259,0.0,0.0,0.311,0.2202,0.1991,0.1778,0.0,0.0,0.0946,0.0,0.1005,0.1008,0.1008,0.0454,0.0,0.0,0.0,0.0,0.0,0.0,0.0,0.0,0.0,0.0,0.0,0.0,0.0,0.0,0.0,-0.0373,-0.1302,-0.1623,-0.2657,-0.4562,-0.5101,-0.5849,-0.6886,-0.6991,-0.7143,-0.7258,-0.7143,-0.7146,-0.7255,-0.7132,-0.722,-0.7485,-0.7522,-0.76,-0.7702,-0.774,-0.7845,-0.7931,-0.7931,-0.7955,-0.7988,-0.7988,-0.7894,-0.7804,0.0,0.0,0.0,0.0,0.0,0.0,0.0,0.0,0.0,0.0,0.0,0.0,0.0,0.0,0.0,0.3105,0.0,0.0,0.0,0.0,0.0,0.0,0.0,0.0,0.0,0.0,0.0,0.0,0.0,0.0,0.4491,0.4491,0.4573,0.4691,0.468,0.4631,0.4511,0.0,0.0,0.0,0.0,0.459,0.4691,0.4701,0.487,0.5076,0.5083,0.5213,0.5375,0.5382,0.5382,0.5385,0.5392,0.5395,0.5395,0.0,0.0,0.0,0.0,0.4295,0.0,0.3238,0.3036,0.3078,0.0,0.0,0.3446,0.3559,0.3722,0.3815,0.3815,0.1711,0.0,0.0,0.0,0.0,0.0,0.0,0.0,0.0,0.0,0.0,0.0,0.0,0.0,0.0,0.0,-0.0046,-0.009,-0.1185,-0.2273,-0.3353,-0.4522,-0.5672,-0.6883,-0.6893,-0.6903,-0.691,-0.69,-0.6903,-0.6913,-0.7038,-0.7105,-0.7129,-0.7319,-0.7433,-0.745,-0.755,-0.7695,-0.7824,-0.7824,-0.7913,-0.7988,-0.7988,-0.7894,-0.779,0.0,0.0,0.0,0.0,0.0,0.0,0.0,0.0,0.0,0.0,0.0,0.0,0.0,0.2204,0.2247,0.2493,0.2989,0.0,0.0,0.0,0.0,0.0,0.0,0.0,0.0,0.0,0.0,0.0,0.0,0.4491,0.4491,0.4491,0.4518,0.4573,0.4573,0.4651,0.4748,0.4634,0.0,0.0,0.4679,0.4701,0.4847,0.4938,0.5009,0.511,0.5243,0.5347,0.5395,0.5395,0.5395,0.5395,0.5395,0.5395,0.5395,0.5395,0.0,0.0,0.0,0.0,0.0,0.4333,0.4126,0.3972,0.3341,0.3317,0.3404,0.3476,0.3668,0.3849,0.3849,0.3141,0.2264,0.1411,0.126,0.1008,0.0101,0.0,0.0,0.0,0.0,0.0,0.0,0.0,0.0,0.0,0.0,0.0,0.0,-0.0422,-0.1112,-0.217,-0.3375,-0.4884,-0.6738,-0.6783,-0.6783,-0.6783,-0.6783,-0.6783,-0.6787,-0.6893,-0.696,-0.697,-0.716,-0.7278,-0.7419,-0.7431,-0.7543,-0.7675,-0.7675,-0.7767,-0.7892,-0.7892,-0.7801,-0.7668,0.0,0.0,0.0,0.0,0.0,0.0,0.0,0.0,0.0,0.0,0.0,0.0,0.0,0.0,0.1563,0.1814,0.2732,0.3317,0.34,0.4098,0.0,0.0,0.0,0.0,0.0,0.0,0.0,0.0,0.0,0.0,0.0,0.4491,0.4518,0.4566,0.4566,0.4653,0.0,0.0,0.4731,0.4881,0.4809,0.4857,0.4975,0.5152,0.524,0.5304,0.5454,0.5542,0.5542,0.5542,0.5511,0.5474,0.5474,0.5474,0.5474,0.0,0.0,0.0,0.5878,0.0,0.0,0.0,0.5224,0.5066,0.4378,0.4348,0.4478,0.454,0.482,0.504,0.5074,0.5132,0.465,0.2959,0.2241,0.1634,0.0799,0.0298,0.0,0.0,0.0,0.0,0.0,0.0,0.0,0.0,0.0,0.0,0.0,0.0,-0.0643,-0.2075,-0.328,-0.4768,-0.6624,-0.6624,-0.6624,-0.6624,-0.6624,-0.6624,-0.6627,-0.6783,-0.6851,-0.6861,-0.6964,-0.7156,-0.7292,-0.7292,-0.7383,-0.7522,-0.7522,-0.7611,-0.774,-0.774,-0.7648,-0.7522,0.0,0.0,0.0,0.0,0.0,0.0,0.0,0.0,0.0,0.0,0.0,0.0,0.0,0.0,0.0,0.1006,0.2425,0.3287,0.3372,0.407,0.0,0.0,0.0,0.0,0.0,0.0,0.0,0.0,0.0,0.0,0.0,0.0,0.4569,0.4684,0.4687,0.4694,0.4707,0.4857,0.4894,0.4908,0.4897,0.4985,0.5133,0.5347,0.5498,0.5613,0.5752,0.58,0.58,0.58,0.5708,0.5596,0.5596,0.5599,0.0,0.0,0.0,0.0,0.0,0.0,0.0,0.0,0.63,0.6334,0.6474,0.6583,0.6773,0.7018,0.7248,0.7404,0.7553,0.758,0.6807,0.4478,0.2823,0.1867,0.1998,0.0867,0.0,0.0,0.0,0.0,0.0,0.0,0.0,0.0,0.0,0.0,0.0,0.0,-0.0923,-0.3008,-0.4234,-0.5376,-0.6424,-0.6468,-0.6504,-0.6504,-0.6504,-0.6504,-0.6511,-0.6624,-0.6695,-0.6702,-0.6861,-0.6964,-0.7092,-0.7095,-0.7227,-0.7409,-0.7409,-0.7458,-0.7594,-0.7594,-0.7499,-0.7415,0.0,0.0,0.0,0.0,0.0,0.0,0.0,0.0,0.0,0.0,0.0,0.0,0.0,0.0,0.0084,0.028,0.1647,0.2508,0.2536,0.3763,0.4491,0.4491,0.0,0.0,0.0,0.0,0.0,0.0,0.0,0.0,0.0,0.0,0.0,0.0,0.4672,0.4752,0.486,0.487,0.5108,0.5386,0.513,0.5258,0.561,0.5549,0.5616,0.5749,0.5786,0.58,0.58,0.58,0.5776,0.5742,0.5742,0.0,0.0,0.0,0.0,0.0,0.6023,0.0,0.0,0.0,0.0,0.0,0.6351,0.647,0.6559,0.6641,0.6868,0.7065,0.7109,0.7115,0.6939,0.6517,0.4639,0.2904,0.1964,0.0765,0.0,0.0,0.0,0.0,0.0,0.0,0.0,0.0,0.0,0.0,0.0,0.0,-0.0632,-0.1958,-0.3028,-0.4101,-0.5207,-0.596,-0.6358,-0.6358,-0.6358,-0.6358,-0.6364,-0.6508,-0.6536,-0.6549,-0.6814,-0.691,-0.6953,-0.7055,-0.7122,-0.7204,-0.7204,-0.7299,-0.7434,-0.7434,-0.7453,-0.7415,0.0,0.0,0.0,0.0,0.0,0.0,0.0,0.0,0.0,0.0,0.0,0.0,0.0,0.0,0.0,0.0,0.1062,0.187,0.2174,0.3317,0.4153,0.4491,0.0,0.0,0.0,0.0,0.0,0.0,0.0,0.0,0.0,0.0,0.0,0.0,0.0,0.0,0.0,0.4975,0.5196,0.5515,0.5298,0.5423,0.5708,0.5688,0.5769,0.5905,0.5969,0.5993,0.5993,0.5993,0.5949,0.5884,0.582,0.5908,0.0,0.0,0.0,0.0,0.0,0.0,0.0,0.63,0.0,0.0,0.63,0.6364,0.6439,0.6501,0.6614,0.6759,0.682,0.6834,0.6892,0.7065,0.5505,0.3861,0.2773,0.1566,0.0549,0.0045,0.0,0.0,0.0,0.0,0.0,0.0,0.0,0.0,0.0,0.0,-0.051,-0.1568,-0.2151,-0.2969,-0.4021,-0.5079,-0.5628,-0.5628,-0.6103,-0.63,-0.6303,-0.6385,-0.6422,-0.6436,-0.6634,-0.6773,-0.6802,-0.6421,-0.6596,-0.7095,-0.7095,-0.7149,-0.7275,-0.7275,-0.7275,-0.7275,0.0,0.0,0.0,0.0,0.0,0.0,0.0,0.0,0.0,0.0,0.0,0.0,0.0,0.0,0.0,0.0,0.0671,0.1424,0.2147,0.2899,0.0,0.0,0.0,0.0,0.0,0.0,0.0,0.0,0.0,0.0,0.0,0.0,0.0,0.0,0.0,0.0,0.0,0.5127,0.525,0.5395,0.5416,0.5532,0.5677,0.5786,0.5922,0.6074,0.6248,0.63,0.63,0.63,0.6169,0.603,0.5895,0.5945,0.6016,0.0,0.6152,0.0,0.0,0.0,0.0,0.0,0.63,0.0,0.63,0.63,0.6334,0.6463,0.6491,0.6528,0.6627,0.6664,0.6675,0.6675,0.577,0.484,0.4012,0.2664,0.1373,0.0295,0.0084,0.0,0.0,0.0,0.0,0.0,0.0,0.0,0.0,0.0,-0.0432,-0.1411,-0.1528,-0.2035,-0.2929,-0.3984,-0.453,-0.453,-0.5473,-0.5944,-0.5944,-0.5944,-0.5944,-0.5954,-0.6089,-0.6231,-0.6248,-0.5312,-0.5735,-0.6915,-0.6782,-0.6691,-0.6691,-0.6691,-0.6691,-0.6691,0.0,0.0,0.0,0.0,0.0,0.0,0.0,0.0,0.0,0.0,0.0,0.0,0.0,0.0,0.0,0.0,0.0671,0.1424,0.2147,0.2899,0.0,0.0,0.0,0.0,0.0,0.0,0.0,0.0,0.0,0.0,0.0,0.0,0.0,0.0,0.0,0.0,0.0,0.0,0.5447,0.5405,0.5528,0.5815,0.6156,0.602,0.6081,0.6259,0.6289,0.63,0.63,0.63,0.6279,0.6248,0.6221,0.6231,0.6255,0.6255,0.0,0.0,0.0,0.0,0.0,0.63,0.63,0.0,0.63,0.63,0.6306,0.6334,0.634,0.6351,0.6381,0.648,0.6555,0.6555,0.6412,0.5963,0.4831,0.2917,0.1559,0.1301,0.0546,0.0,0.0,0.0,0.0,0.0,0.0,0.0,0.0,0.0,-0.0079,-0.0314,-0.1137,-0.1685,-0.188,-0.2891,-0.3396,-0.3396,-0.3632,-0.3709,-0.3709,-0.3709,-0.3709,-0.3713,-0.3884,-0.3977,-0.4026,-0.3947,-0.4603,-0.5625,-0.4683,-0.4281,-0.4281,-0.4281,-0.4281,-0.4281,0.0,0.0,0.0,0.0,0.0,0.0,0.0,0.0,0.0,0.0,0.0,0.0,0.0,0.0,0.0,0.0,0.0,0.0,0.0,0.0,0.0,0.0,0.0,0.0,0.0,0.0,0.0,0.0,0.0,0.0,0.0,0.0,0.0,0.0,0.0,0.0,0.0,0.0,0.5036,0.562,0.5664,0.583,0.603,0.603,0.6125,0.63,0.63,0.63,0.63,0.63,0.63,0.63,0.63,0.63,0.63,0.63,0.63,0.63,0.0,0.0,0.0,0.63,0.63,0.0,0.0,0.63,0.63,0.63,0.63,0.63,0.63,0.6358,0.6429,0.6501,0.6518,0.6304,0.5755,0.428,0.283,0.1745,0.1137,0.0569,0.0041,0.0,0.0,0.0,0.0,0.0,0.0,0.0,0.0,0.0,-0.051,-0.0784,-0.0784,-0.184,-0.2347,-0.2347,-0.2851,-0.3085,-0.3085,-0.3085,-0.3085,-0.3086,-0.3163,-0.3264,-0.3297,-0.2797,-0.2992,-0.361,-0.36,-0.3614,-0.3614,-0.3614,-0.3614,-0.3614,0.0,0.0,0.0,0.0,0.0,0.0,0.0,0.0,0.0,0.0,0.0,0.0,0.0,0.0,0.0,0.0,0.0,0.0,0.0,0.0,0.0,0.0,0.0,0.4463,0.0,0.0,0.0,0.0,0.0,0.0,0.0,0.0,0.0,0.0,0.0,0.0,0.0,0.0,0.4625,0.5803,0.565,0.5716,0.5905,0.6027,0.6152,0.63,0.63,0.63,0.63,0.63,0.63,0.63,0.63,0.63,0.63,0.63,0.63,0.63,0.63,0.63,0.63,0.63,0.63,0.63,0.0,0.0,0.0,0.63,0.63,0.63,0.63,0.0,0.0,0.638,0.0,0.0,0.0,0.5692,0.0,0.2433,0.1841,0.1254,0.0392,0.0118,0.0,0.0,0.0,0.0,0.0,0.0,0.0,0.0,0.0,0.0,0.0,-0.0863,-0.1293,-0.1293,-0.2112,-0.25,-0.25,-0.25,-0.25,-0.25,-0.25,-0.2575,-0.2593,-0.1663,-0.1373,-0.1554,-0.2543,-0.2926,-0.2902,-0.2891,-0.2886,-0.2888,0.0,0.0,0.0,0.0,0.0,0.0,0.0,0.0,0.0,0.0,0.0,0.0,0.0,0.0,0.0,0.0,0.0,0.0,0.1041,0.0,0.0,0.0,0.0,0.0,0.486,0.0,0.0,0.0,0.0,0.0,0.0,0.0,0.0,0.0,0.5208,0.0,0.0,0.0,0.4789,0.5738,0.5092,0.5397,0.6248,0.6265,0.6282,0.63,0.63,0.63,0.63,0.63,0.63,0.63,0.63,0.63,0.63,0.63,0.63,0.63,0.63,0.63,0.63,0.63,0.63,0.63,0.63,0.0,0.63,0.63,0.0,0.63,0.63,0.0,0.0,0.0,0.0,0.0,0.6115,0.612,0.5685,0.4494,0.2738,0.1568,0.1411,0.0549,0.0,0.0,0.0,0.0,0.0,0.0,0.0,0.0,0.0,0.0,0.0,-0.0118,-0.0196,-0.0196,-0.0314,-0.0353,-0.0353,-0.0353,-0.0353,-0.0353,-0.0353,-0.0358,-0.0366,-0.0244,-0.0206,-0.0211,-0.0339,-0.0391,-0.0403,-0.0396,-0.0393,-0.0394,0.0,0.0,0.0,0.0,0.0,0.0,0.0,0.0,0.0,0.0,0.0,0.0,0.0,0.0,0.0,0.0,0.0,0.0127,0.0443,0.0854,0.0,0.0,0.0,0.0,0.0,0.0,0.0,0.0,0.4928,0.0,0.0,0.0,0.0,0.0,0.498,0.0,0.4634,0.0,0.4321,0.5792,0.4353,0.4781,0.63,0.63,0.63,0.63,0.63,0.63,0.63,0.63,0.63,0.63,0.63,0.63,0.63,0.63,0.63,0.63,0.63,0.6361,0.6402,0.632,0.6361,0.6402,0.632,0.0,0.63,0.63,0.0,0.0,0.0,0.0,0.0,0.0,0.6361,0.6375,0.0,0.0,0.5906,0.4844,0.0,0.0,0.1724,0.062,0.0,0.0,0.0,0.0,0.0,0.0,0.0,0.0,0.0,0.0,0.0,0.0,0.0,0.0,0.0,0.0,0.0,0.0,0.0,0.0,0.0,0.0,0.0,0.0,0.0,0.0,0.0,0.0,0.0,0.0,0.0,0.0,0.0,0.0,0.0,0.0,0.0,0.0,0.0,0.0,0.0,0.0,0.0,0.0,0.0,0.0,0.0,0.0,0.0,0.0,0.0,0.049,0.1194,0.0,0.2927,0.3811,0.4768,0.0,0.0,0.0,0.0,0.0,0.0,0.0,0.0,0.0,0.0,0.4384,0.4197,0.0,0.3596,0.5478,0.3781,0.4401,0.63,0.63,0.63,0.63,0.63,0.63,0.63,0.63,0.63,0.0,0.63,0.63,0.63,0.63,0.63,0.63,0.63,0.0,0.0,0.0,0.0,0.0,0.0,0.0,0.0,0.6368,0.6358,0.0,0.0,0.0,0.0,0.0,0.0,0.632,0.0,0.6337,0.0,0.0,0.0,0.0,0.0,0.0614,0.0,0.0,0.0,0.0,0.0,0.0,0.0,0.0,0.0,0.0,0.0,0.0,0.0,0.0,0.0,0.0,0.0,0.0,0.0,0.0,0.0,0.0,0.0,0.0,0.0,0.0,0.0,0.0,0.0,0.0,0.0,0.0,0.0,0.0,0.0,0.0,0.0,0.0,0.0,0.0,0.0,0.0,0.0,0.0,0.0,0.0,0.0,0.0,0.0,0.0,0.0,0.0034,0.0436,0.1303,0.2236,0.3139,0.401,0.4912,0.0,0.0,0.0,0.0,0.0,0.0,0.0,0.0,0.313,0.3424,0.4342,0.2247,0.2651,0.4634,0.3541,0.4401,0.63,0.63,0.63,0.63,0.63,0.0,0.0,0.63,0.63,0.0,0.0,0.0,0.0,0.0,0.0,0.0,0.0,0.0,0.0,0.647,0.0,0.0,0.0,0.0,0.6644,0.0,0.0,0.0,0.0,0.0,0.0,0.0,0.0,0.0,0.0,0.0,0.63,0.6261,0.4414,0.0,0.0,0.0614,0.0,0.0,0.0,0.0,0.0,0.0,0.0,0.0,0.0,0.0,0.0,0.0,0.0,0.0,0.0,0.0,0.0,0.0,0.0,0.0,0.0,0.0,0.0,0.0,0.0,0.0,0.0,0.0,0.0,0.0,0.0,0.0,0.0,0.0,0.0,0.0,0.0,0.0,0.0,0.0,0.0,0.0,0.0,0.0,0.0,0.0,0.0,0.0,0.0,0.0,0.0,0.0,0.0377,0.1275,0.1608,0.2209,0.3111,0.3447,0.0,0.0,0.0,0.0,0.0,0.0,0.0,0.0,0.0,0.2654,0.0,0.0,0.0,0.0,0.0,0.3956,0.5237,0.0,0.567,0.63,0.63,0.63,0.0,0.63,0.63,0.6317,0.6412,0.6375,0.6317,0.6412,0.6439,0.6439,0.0,0.0,0.6688,0.6637,0.0,0.0,0.0,0.0,0.0,0.0,0.0,0.0,0.0,0.0,0.0,0.0,0.0,0.0,0.0,0.6265,0.63,0.63,0.504,0.3728,0.0,0.0,0.0774,0.0037,0.0,0.0,0.0,0.0,0.0,0.0,0.0,0.0,0.0,0.0,0.0,0.0,0.0,0.0,0.0,0.0,0.0,0.0,0.0,0.0,0.0,0.0,0.0,0.0,0.0,0.0,0.0,0.0,0.0,0.0,0.0,0.0,0.0,0.0,0.0,0.0,0.0,0.0,0.0,0.0,0.0,0.0,0.0,0.0,0.0,0.0,0.0,0.0,0.0,0.0,0.0246,0.0819,0.1134,0.158,0.2176,0.2539,0.2689,0.0,0.0,0.2683,0.0,0.0,0.0,0.0,0.0,0.169,0.155,0.106,0.1505,0.0,0.0,0.3437,0.0,0.0,0.5354,0.63,0.0,0.63,0.63,0.63,0.63,0.6317,0.6409,0.6375,0.6317,0.6409,0.6474,0.6511,0.6511,0.6658,0.0,0.6793,0.6854,0.0,0.6868,0.0,0.6844,0.0,0.0,0.0,0.0,0.0,0.0,0.0,0.0,0.0,0.0,0.63,0.63,0.63,0.5313,0.4215,0.3212,0.2122,0.108,0.0073,0.0,0.0,0.0,0.0,0.0,0.0,0.0,0.0,0.0,0.0,0.0,0.0,0.0,0.0,0.0,0.0,0.0,0.0,0.0,0.0,0.0,0.0,0.0,0.0,0.0,0.0,0.0,0.0,0.0,0.0,0.0,0.0,0.0,0.0,0.0,0.0,0.0,0.0,0.0,0.0,0.0,0.0,0.0,0.0,0.0,0.0,0.0,0.0,0.0,0.0,0.0,0.0,0.0791,0.1222,0.1226,0.2115,0.2577,0.2577,0.0,0.0,0.0,0.0,0.0,0.0,0.036,0.0,0.1513,0.0466,0.0628,0.1607,0.1607,0.2856,0.4688,0.4688,0.5354,0.63,0.63,0.63,0.63,0.63,0.63,0.6303,0.631,0.631,0.6313,0.632,0.6422,0.6535,0.6535,0.6607,0.6756,0.6859,0.6896,0.0,0.0,0.0,0.7058,0.0,0.0,0.0,0.0,0.0,0.0,0.0,0.0,0.0,0.0,0.0,0.63,0.63,0.5278,0.4215,0.3276,0.2093,0.1027,0.0145,0.0036,0.0,0.0,0.0,0.0,0.0,0.0,0.0,0.0,0.0,0.0,0.0,0.0,0.0,0.0,0.0,0.0,0.0,0.0,0.0,0.0,0.0,0.0,0.0,0.0,0.0,0.0,0.0,0.0,0.0,0.0,0.0,0.0,0.0,0.0,0.0,0.0,0.0,0.0,0.0,0.0,0.0,0.0,0.0,0.0,0.0,0.0,0.0,0.0,0.0,0.0,0.0,0.0218,0.0327,0.0324,0.058,0.0691,0.0691,0.0,0.0,0.0701,0.0,0.0,0.0,0.0,0.0591,0.1513,0.0466,0.0628,0.1607,0.1607,0.2856,0.4688,0.0,0.5354,0.63,0.63,0.63,0.63,0.63,0.63,0.6317,0.6422,0.6457,0.648,0.6556,0.6695,0.681,0.681,0.6873,0.6994,0.7034,0.7041,0.7051,0.0,0.0,0.0,0.0,0.0,0.0,0.0,0.0,0.0,0.0,0.0,0.0,0.0,0.0,0.63,0.63,0.5894,0.5232,0.4254,0.3242,0.2156,0.1061,0.0367,0.0,0.0,0.0,0.0,0.0,0.0,0.0,0.0,0.0,0.0,0.0,0.0,0.0,0.0,0.0,0.0,0.0,0.0,0.0,0.0,0.0,0.0,0.0,0.0,0.0,0.0,0.0,0.0,0.0,0.0,0.0,0.0,0.0,0.0,0.0,0.0,0.0,0.0,0.0,0.0,0.0,0.0,0.0,0.0,0.0,0.0,0.0,0.0,0.0,0.0,0.0,0.0,0.0,0.0,0.0,0.0,0.0,0.0,0.0,0.0,0.0,0.0,0.0,0.0,0.034,0.086,0.0238,0.0634,0.1645,0.2074,0.3244,0.0,0.5237,0.5786,0.63,0.63,0.63,0.63,0.63,0.63,0.6313,0.6395,0.6463,0.6528,0.6576,0.6756,0.6886,0.6886,0.6991,0.7095,0.7095,0.7095,0.7095,0.7095,0.7095,0.7095,0.0,0.6984,0.6839,0.0,0.0,0.0,0.0,0.0,0.0,0.0,0.0,0.63,0.63,0.6183,0.5853,0.5126,0.3823,0.2531,0.139,0.0481,0.0,0.0,0.0,0.0,0.0,0.0,0.0,0.0,0.0,0.0,0.0,0.0,0.0,0.0,0.0,0.0,0.0,0.0,0.0,0.0,0.0,0.0,0.0,0.0,0.0,0.0,0.0,0.0,0.0,0.0,0.0,0.0,0.0,0.0,0.0,0.0,0.0,0.0,0.0,0.0,0.0,0.0,0.0,0.0,0.0,0.0,0.0,0.0,0.0,0.0,0.0,0.0,0.0,0.0,0.0,0.0,0.0,0.0,0.0,0.0,0.0,0.0,0.0,0.0,0.0,0.0,0.0162,0.0839,0.188,0.2735,0.3826,0.5002,0.5944,0.63,0.63,0.63,0.63,0.63,0.63,0.63,0.63,0.63,0.6412,0.6542,0.6542,0.6719,0.6913,0.6913,0.7004,0.7095,0.7095,0.7095,0.7095,0.7095,0.7095,0.7095,0.7095,0.6997,0.6862,0.6732,0.0,0.0,0.0,0.0,0.0,0.0,0.0,0.63,0.63,0.63,0.0,0.583,0.4184,0.2696,0.1744,0.0745,0.0191,0.0,0.0,0.0,0.0,0.0,0.0,0.0,0.0,0.0,0.0,0.0,0.0,0.0,0.0,0.0,0.0,0.0,0.0,0.0,0.0,0.0,0.0,0.0,0.0,0.0,0.0,0.0,0.0,0.0,0.0,0.0,0.0,0.0,0.0,0.0,0.0,0.0,0.0,0.0,0.0,0.0,0.0,0.0,0.0,0.0,0.0,0.0,0.0,0.0,0.0,0.0,0.0,0.0,0.0,0.0,0.0,0.0,0.0,0.0,0.0,0.0,0.0,0.0,0.0,0.0039,0.0947,0.0,0.2851,0.3046,0.4256,0.6025,0.6219,0.63,0.63,0.63,0.63,0.63,0.63,0.63,0.63,0.63,0.6484,0.6661,0.6661,0.6871,0.7058,0.7058,0.7078,0.7095,0.7095,0.7095,0.7095,0.7095,0.7095,0.7095,0.7095,0.7078,0.6977,0.6749,0.0,0.0,0.0,0.0,0.0,0.0,0.0,0.0,0.63,0.63,0.618,0.583,0.484,0.408,0.3706,0.2083,0.1146,0.0,0.0,0.0,0.0,0.0,0.0,0.0,0.0,0.0,0.0,0.0,0.0,0.0,0.0,0.0,0.0,0.0,0.0,0.0,0.0,0.0,0.0,0.0,0.0,0.0,0.0,0.0,0.0,0.0,0.0,0.0,0.0,0.0,0.0,0.0,0.0,0.0,0.0,0.0,0.0,0.0,0.0,0.0,0.0,0.0,0.0,0.0,0.0,0.0,0.0,0.0,0.0,0.0,0.0,0.0,0.0,0.0,0.0,0.0,0.0,0.0,0.0,0.0,0.0825,0.0,0.0,0.0,0.3943,0.3943,0.4882,0.63,0.63,0.63,0.63,0.63,0.63,0.63,0.63,0.63,0.63,0.63,0.645,0.6583,0.6583,0.6797,0.6987,0.6987,0.7041,0.7095,0.7095,0.7095,0.7095,0.7095,0.7095,0.7095,0.7095,0.7095,0.7031,0.6858,0.6573,0.0,0.0,0.0,0.0,0.0,0.0,0.63,0.0,0.0,0.0,0.5942,0.5535,0.4995,0.4256,0.297,0.0,0.0,0.0,0.0588,0.0,0.0,0.0,0.0,0.0,0.0,0.0,0.0,0.0,0.0,0.0,0.0,0.0,0.0,0.0,0.0,0.0,0.0,0.0,0.0,0.0,0.0,0.0,0.0,0.0,0.0,0.0,0.0,0.0,0.0,0.0,0.0,0.0,0.0,0.0,0.0,0.0,0.0,0.0,0.0,0.0,0.0,0.0,0.0,0.0,0.0,0.0,0.0,0.0,0.0,0.0,0.0,0.0,0.0,0.0,0.0,0.0,0.0,0.0,0.0,0.0,0.0,0.0,0.3734,0.4688,0.4688,0.5354,0.63,0.63,0.63,0.63,0.63,0.63,0.63,0.63,0.63,0.63,0.63,0.6399,0.6518,0.6552,0.6715,0.6893,0.6923,0.7011,0.7095,0.7095,0.7095,0.7095,0.7095,0.7095,0.7095,0.7095,0.7048,0.7064,0.7239,0.6815,0.0,0.0,0.0,0.0,0.0,0.0,0.63,0.0,0.0,0.0,0.6006,0.6023,0.5641,0.4655,0.3829,0.0,0.2309,0.0,0.0,0.0,0.0,0.0,0.0,0.0,0.0,0.0,0.0,0.0,0.0,0.0,0.0,0.0,0.0,0.0,0.0,0.0,0.0,0.0,0.0,0.0,0.0,0.0,0.0,0.0,0.0,0.0,0.0,0.0,0.0,0.0,0.0,0.0,0.0,0.0,0.0,0.0,0.0,0.0,0.0,0.0,0.0,0.0,0.0,0.0,0.0,0.0,0.0,0.0,0.0,0.0,0.0,0.0,0.0,0.0,0.0,0.0,0.0,0.0,0.0,0.0,0.0,0.3052,0.3717,0.4688,0.4688,0.5354,0.63,0.63,0.63,0.63,0.63,0.63,0.63,0.63,0.63,0.63,0.63,0.6399,0.6542,0.6637,0.6797,0.6913,0.7041,0.7085,0.7095,0.7095,0.7095,0.7095,0.7095,0.7095,0.7095,0.7095,0.6926,0.7108,0.8328,0.7333,0.6361,0.0,0.0,0.0,0.0,0.0,0.63,0.63,0.0,0.0,0.6006,0.6156,0.6134,0.5868,0.4934,0.0,0.0,0.0,0.0,0.145,0.0511,0.0,0.0,0.0,0.0,0.0,0.0,0.0,0.0,0.0,0.0,0.0,0.0,0.0,0.0,0.0,0.0,0.0,0.0,0.0,0.0,0.0,0.0,0.0,0.0,0.0,0.0,0.0,0.0,0.0,0.0,0.0,0.0,0.0,0.0,0.0,0.0,0.0,0.0,0.0,0.0,0.0,0.0,0.0,0.0,0.0,0.0,0.0,0.0,0.0,0.0,0.0,0.0,0.0,0.0,0.0,0.0,0.0,0.0,0.3667,0.41,0.4766,0.5276,0.567,0.567,0.5906,0.63,0.63,0.63,0.63,0.63,0.63,0.63,0.63,0.63,0.63,0.63,0.6337,0.6399,0.646,0.6607,0.6803,0.6861,0.696,0.7095,0.7095,0.7095,0.7095,0.7095,0.7095,0.7095,0.7095,0.761,0.7967,0.7773,0.7754,0.7498,0.6736,0.0,0.0,0.0,0.0,0.0,0.63,0.0,0.6276,0.6173,0.6262,0.6276,0.6173,0.5819,0.0,0.0,0.0,0.0,0.2636,0.0,0.1899,0.1986,0.1309,0.0945,0.0955,0.0315,0.0,0.0,0.0,0.0,0.0,0.0,0.0,0.0,0.0,0.0,0.0,0.0,0.0,0.0,0.0,0.0,0.0,0.0,0.0,0.0,0.0,0.0,0.0,0.0,0.0,0.0,0.0,0.0,0.0,0.0,0.0,0.0,0.0,0.0,0.0,0.0,0.0,0.0,0.0,0.0,0.0,0.0,0.0314,0.0471,0.0471,0.0763,0.0,0.0,0.0,0.0,0.0,0.4367,0.4875,0.5237,0.5983,0.63,0.63,0.63,0.63,0.63,0.63,0.63,0.63,0.63,0.63,0.63,0.63,0.63,0.63,0.63,0.63,0.631,0.6351,0.6511,0.6654,0.6742,0.6876,0.7045,0.7085,0.7095,0.7095,0.7095,0.7095,0.7183,0.7533,0.798,0.8115,0.7691,0.7881,0.7761,0.6833,0.0,0.0,0.0,0.63,0.0,0.63,0.63,0.63,0.63,0.63,0.63,0.63,0.0,0.0,0.0,0.0,0.0,0.0,0.0,0.0,0.3244,0.2446,0.2035,0.2035,0.098,0.0471,0.0471,0.0157,0.0314,0.0901,0.0588,0.0628,0.0901,0.0901,0.0901,0.0904,0.0973,0.0994,0.1012,0.1041,0.1062,0.1076,0.0,0.0,0.0,0.0,0.0,0.0,0.0,0.0,0.0,0.0,0.0,0.0,0.0,0.0,0.0,0.0,0.0,0.0,0.0,0.0,0.0,0.0,0.0,0.0,0.0,0.102,0.1568,0.1568,0.0,0.0,0.3049,0.0,0.3635,0.4691,0.4684,0.5274,0.63,0.63,0.63,0.63,0.63,0.63,0.63,0.63,0.63,0.63,0.63,0.63,0.63,0.63,0.63,0.63,0.63,0.63,0.6327,0.6467,0.6511,0.6539,0.6844,0.6886,0.6923,0.7061,0.7095,0.7095,0.7095,0.7095,0.7445,0.8627,0.7715,0.7171,0.8605,0.7609,0.6566,0.6675,0.0,0.0,0.0,0.63,0.0,0.63,0.63,0.63,0.63,0.63,0.63,0.0,0.0,0.0,0.0,0.0,0.0,0.4688,0.3671,0.0,0.3086,0.3085,0.3085,0.3085,0.2074,0.1568,0.1528,0.0471,0.1135,0.3007,0.1996,0.2152,0.3046,0.3046,0.3046,0.3061,0.3208,0.3308,0.3369,0.3515,0.357,0.357,0.0,0.0,0.0,0.0,0.0,0.0,0.0,0.0,0.0,0.0,0.0,0.0,0.0,0.0,0.0,0.0,0.0,0.0,0.0,0.0,0.0,0.0,0.0689,0.1077,0.1098,0.2112,0.2618,0.2618,0.0,0.0,0.0,0.4192,0.4756,0.5789,0.5794,0.5986,0.63,0.63,0.63,0.63,0.63,0.63,0.63,0.63,0.63,0.63,0.63,0.63,0.63,0.63,0.63,0.63,0.63,0.63,0.631,0.6354,0.6436,0.6535,0.659,0.6695,0.681,0.6916,0.6953,0.6977,0.7071,0.7095,0.7228,0.7577,0.7881,0.797,0.7619,0.7659,0.7529,0.6715,0.6545,0.0,0.632,0.0,0.63,0.63,0.63,0.63,0.63,0.63,0.63,0.0,0.0,0.0,0.0,0.0,0.0,0.0,0.5517,0.0,0.5436,0.4604,0.4252,0.432,0.3151,0.2618,0.262,0.2346,0.2579,0.3085,0.2774,0.2813,0.3085,0.3085,0.3194,0.3292,0.3354,0.335,0.3369,0.3515,0.3539,0.3455,0.0,0.0,0.0,0.0,0.0,0.0,0.0,0.0,0.0,0.0,0.0,0.0,0.0,0.0,0.0,0.0,0.0,0.0,0.0,0.0,0.0,0.0,0.1073,0.1667,0.159,0.301,0.0,0.3709,0.4121,0.4634,0.5314,0.5314,0.5671,0.63,0.63,0.63,0.63,0.63,0.63,0.63,0.63,0.63,0.63,0.63,0.63,0.63,0.63,0.63,0.63,0.63,0.63,0.63,0.63,0.63,0.63,0.63,0.6364,0.6446,0.6497,0.6542,0.6664,0.6832,0.6886,0.6923,0.7065,0.7095,0.7095,0.7095,0.7581,0.7893,0.7517,0.7917,0.8061,0.7209,0.7063,0.6893,0.6359,0.63,0.63,0.63,0.63,0.63,0.63,0.63,0.63,0.0,0.0,0.0,0.0,0.0,0.634,0.6429,0.6347,0.634,0.6429,0.5717,0.5424,0.5502,0.4381,0.383,0.3762,0.3456,0.3675,0.4295,0.3865,0.3943,0.4295,0.4295,0.4374,0.4484,0.4546,0.4545,0.4525,0.4687,0.471,0.4659,0.0,0.0,0.0,0.0,0.0,0.0,0.0,0.0,0.0,0.0,0.0,0.0,0.0,0.0,0.0,0.0,0.0,0.0,0.0,0.0,0.0,0.0,0.1165,0.1747,0.1588,0.3695,0.4733,0.4698,0.5712,0.6219,0.63,0.63,0.63,0.63,0.63,0.63,0.63,0.63,0.63,0.63,0.63,0.63,0.63,0.63,0.63,0.63,0.63,0.63,0.63,0.63,0.63,0.63,0.63,0.63,0.63,0.63,0.63,0.6327,0.646,0.6504,0.6542,0.6841,0.6886,0.6933,0.7065,0.7095,0.7095,0.7095,0.6974,0.7208,0.8213,0.8263,0.8113,0.8018,0.8028,0.7659,0.6472,0.6377,0.6377,0.63,0.0,0.0,0.63,0.63,0.6303,0.0,0.0,0.0,0.0,0.0,0.6313,0.6313,0.6323,0.633,0.633,0.6463,0.6521,0.6474,0.5635,0.5136,0.498,0.3972,0.4566,0.6274,0.524,0.5392,0.63,0.63,0.6306,0.6327,0.646,0.6511,0.6532,0.6644,0.6695,0.6685,0.0,0.0,0.0,0.0,0.0,0.0,0.0,0.0,0.0,0.0,0.0,0.0,0.0,0.0,0.0,0.0,0.0,0.0,0.0,0.0,0.0,0.0,0.1073,0.1617,0.1582,0.2867,0.3901,0.4696,0.4967,0.5512,0.63,0.63,0.63,0.63,0.63,0.63,0.63,0.63,0.63,0.63,0.63,0.63,0.63,0.63,0.63,0.63,0.63,0.63,0.63,0.63,0.63,0.63,0.63,0.63,0.63,0.63,0.63,0.6306,0.634,0.6429,0.6559,0.6709,0.6879,0.7055,0.7088,0.7095,0.7095,0.7095,0.6893,0.7041,0.8069,0.8049,0.7897,0.7854,0.8492,0.8363,0.657,0.6945,0.7176,0.0,0.63,0.63,0.63,0.63,0.6344,0.0,0.0,0.6399,0.6583,0.6525,0.6463,0.6463,0.6536,0.6597,0.6597,0.663,0.6586,0.6515,0.6489,0.6354,0.611,0.5974,0.6112,0.6417,0.6067,0.606,0.63,0.63,0.6364,0.6463,0.6501,0.6511,0.6532,0.6644,0.6627,0.6566,0.0,0.0,0.0,0.0,0.0,0.0,0.0,0.0,0.0,0.0,0.0,0.0,0.0,0.0,0.0,0.0,0.0,0.0,0.0,0.0,0.0,0.0,0.1095,0.1654,0.1618,0.2695,0.3708,0.4701,0.4716,0.5237,0.6303,0.6368,0.6399,0.6402,0.647,0.6501,0.6497,0.6426,0.6399,0.6392,0.6327,0.63,0.63,0.63,0.63,0.63,0.63,0.63,0.63,0.63,0.63,0.63,0.63,0.6344,0.6385,0.632,0.63,0.63,0.63,0.6405,0.6566,0.6749,0.693,0.7095,0.7095,0.7095,0.7095,0.7095,0.697,0.7155,0.8032,0.8444,0.8638,0.8493,0.8955,0.8765,0.7215,0.7061,0.6933,0.6467,0.6399,0.6426,0.6494,0.6501,0.6504,0.6511,0.6504,0.0,0.659,0.6651,0.6651,0.658,0.6658,0.6702,0.6702,0.677,0.6797,0.678,0.6903,0.6868,0.658,0.6661,0.658,0.6412,0.6334,0.63,0.63,0.63,0.6344,0.6416,0.6416,0.6416,0.6426,0.6508,0.6487,0.6416,0.0,0.0,0.0,0.0,0.0,0.0,0.0,0.0,0.0,0.0,0.0,0.0,0.0,0.0,0.0,0.0,0.0,0.0,0.0,0.0,0.0,0.0,0.0977,0.1465,0.1351,0.2556,0.3594,0.4486,0.4666,0.5291,0.6368,0.6491,0.6549,0.6552,0.6644,0.6702,0.6692,0.6536,0.6511,0.6501,0.6358,0.63,0.63,0.63,0.63,0.63,0.63,0.63,0.63,0.63,0.63,0.6303,0.6323,0.6416,0.6494,0.6395,0.6351,0.6327,0.6306,0.6419,0.658,0.6842,0.7007,0.7095,0.7095,0.7095,0.7095,0.7095,0.7078,0.7281,0.8065,0.8991,0.9617,0.9407,0.9582,0.9344,0.8239,0.0,0.6737,0.673,0.6591,0.6573,0.6685,0.6702,0.6658,0.6549,0.6641,0.6664,0.6576,0.68,0.6836,0.677,0.6766,0.6766,0.6766,0.6832,0.6947,0.7065,0.7065,0.6933,0.6732,0.6712,0.6563,0.6364,0.632,0.63,0.63,0.63,0.63,0.63,0.63,0.63,0.63,0.63,0.63,0.63,0.0,0.0,0.0,0.0,0.0,0.0,0.0,0.0,0.0,0.0,0.0,0.0,0.0,0.0,0.0,0.0,0.0,0.0,0.0,0.0,0.0,0.0,0.0179,0.0269,0.0268,0.144,0.2534,0.3496,0.4555,0.5588,0.663,0.6654,0.6664,0.6664,0.6692,0.6702,0.6692,0.6536,0.6511,0.6501,0.6358,0.63,0.63,0.63,0.63,0.63,0.63,0.63,0.63,0.63,0.63,0.632,0.6443,0.6494,0.6532,0.66,0.6539,0.6453,0.633,0.6497,0.6736,0.6991,0.7082,0.7095,0.7095,0.7095,0.7095,0.7095,0.7001,0.72,0.804,0.8917,0.9566,0.9623,1.0866,1.1253,0.9622,0.0,0.8573,0.787,0.7023,0.6573,0.6685,0.6702,0.6746,0.6851,0.6759,0.68,0.698,0.6923,0.693,0.7024,0.7028,0.7028,0.7028,0.6933,0.6896,0.692,0.692,0.6896,0.6846,0.6759,0.6675,0.6617,0.6409,0.63,0.63,0.63,0.63,0.63,0.63,0.63,0.63,0.63,0.63,0.63,0.0,0.0,0.0,0.0,0.0,0.0,0.0,0.0,0.0,0.0,0.0,0.0,0.0,0.0,0.0,0.0,0.0,0.0,0.0,0.0,0.0,0.0,0.0,0.0313,0.097,0.1525,0.2626,0.4291,0.4834,0.5649,0.6702,0.6783,0.6824,0.6827,0.6902,0.6895,0.6817,0.6749,0.6624,0.6508,0.6443,0.6368,0.63,0.63,0.63,0.63,0.63,0.63,0.63,0.63,0.6351,0.6426,0.6491,0.6583,0.6715,0.6705,0.6651,0.658,0.6515,0.6658,0.6875,0.7045,0.7095,0.7095,0.7095,0.7095,0.7095,0.7095,0.7045,0.7296,0.8304,0.9095,0.9876,1.0643,1.1174,1.1313,1.0824,0.9531,0.8536,0.8397,0.7413,0.6776,0.6879,0.6896,0.6893,0.6886,0.6893,0.692,0.698,0.6994,0.7028,0.7095,0.7095,0.7095,0.7095,0.7031,0.7001,0.7001,0.7001,0.696,0.6883,0.6854,0.6732,0.6569,0.6474,0.6371,0.63,0.63,0.63,0.63,0.63,0.63,0.63,0.63,0.63,0.63,0.0,0.0,0.0,0.0,0.0,0.0,0.0,0.0,0.0,0.0,0.0,0.0,0.0,0.0,0.0,0.0,0.0,0.0,0.0,0.0,0.0,0.0,0.0272,0.0984,0.2183,0.2487,0.3459,0.5181,0.5434,0.5987,0.6807,0.6879,0.6933,0.694,0.7048,0.7038,0.6933,0.69,0.6773,0.6562,0.6525,0.6426,0.63,0.63,0.63,0.63,0.63,0.63,0.6306,0.6337,0.6422,0.6525,0.6556,0.6739,0.6869,0.6827,0.6803,0.6797,0.6763,0.6841,0.692,0.7061,0.7095,0.7095,0.7095,0.7125,0.7139,0.7102,0.7125,0.7401,0.8142,0.9109,1.0152,1.1219,0.0,1.1526,1.2052,1.0284,0.8968,0.9032,0.8099,0.7321,0.7129,0.7095,0.7065,0.7037,0.7132,0.7146,0.7037,0.7136,0.7132,0.7098,0.7095,0.7095,0.7095,0.7095,0.7095,0.7095,0.7095,0.7041,0.6933,0.6903,0.678,0.6566,0.6566,0.6463,0.6303,0.6334,0.633,0.63,0.63,0.63,0.63,0.63,0.63,0.63,0.0,0.0,0.0,0.0,0.0,0.0,0.0,0.0,0.0,0.0,0.0,0.0,0.0,0.0,0.0,0.0,0.0,0.0,0.0,0.0,0.0,0.0,0.1071,0.2234,0.343,0.4543,0.5208,0.5377,0.6442,0.6973,0.7065,0.7075,0.7082,0.7082,0.7092,0.7092,0.7071,0.6943,0.6834,0.6671,0.6529,0.6426,0.63,0.63,0.63,0.63,0.63,0.63,0.632,0.6453,0.6504,0.6562,0.6807,0.6869,0.691,0.7031,0.7065,0.7034,0.6906,0.6876,0.692,0.7061,0.7095,0.7095,0.7095,0.7251,0.7316,0.7125,0.7255,0.731,0.7066,0.8763,1.0257,1.046,0.0,0.0,1.3404,1.2505,1.1374,1.024,0.94,0.8476,0.7224,0.7095,0.7197,0.7329,0.7395,0.7395,0.7385,0.7395,0.7288,0.7102,0.7095,0.7095,0.7095,0.7095,0.7095,0.7095,0.7095,0.7092,0.7078,0.6947,0.6841,0.6681,0.6681,0.6522,0.631,0.6443,0.6419,0.63,0.63,0.63,0.63,0.63,0.63,0.63,0.0,0.0,0.0,0.0,0.0,0.0,0.0,0.0,0.0,0.0,0.0,0.0,0.0,0.0,0.0,0.0,0.0,0.0,0.0,0.0,0.0386,0.1191,0.1587,0.2772,0.4912,0.5314,0.5876,0.6647,0.7056,0.7234,0.7095,0.7095,0.7095,0.7095,0.7095,0.7048,0.6967,0.7001,0.6919,0.6705,0.6742,0.661,0.6443,0.6495,0.646,0.6313,0.6402,0.6375,0.632,0.6463,0.6536,0.6651,0.6861,0.6947,0.7045,0.7241,0.7285,0.7292,0.7333,0.7162,0.7028,0.7082,0.7214,0.7285,0.7285,0.7404,0.7495,0.7438,0.7472,0.7933,0.9377,1.0132,1.1179,1.2957,0.0,1.3921,1.4396,1.3367,1.2406,1.2086,1.0477,0.9129,0.8633,0.7872,0.7451,0.7509,0.7512,0.7472,0.7422,0.7282,0.72,0.7098,0.7095,0.7095,0.7095,0.7095,0.7095,0.7095,0.7095,0.7095,0.7095,0.7041,0.6937,0.6844,0.6844,0.6671,0.6443,0.6552,0.6515,0.631,0.6399,0.6378,0.63,0.63,0.63,0.63,0.0,0.0,0.0,0.0,0.0,0.0,0.0,0.0,0.0,0.0,0.0,0.0,0.0,0.0,0.0,0.0,0.0,0.0,0.0,0.0396,0.1222,0.2523,0.2878,0.4098,0.6308,0.6276,0.663,0.7415,0.7415,0.7292,0.7095,0.7095,0.7095,0.7095,0.7095,0.7041,0.6957,0.7055,0.6953,0.678,0.6846,0.6773,0.6556,0.6661,0.6576,0.6453,0.6549,0.6521,0.646,0.6566,0.6715,0.6865,0.7021,0.7166,0.7305,0.7411,0.7444,0.7465,0.757,0.7444,0.724,0.724,0.7366,0.7444,0.7444,0.788,0.8259,0.8207,0.8562,0.9375,1.1063,1.1474,1.2187,1.4103,1.4397,1.4546,1.4948,1.4219,1.3503,1.3251,1.1799,1.0468,0.957,0.8699,0.803,0.7709,0.7665,0.7621,0.7516,0.7322,0.7214,0.7214,0.7122,0.7095,0.7095,0.7095,0.7095,0.7095,0.7095,0.7095,0.7095,0.7095,0.7018,0.6886,0.6933,0.6824,0.6556,0.6709,0.6597,0.6381,0.6528,0.6467,0.6306,0.6351,0.6337,0.63,0.0,0.0,0.0,0.0,0.0,0.0,0.0,0.0,0.0,0.0,0.0,0.0,0.0,0.0,0.0,0.0,0.0,0.0,0.0,0.126,0.2572,0.3759,0.5074,0.639,0.756,0.76,0.7529,0.7419,0.7419,0.7292,0.7098,0.7095,0.7095,0.7095,0.7095,0.7095,0.7095,0.7095,0.7014,0.6886,0.6886,0.6841,0.6702,0.6705,0.6702,0.6702,0.6702,0.6702,0.6722,0.6836,0.6977,0.7122,0.7322,0.7478,0.76,0.76,0.76,0.76,0.7604,0.7604,0.7604,0.76,0.76,0.76,0.76,0.8744,0.9754,0.9562,1.066,1.1682,1.1548,1.2432,1.3223,1.3223,1.4231,1.5015,1.5015,1.5217,1.4871,1.3389,1.35,1.2606,0.982,0.9524,0.9047,0.7897,0.7811,0.7811,0.7811,0.7533,0.7419,0.7415,0.7221,0.7098,0.7095,0.7095,0.7095,0.7095,0.7095,0.7095,0.7095,0.7095,0.7018,0.6896,0.7034,0.693,0.6715,0.6825,0.6749,0.6528,0.6644,0.6522,0.632,0.6463,0.6422,0.6303,0.0,0.0,0.0,0.0,0.0,0.0,0.0,0.0,0.0,0.0,0.0,0.0353,0.131,0.0555,0.0404,0.131,0.0555,0.0404,0.136,0.3519,0.4949,0.534,0.5638,0.6468,0.7857,0.7801,0.7726,0.7678,0.758,0.7455,0.7299,0.7146,0.7095,0.7095,0.7095,0.7095,0.7095,0.7095,0.7071,0.7034,0.7034,0.6947,0.6871,0.6927,0.6878,0.6715,0.682,0.6793,0.6722,0.6836,0.6977,0.7142,0.7448,0.7563,0.7617,0.7719,0.7746,0.7773,0.7879,0.786,0.7858,0.7651,0.7675,0.7746,0.7746,0.8869,0.9945,0.9841,1.0932,1.2112,1.304,1.346,1.3985,1.4897,1.5331,1.5571,1.5571,1.5645,1.5524,1.5104,1.4294,1.3494,1.2649,1.0924,0.9708,0.9376,0.84,0.7811,0.7811,0.7634,0.7482,0.7419,0.7326,0.7251,0.7098,0.7095,0.7095,0.7095,0.7095,0.7095,0.7095,0.7095,0.7071,0.7038,0.7078,0.6991,0.6829,0.6974,0.6902,0.6647,0.68,0.6742,0.6573,0.6617,0.6607,0.6569,0.1561,0.1561,0.1411,0.0907,0.0807,0.0605,0.0101,0.0454,0.0807,0.0807,0.126,0.1913,0.2715,0.1611,0.131,0.2665,0.2063,0.2164,0.3518,0.5125,0.6232,0.6781,0.6709,0.7097,0.7988,0.7897,0.7872,0.7811,0.7726,0.7577,0.7415,0.7275,0.7156,0.7095,0.7095,0.7129,0.7227,0.7122,0.7132,0.7224,0.7122,0.7045,0.6977,0.7061,0.7068,0.6976,0.7071,0.7082,0.7071,0.7163,0.7243,0.7402,0.7695,0.7773,0.779,0.7875,0.7899,0.7874,0.7965,0.8382,0.8727,0.8579,0.8605,0.8672,0.8672,1.0152,1.1551,1.1551,1.2571,1.3692,1.4513,1.4657,1.4902,1.5683,1.5784,1.5784,1.5784,1.5784,1.5784,1.5784,1.5099,1.4459,1.3974,1.2469,1.1307,1.0779,0.9936,0.9203,0.8721,0.8519,0.82,0.7593,0.7492,0.7417,0.7277,0.7277,0.7216,0.7095,0.7204,0.72,0.7095,0.7095,0.7095,0.7095,0.7095,0.7048,0.6974,0.7061,0.696,0.6807,0.691,0.6885,0.6709,0.677,0.6753,0.6702,0.4016,0.4016,0.3615,0.2413,0.2163,0.1762,0.0555,0.141,0.2163,0.2163,0.3265,0.4066,0.4166,0.2966,0.2715,0.4066,0.4166,0.472,0.5927,0.6129,0.6734,0.7939,0.7988,0.7988,0.7988,0.7988,0.7921,0.7831,0.7818,0.7668,0.7436,0.7426,0.7295,0.7119,0.7119,0.7248,0.7429,0.7227,0.7251,0.7377,0.7224,0.7119,0.7119,0.7119,0.7248,0.7415,0.7415,0.7468,0.76,0.7614,0.7702,0.7838,0.7941,0.7988,0.7988,0.7988,0.7988,0.7988,0.7988,0.897,0.9998,0.9998,1.0194,1.0337,1.0194,1.2086,1.3926,1.3926,1.4902,1.5784,1.5784,1.5784,1.5784,1.5784,1.5784,1.5784,1.5784,1.5784,1.5784,1.5784,1.5784,1.5337,1.4166,1.3974,1.3343,1.1994,1.1896,1.1409,1.0243,1.0075,0.94,0.8193,0.8014,0.7983,0.7969,0.7846,0.7561,0.7139,0.7326,0.7319,0.7136,0.7136,0.7129,0.7119,0.7119,0.7109,0.7095,0.7095,0.7021,0.6916,0.7045,0.6933,0.6756,0.6852,0.6858,0.6739,0.4016,0.4016,0.3915,0.3615,0.3565,0.3465,0.3165,0.3366,0.3565,0.3565,0.3815,0.4418,0.5475,0.4368,0.4117,0.5425,0.5575,0.5677,0.5979,0.6983,0.7686,0.7988,0.7988,0.7988,0.7988,0.7988,0.7975,0.7941,0.7868,0.7723,0.7546,0.7428,0.7398,0.7322,0.7322,0.7407,0.7539,0.7387,0.7411,0.7536,0.7383,0.7322,0.7322,0.7322,0.7343,0.7415,0.7415,0.7468,0.7617,0.7729,0.7787,0.7838,0.7941,0.7988,0.7988,0.7988,0.7988,0.7988,0.7988,0.897,0.9998,0.9998,1.1551,1.2764,1.175,1.2716,1.3926,1.3926,1.4902,1.5784,1.5784,1.5784,1.5784,1.5784,1.5784,1.5784,1.5784,1.5784,1.5784,1.5784,1.5784,1.5683,1.5391,1.4513,1.3343,1.1994,1.1896,1.1799,1.1507,1.1463,1.1264,1.0858,1.0811,1.0754,1.068,0.9772,0.8706,0.7502,0.7536,0.7533,0.7502,0.7502,0.7434,0.7322,0.7322,0.7251,0.7095,0.7095,0.7078,0.7055,0.7085,0.7058,0.7004,0.7038,0.7031,0.6987,0.5922,0.5922,0.5722,0.507,0.497,0.472,0.4116,0.4518,0.497,0.497,0.5522,0.6174,0.6883,0.5774,0.5222,0.5929,0.6581,0.6933,0.6933,0.7587,0.7988,0.7988,0.7988,0.7988,0.7988,0.7988,0.7988,0.7988,0.7911,0.7845,0.7699,0.7621,0.7546,0.7482,0.7482,0.7563,0.7692,0.7543,0.7563,0.7689,0.7539,0.7482,0.7482,0.7482,0.7522,0.758,0.758,0.7678,0.7821,0.7896,0.787,0.7884,0.7965,0.7988,0.7988,0.7988,0.7988,0.8137,0.8775,0.9899,1.1072,1.1697,1.3349,1.4465,1.3156,1.3884,1.48,1.48,1.5337,1.5784,1.5784,1.5784,1.5784,1.5784,1.5784,1.5784,1.5784,1.5784,1.5784,1.5784,1.5784,1.5784,1.5784,1.5194,1.4513,1.3788,1.374,1.3499,1.2915,1.2861,1.2517,1.1821,1.1816,1.176,1.1686,1.1092,1.0425,0.9615,0.8302,0.7665,0.76,0.76,0.7556,0.7482,0.7482,0.7394,0.7251,0.7251,0.7515,0.7973,0.7973,0.8273,0.879,0.879,0.879,0.869,0.7988,0.7988,0.7637,0.6531,0.6331,0.5977,0.4868,0.5625,0.6331,0.6331,0.7285,0.7988,0.7988,0.6983,0.6331,0.6331,0.7335,0.7988,0.7988,0.7988,0.7988,0.7988,0.7988,0.7988,0.7988,0.7988,0.7988,0.7988,0.7988,0.7911,0.7811,0.7811,0.7746,0.7638,0.7638,0.7716,0.7841,0.7695,0.7719,0.7838,0.7692,0.7638,0.7638,0.7638,0.7709,0.7811,0.7811,0.7909,0.7988,0.7988,0.7988,0.7988,0.7988,0.7988,0.7988,0.7988,0.8187,0.8577,0.9706,1.1121,1.2528,1.3632,1.4854,1.5534,1.4459,1.5045,1.5784,1.5784,1.5784,1.5784,1.5784,1.5784,1.5784,1.5784,1.5784,1.5784,1.5784,1.5784,1.5784,1.5784,1.5784,1.5784,1.5784,1.5784,1.5784,1.5784,1.5784,1.5337,1.4268,1.4214,1.3734,1.2576,1.2576,1.2576,1.2576,1.2334,1.2237,1.2188,0.9692,0.8453,0.8332,0.8332,0.8317,0.8287,0.8056,0.7873,0.7766,0.7696,0.8188,0.8932,0.9117,0.9749,1.0611,1.0611,1.0611,1.0481,0.7988,0.7988,0.7939,0.7736,0.7739,0.7686,0.7484,0.7637,0.7739,0.7739,0.7889,0.7988,0.7988,0.7839,0.7739,0.7739,0.7889,0.7988,0.7988,0.7988,0.7988,0.7988,0.7988,0.7988,0.7988,0.7988,0.7988,0.7988,0.7988,0.7911,0.7811,0.7811,0.7801,0.7784,0.7784,0.7868,0.7948,0.7845,0.7872,0.7944,0.7841,0.7784,0.7784,0.7784,0.7794,0.7811,0.7811,0.7909,0.7988,0.7988,0.7988,0.7988,0.7988,0.7988,0.7988,0.7988,0.8821,0.9756,0.9948,1.1794,1.368,1.3872,1.4854,1.573,1.5588,1.5683,1.5784,1.5784,1.5784,1.5784,1.5784,1.5784,1.5784,1.5784,1.5784,1.5784,1.5784,1.5784,1.5784,1.5784,1.5784,1.5784,1.5784,1.5784,1.5784,1.5784,1.5784,1.573,1.554,1.5534,1.5439,1.5296,1.5296,1.5296,1.5296,1.4172,1.3632,1.359,1.2055,1.1351,1.1327,1.1327,1.1274,1.1094,0.9962,0.9382,0.9196,0.8947,0.8964,0.9146,1.0032,1.0481,1.0611,1.0611,1.0611,1.0567,0.7988,0.7988,0.7988,0.7988,0.7988,0.7988,0.7988,0.7988,0.7988,0.7988,0.7988,0.7988,0.7988,0.7988,0.7988,0.7988,0.7988,0.7988,0.7988,0.7988,0.7988,0.7988,0.7988,0.7988,0.7988,0.7988,0.7988,0.7988,0.7988,0.7955,0.7891,0.7891,0.7891,0.7891,0.7891,0.7928,0.7985,0.7917,0.7928,0.7985,0.7917,0.7891,0.7891,0.7891,0.7891,0.7891,0.7891,0.7931,0.7988,0.7988,0.7988,0.7988,0.7988,0.7988,0.8137,0.8874,0.9558,1.0337,1.1794,1.3006,1.407,1.48,1.5391,1.5784,1.5784,1.5959,1.6032,1.5865,1.5784,1.5784,1.5784,1.5784,1.5784,1.5784,1.5784,1.5784,1.5784,1.5784,1.5784,1.5784,1.5784,1.5784,1.5784,1.5784,1.5784,1.5784,1.5784,1.5784,1.5784,1.5784,1.5784,1.5784,1.5784,1.5784,1.5784,1.5242,1.4949,1.4949,1.437,1.3301,1.1896,1.1896,1.1895,1.1798,1.1221,1.0858,1.0702,1.0612,1.0871,1.1438,1.1875,1.2334,1.278,1.278,1.2684,1.2473]}]]